<?xml version="1.0" encoding="UTF-8" standalone="no" ?>
<gpx xmlns="http://www.topografix.com/GPX/1/1" xmlns:xsi="http://www.w3.org/2001/XMLSchema-instance" xsi:schemaLocation="http://www.topografix.com/GPX/1/1 http://www.topografix.com/GPX/1/1/gpx.xsd" version="1.1" creator="VisuGPX - https://www.visugpx.com">
  <metadata>
    <name>VTT Echapour</name>
    <desc><![CDATA[Boucle d\'1h au départ de montvernier.]]></desc>
  </metadata>
  <trk>
    <name><![CDATA[VTT Echapour_1]]></name>
    <trkseg>
      <trkpt lat="45.32097" lon="6.34461">
        <ele>1010</ele>
        <time>2012-10-30T09:35:59Z</time>
      </trkpt>
      <trkpt lat="45.321" lon="6.34457">
        <ele>1010</ele>
        <time>2012-10-30T09:36:01Z</time>
      </trkpt>
      <trkpt lat="45.32103" lon="6.34455">
        <ele>1010</ele>
        <time>2012-10-30T09:36:03Z</time>
      </trkpt>
      <trkpt lat="45.32106" lon="6.34449">
        <ele>1011</ele>
        <time>2012-10-30T09:36:05Z</time>
      </trkpt>
      <trkpt lat="45.32109" lon="6.34445">
        <ele>1011</ele>
        <time>2012-10-30T09:36:07Z</time>
      </trkpt>
      <trkpt lat="45.32111" lon="6.34441">
        <ele>1012</ele>
        <time>2012-10-30T09:36:09Z</time>
      </trkpt>
      <trkpt lat="45.32113" lon="6.34437">
        <ele>1012</ele>
        <time>2012-10-30T09:36:11Z</time>
      </trkpt>
      <trkpt lat="45.32114" lon="6.34432">
        <ele>1013</ele>
        <time>2012-10-30T09:36:13Z</time>
      </trkpt>
      <trkpt lat="45.32116" lon="6.34428">
        <ele>1013</ele>
        <time>2012-10-30T09:36:15Z</time>
      </trkpt>
      <trkpt lat="45.32118" lon="6.34423">
        <ele>1013</ele>
        <time>2012-10-30T09:36:17Z</time>
      </trkpt>
      <trkpt lat="45.3212" lon="6.34419">
        <ele>1014</ele>
        <time>2012-10-30T09:36:19Z</time>
      </trkpt>
      <trkpt lat="45.32122" lon="6.34414">
        <ele>1014</ele>
        <time>2012-10-30T09:36:21Z</time>
      </trkpt>
      <trkpt lat="45.32124" lon="6.34409">
        <ele>1015</ele>
        <time>2012-10-30T09:36:23Z</time>
      </trkpt>
      <trkpt lat="45.32126" lon="6.34405">
        <ele>1015</ele>
        <time>2012-10-30T09:36:25Z</time>
      </trkpt>
      <trkpt lat="45.32127" lon="6.344">
        <ele>1015</ele>
        <time>2012-10-30T09:36:27Z</time>
      </trkpt>
      <trkpt lat="45.32129" lon="6.34395">
        <ele>1016</ele>
        <time>2012-10-30T09:36:30Z</time>
      </trkpt>
      <trkpt lat="45.3213" lon="6.34388">
        <ele>1016</ele>
        <time>2012-10-30T09:36:32Z</time>
      </trkpt>
      <trkpt lat="45.32129" lon="6.34383">
        <ele>1017</ele>
        <time>2012-10-30T09:36:34Z</time>
      </trkpt>
      <trkpt lat="45.3213" lon="6.34377">
        <ele>1017</ele>
        <time>2012-10-30T09:36:36Z</time>
      </trkpt>
      <trkpt lat="45.32132" lon="6.34372">
        <ele>1017</ele>
        <time>2012-10-30T09:36:38Z</time>
      </trkpt>
      <trkpt lat="45.32134" lon="6.34367">
        <ele>1018</ele>
        <time>2012-10-30T09:36:40Z</time>
      </trkpt>
      <trkpt lat="45.32135" lon="6.34361">
        <ele>1019</ele>
        <time>2012-10-30T09:36:42Z</time>
      </trkpt>
      <trkpt lat="45.32136" lon="6.34356">
        <ele>1019</ele>
        <time>2012-10-30T09:36:45Z</time>
      </trkpt>
      <trkpt lat="45.32138" lon="6.34348">
        <ele>1019</ele>
        <time>2012-10-30T09:36:47Z</time>
      </trkpt>
      <trkpt lat="45.32138" lon="6.34342">
        <ele>1020</ele>
        <time>2012-10-30T09:36:49Z</time>
      </trkpt>
      <trkpt lat="45.32138" lon="6.34337">
        <ele>1020</ele>
        <time>2012-10-30T09:36:51Z</time>
      </trkpt>
      <trkpt lat="45.32139" lon="6.34333">
        <ele>1021</ele>
        <time>2012-10-30T09:36:53Z</time>
      </trkpt>
      <trkpt lat="45.32139" lon="6.34328">
        <ele>1021</ele>
        <time>2012-10-30T09:36:55Z</time>
      </trkpt>
      <trkpt lat="45.3214" lon="6.34323">
        <ele>1021</ele>
        <time>2012-10-30T09:36:57Z</time>
      </trkpt>
      <trkpt lat="45.32141" lon="6.34318">
        <ele>1022</ele>
        <time>2012-10-30T09:36:59Z</time>
      </trkpt>
      <trkpt lat="45.32143" lon="6.34311">
        <ele>1022</ele>
        <time>2012-10-30T09:37:02Z</time>
      </trkpt>
      <trkpt lat="45.32144" lon="6.34306">
        <ele>1023</ele>
        <time>2012-10-30T09:37:04Z</time>
      </trkpt>
      <trkpt lat="45.32145" lon="6.34301">
        <ele>1023</ele>
        <time>2012-10-30T09:37:06Z</time>
      </trkpt>
      <trkpt lat="45.32146" lon="6.34296">
        <ele>1023</ele>
        <time>2012-10-30T09:37:08Z</time>
      </trkpt>
      <trkpt lat="45.32148" lon="6.34291">
        <ele>1024</ele>
        <time>2012-10-30T09:37:10Z</time>
      </trkpt>
      <trkpt lat="45.3215" lon="6.34287">
        <ele>1024</ele>
        <time>2012-10-30T09:37:12Z</time>
      </trkpt>
      <trkpt lat="45.32151" lon="6.34282">
        <ele>1025</ele>
        <time>2012-10-30T09:37:14Z</time>
      </trkpt>
      <trkpt lat="45.32153" lon="6.34278">
        <ele>1025</ele>
        <time>2012-10-30T09:37:16Z</time>
      </trkpt>
      <trkpt lat="45.32154" lon="6.34273">
        <ele>1026</ele>
        <time>2012-10-30T09:37:19Z</time>
      </trkpt>
      <trkpt lat="45.32157" lon="6.34265">
        <ele>1026</ele>
        <time>2012-10-30T09:37:21Z</time>
      </trkpt>
      <trkpt lat="45.32158" lon="6.3426">
        <ele>1026</ele>
        <time>2012-10-30T09:37:23Z</time>
      </trkpt>
      <trkpt lat="45.3216" lon="6.34255">
        <ele>1027</ele>
        <time>2012-10-30T09:37:25Z</time>
      </trkpt>
      <trkpt lat="45.32161" lon="6.3425">
        <ele>1027</ele>
        <time>2012-10-30T09:37:27Z</time>
      </trkpt>
      <trkpt lat="45.32163" lon="6.34246">
        <ele>1027</ele>
        <time>2012-10-30T09:37:29Z</time>
      </trkpt>
      <trkpt lat="45.32161" lon="6.34236">
        <ele>1027</ele>
        <time>2012-10-30T09:37:31Z</time>
      </trkpt>
      <trkpt lat="45.32162" lon="6.34231">
        <ele>1028</ele>
        <time>2012-10-30T09:37:33Z</time>
      </trkpt>
      <trkpt lat="45.32164" lon="6.34226">
        <ele>1028</ele>
        <time>2012-10-30T09:37:35Z</time>
      </trkpt>
      <trkpt lat="45.32165" lon="6.34222">
        <ele>1028</ele>
        <time>2012-10-30T09:37:37Z</time>
      </trkpt>
      <trkpt lat="45.32167" lon="6.34218">
        <ele>1029</ele>
        <time>2012-10-30T09:37:39Z</time>
      </trkpt>
      <trkpt lat="45.32169" lon="6.34213">
        <ele>1029</ele>
        <time>2012-10-30T09:37:41Z</time>
      </trkpt>
      <trkpt lat="45.32171" lon="6.34209">
        <ele>1030</ele>
        <time>2012-10-30T09:37:43Z</time>
      </trkpt>
      <trkpt lat="45.32173" lon="6.34205">
        <ele>1030</ele>
        <time>2012-10-30T09:37:46Z</time>
      </trkpt>
      <trkpt lat="45.32176" lon="6.34201">
        <ele>1031</ele>
        <time>2012-10-30T09:37:48Z</time>
      </trkpt>
      <trkpt lat="45.32179" lon="6.34194">
        <ele>1032</ele>
        <time>2012-10-30T09:37:50Z</time>
      </trkpt>
      <trkpt lat="45.32181" lon="6.3419">
        <ele>1032</ele>
        <time>2012-10-30T09:37:52Z</time>
      </trkpt>
      <trkpt lat="45.32183" lon="6.34185">
        <ele>1033</ele>
        <time>2012-10-30T09:37:54Z</time>
      </trkpt>
      <trkpt lat="45.32185" lon="6.34181">
        <ele>1033</ele>
        <time>2012-10-30T09:37:56Z</time>
      </trkpt>
      <trkpt lat="45.32189" lon="6.34178">
        <ele>1033</ele>
        <time>2012-10-30T09:37:58Z</time>
      </trkpt>
      <trkpt lat="45.32193" lon="6.3418">
        <ele>1033</ele>
        <time>2012-10-30T09:38:00Z</time>
      </trkpt>
      <trkpt lat="45.32195" lon="6.34184">
        <ele>1034</ele>
        <time>2012-10-30T09:38:02Z</time>
      </trkpt>
      <trkpt lat="45.32195" lon="6.34189">
        <ele>1034</ele>
        <time>2012-10-30T09:38:05Z</time>
      </trkpt>
      <trkpt lat="45.32193" lon="6.34196">
        <ele>1035</ele>
        <time>2012-10-30T09:38:07Z</time>
      </trkpt>
      <trkpt lat="45.3219" lon="6.34199">
        <ele>1035</ele>
        <time>2012-10-30T09:38:09Z</time>
      </trkpt>
      <trkpt lat="45.32188" lon="6.34203">
        <ele>1036</ele>
        <time>2012-10-30T09:38:11Z</time>
      </trkpt>
      <trkpt lat="45.32185" lon="6.34206">
        <ele>1036</ele>
        <time>2012-10-30T09:38:13Z</time>
      </trkpt>
      <trkpt lat="45.32182" lon="6.3421">
        <ele>1036</ele>
        <time>2012-10-30T09:38:15Z</time>
      </trkpt>
      <trkpt lat="45.3218" lon="6.34215">
        <ele>1036</ele>
        <time>2012-10-30T09:38:17Z</time>
      </trkpt>
      <trkpt lat="45.32178" lon="6.3422">
        <ele>1036</ele>
        <time>2012-10-30T09:38:19Z</time>
      </trkpt>
      <trkpt lat="45.32176" lon="6.34226">
        <ele>1037</ele>
        <time>2012-10-30T09:38:21Z</time>
      </trkpt>
      <trkpt lat="45.32175" lon="6.34232">
        <ele>1037</ele>
        <time>2012-10-30T09:38:23Z</time>
      </trkpt>
      <trkpt lat="45.32174" lon="6.34237">
        <ele>1038</ele>
        <time>2012-10-30T09:38:25Z</time>
      </trkpt>
      <trkpt lat="45.32174" lon="6.34244">
        <ele>1038</ele>
        <time>2012-10-30T09:38:27Z</time>
      </trkpt>
      <trkpt lat="45.32173" lon="6.3425">
        <ele>1038</ele>
        <time>2012-10-30T09:38:29Z</time>
      </trkpt>
      <trkpt lat="45.32173" lon="6.34256">
        <ele>1038</ele>
        <time>2012-10-30T09:38:31Z</time>
      </trkpt>
      <trkpt lat="45.32174" lon="6.34265">
        <ele>1038</ele>
        <time>2012-10-30T09:38:34Z</time>
      </trkpt>
      <trkpt lat="45.32174" lon="6.34271">
        <ele>1038</ele>
        <time>2012-10-30T09:38:36Z</time>
      </trkpt>
      <trkpt lat="45.32174" lon="6.34277">
        <ele>1039</ele>
        <time>2012-10-30T09:38:38Z</time>
      </trkpt>
      <trkpt lat="45.32175" lon="6.34283">
        <ele>1039</ele>
        <time>2012-10-30T09:38:40Z</time>
      </trkpt>
      <trkpt lat="45.32175" lon="6.34289">
        <ele>1040</ele>
        <time>2012-10-30T09:38:42Z</time>
      </trkpt>
      <trkpt lat="45.32175" lon="6.34295">
        <ele>1040</ele>
        <time>2012-10-30T09:38:44Z</time>
      </trkpt>
      <trkpt lat="45.32176" lon="6.34301">
        <ele>1041</ele>
        <time>2012-10-30T09:38:46Z</time>
      </trkpt>
      <trkpt lat="45.32176" lon="6.34307">
        <ele>1041</ele>
        <time>2012-10-30T09:38:48Z</time>
      </trkpt>
      <trkpt lat="45.32175" lon="6.34313">
        <ele>1041</ele>
        <time>2012-10-30T09:38:50Z</time>
      </trkpt>
      <trkpt lat="45.32175" lon="6.34318">
        <ele>1041</ele>
        <time>2012-10-30T09:38:52Z</time>
      </trkpt>
      <trkpt lat="45.32175" lon="6.34324">
        <ele>1042</ele>
        <time>2012-10-30T09:38:54Z</time>
      </trkpt>
      <trkpt lat="45.32175" lon="6.34331">
        <ele>1042</ele>
        <time>2012-10-30T09:38:57Z</time>
      </trkpt>
      <trkpt lat="45.32174" lon="6.3434">
        <ele>1042</ele>
        <time>2012-10-30T09:38:59Z</time>
      </trkpt>
      <trkpt lat="45.32173" lon="6.34346">
        <ele>1043</ele>
        <time>2012-10-30T09:39:01Z</time>
      </trkpt>
      <trkpt lat="45.32173" lon="6.34353">
        <ele>1043</ele>
        <time>2012-10-30T09:39:03Z</time>
      </trkpt>
      <trkpt lat="45.32173" lon="6.34359">
        <ele>1044</ele>
        <time>2012-10-30T09:39:05Z</time>
      </trkpt>
      <trkpt lat="45.32174" lon="6.34365">
        <ele>1044</ele>
        <time>2012-10-30T09:39:07Z</time>
      </trkpt>
      <trkpt lat="45.32177" lon="6.3437">
        <ele>1044</ele>
        <time>2012-10-30T09:39:09Z</time>
      </trkpt>
      <trkpt lat="45.32181" lon="6.34373">
        <ele>1045</ele>
        <time>2012-10-30T09:39:11Z</time>
      </trkpt>
      <trkpt lat="45.32185" lon="6.34375">
        <ele>1045</ele>
        <time>2012-10-30T09:39:13Z</time>
      </trkpt>
      <trkpt lat="45.3219" lon="6.34373">
        <ele>1045</ele>
        <time>2012-10-30T09:39:15Z</time>
      </trkpt>
      <trkpt lat="45.32193" lon="6.34368">
        <ele>1046</ele>
        <time>2012-10-30T09:39:18Z</time>
      </trkpt>
      <trkpt lat="45.32195" lon="6.34358">
        <ele>1046</ele>
        <time>2012-10-30T09:39:20Z</time>
      </trkpt>
      <trkpt lat="45.32195" lon="6.3435">
        <ele>1046</ele>
        <time>2012-10-30T09:39:22Z</time>
      </trkpt>
      <trkpt lat="45.32195" lon="6.34343">
        <ele>1047</ele>
        <time>2012-10-30T09:39:24Z</time>
      </trkpt>
      <trkpt lat="45.32194" lon="6.34336">
        <ele>1047</ele>
        <time>2012-10-30T09:39:26Z</time>
      </trkpt>
      <trkpt lat="45.32194" lon="6.34329">
        <ele>1048</ele>
        <time>2012-10-30T09:39:28Z</time>
      </trkpt>
      <trkpt lat="45.32194" lon="6.34321">
        <ele>1048</ele>
        <time>2012-10-30T09:39:30Z</time>
      </trkpt>
      <trkpt lat="45.32195" lon="6.34314">
        <ele>1049</ele>
        <time>2012-10-30T09:39:32Z</time>
      </trkpt>
      <trkpt lat="45.32196" lon="6.34307">
        <ele>1049</ele>
        <time>2012-10-30T09:39:34Z</time>
      </trkpt>
      <trkpt lat="45.32197" lon="6.34301">
        <ele>1049</ele>
        <time>2012-10-30T09:39:36Z</time>
      </trkpt>
      <trkpt lat="45.32198" lon="6.34295">
        <ele>1050</ele>
        <time>2012-10-30T09:39:38Z</time>
      </trkpt>
      <trkpt lat="45.322" lon="6.34288">
        <ele>1051</ele>
        <time>2012-10-30T09:39:41Z</time>
      </trkpt>
      <trkpt lat="45.32201" lon="6.34281">
        <ele>1051</ele>
        <time>2012-10-30T09:39:43Z</time>
      </trkpt>
      <trkpt lat="45.32204" lon="6.34271">
        <ele>1051</ele>
        <time>2012-10-30T09:39:45Z</time>
      </trkpt>
      <trkpt lat="45.32206" lon="6.34265">
        <ele>1052</ele>
        <time>2012-10-30T09:39:47Z</time>
      </trkpt>
      <trkpt lat="45.32208" lon="6.34258">
        <ele>1052</ele>
        <time>2012-10-30T09:39:49Z</time>
      </trkpt>
      <trkpt lat="45.3221" lon="6.34252">
        <ele>1053</ele>
        <time>2012-10-30T09:39:51Z</time>
      </trkpt>
      <trkpt lat="45.32213" lon="6.34246">
        <ele>1053</ele>
        <time>2012-10-30T09:39:53Z</time>
      </trkpt>
      <trkpt lat="45.32217" lon="6.34241">
        <ele>1054</ele>
        <time>2012-10-30T09:39:55Z</time>
      </trkpt>
      <trkpt lat="45.3222" lon="6.34237">
        <ele>1054</ele>
        <time>2012-10-30T09:39:58Z</time>
      </trkpt>
      <trkpt lat="45.32225" lon="6.34231">
        <ele>1055</ele>
        <time>2012-10-30T09:40:00Z</time>
      </trkpt>
      <trkpt lat="45.32229" lon="6.34227">
        <ele>1056</ele>
        <time>2012-10-30T09:40:02Z</time>
      </trkpt>
      <trkpt lat="45.32233" lon="6.34224">
        <ele>1056</ele>
        <time>2012-10-30T09:40:04Z</time>
      </trkpt>
      <trkpt lat="45.32237" lon="6.34221">
        <ele>1057</ele>
        <time>2012-10-30T09:40:06Z</time>
      </trkpt>
      <trkpt lat="45.32241" lon="6.34218">
        <ele>1057</ele>
        <time>2012-10-30T09:40:08Z</time>
      </trkpt>
      <trkpt lat="45.32244" lon="6.34214">
        <ele>1057</ele>
        <time>2012-10-30T09:40:10Z</time>
      </trkpt>
      <trkpt lat="45.32248" lon="6.3421">
        <ele>1058</ele>
        <time>2012-10-30T09:40:12Z</time>
      </trkpt>
      <trkpt lat="45.32251" lon="6.34206">
        <ele>1058</ele>
        <time>2012-10-30T09:40:14Z</time>
      </trkpt>
      <trkpt lat="45.32254" lon="6.34201">
        <ele>1059</ele>
        <time>2012-10-30T09:40:16Z</time>
      </trkpt>
      <trkpt lat="45.32258" lon="6.34198">
        <ele>1059</ele>
        <time>2012-10-30T09:40:18Z</time>
      </trkpt>
      <trkpt lat="45.32261" lon="6.34194">
        <ele>1060</ele>
        <time>2012-10-30T09:40:20Z</time>
      </trkpt>
      <trkpt lat="45.32264" lon="6.3419">
        <ele>1060</ele>
        <time>2012-10-30T09:40:22Z</time>
      </trkpt>
      <trkpt lat="45.32267" lon="6.34186">
        <ele>1060</ele>
        <time>2012-10-30T09:40:24Z</time>
      </trkpt>
      <trkpt lat="45.32272" lon="6.34179">
        <ele>1060</ele>
        <time>2012-10-30T09:40:27Z</time>
      </trkpt>
      <trkpt lat="45.32275" lon="6.34175">
        <ele>1061</ele>
        <time>2012-10-30T09:40:29Z</time>
      </trkpt>
      <trkpt lat="45.32278" lon="6.34171">
        <ele>1061</ele>
        <time>2012-10-30T09:40:31Z</time>
      </trkpt>
      <trkpt lat="45.32281" lon="6.34166">
        <ele>1062</ele>
        <time>2012-10-30T09:40:33Z</time>
      </trkpt>
      <trkpt lat="45.32284" lon="6.34161">
        <ele>1062</ele>
        <time>2012-10-30T09:40:35Z</time>
      </trkpt>
      <trkpt lat="45.32287" lon="6.34156">
        <ele>1063</ele>
        <time>2012-10-30T09:40:37Z</time>
      </trkpt>
      <trkpt lat="45.3229" lon="6.34151">
        <ele>1063</ele>
        <time>2012-10-30T09:40:39Z</time>
      </trkpt>
      <trkpt lat="45.32293" lon="6.34145">
        <ele>1064</ele>
        <time>2012-10-30T09:40:42Z</time>
      </trkpt>
      <trkpt lat="45.32298" lon="6.34138">
        <ele>1064</ele>
        <time>2012-10-30T09:40:44Z</time>
      </trkpt>
      <trkpt lat="45.32301" lon="6.34133">
        <ele>1065</ele>
        <time>2012-10-30T09:40:46Z</time>
      </trkpt>
      <trkpt lat="45.32304" lon="6.34129">
        <ele>1065</ele>
        <time>2012-10-30T09:40:48Z</time>
      </trkpt>
      <trkpt lat="45.32307" lon="6.34126">
        <ele>1066</ele>
        <time>2012-10-30T09:40:50Z</time>
      </trkpt>
      <trkpt lat="45.32309" lon="6.34122">
        <ele>1067</ele>
        <time>2012-10-30T09:40:52Z</time>
      </trkpt>
      <trkpt lat="45.32312" lon="6.34118">
        <ele>1067</ele>
        <time>2012-10-30T09:40:54Z</time>
      </trkpt>
      <trkpt lat="45.32315" lon="6.34114">
        <ele>1068</ele>
        <time>2012-10-30T09:40:56Z</time>
      </trkpt>
      <trkpt lat="45.32318" lon="6.3411">
        <ele>1068</ele>
        <time>2012-10-30T09:40:58Z</time>
      </trkpt>
      <trkpt lat="45.32322" lon="6.34106">
        <ele>1068</ele>
        <time>2012-10-30T09:41:00Z</time>
      </trkpt>
      <trkpt lat="45.32327" lon="6.34102">
        <ele>1069</ele>
        <time>2012-10-30T09:41:03Z</time>
      </trkpt>
      <trkpt lat="45.3233" lon="6.34099">
        <ele>1069</ele>
        <time>2012-10-30T09:41:05Z</time>
      </trkpt>
      <trkpt lat="45.32334" lon="6.34096">
        <ele>1069</ele>
        <time>2012-10-30T09:41:07Z</time>
      </trkpt>
      <trkpt lat="45.32338" lon="6.34094">
        <ele>1070</ele>
        <time>2012-10-30T09:41:09Z</time>
      </trkpt>
      <trkpt lat="45.32342" lon="6.34092">
        <ele>1070</ele>
        <time>2012-10-30T09:41:11Z</time>
      </trkpt>
      <trkpt lat="45.32345" lon="6.3409">
        <ele>1071</ele>
        <time>2012-10-30T09:41:13Z</time>
      </trkpt>
      <trkpt lat="45.32349" lon="6.34088">
        <ele>1071</ele>
        <time>2012-10-30T09:41:15Z</time>
      </trkpt>
      <trkpt lat="45.32353" lon="6.34086">
        <ele>1072</ele>
        <time>2012-10-30T09:41:17Z</time>
      </trkpt>
      <trkpt lat="45.32356" lon="6.34085">
        <ele>1073</ele>
        <time>2012-10-30T09:41:19Z</time>
      </trkpt>
      <trkpt lat="45.3236" lon="6.34083">
        <ele>1073</ele>
        <time>2012-10-30T09:41:21Z</time>
      </trkpt>
      <trkpt lat="45.32363" lon="6.34081">
        <ele>1073</ele>
        <time>2012-10-30T09:41:23Z</time>
      </trkpt>
      <trkpt lat="45.32367" lon="6.34079">
        <ele>1074</ele>
        <time>2012-10-30T09:41:25Z</time>
      </trkpt>
      <trkpt lat="45.32369" lon="6.34077">
        <ele>1074</ele>
        <time>2012-10-30T09:41:27Z</time>
      </trkpt>
      <trkpt lat="45.32372" lon="6.34074">
        <ele>1075</ele>
        <time>2012-10-30T09:41:29Z</time>
      </trkpt>
      <trkpt lat="45.32375" lon="6.34069">
        <ele>1075</ele>
        <time>2012-10-30T09:41:32Z</time>
      </trkpt>
      <trkpt lat="45.32377" lon="6.34064">
        <ele>1075</ele>
        <time>2012-10-30T09:41:34Z</time>
      </trkpt>
      <trkpt lat="45.32378" lon="6.34059">
        <ele>1076</ele>
        <time>2012-10-30T09:41:36Z</time>
      </trkpt>
      <trkpt lat="45.32378" lon="6.34054">
        <ele>1076</ele>
        <time>2012-10-30T09:41:38Z</time>
      </trkpt>
      <trkpt lat="45.32378" lon="6.34049">
        <ele>1076</ele>
        <time>2012-10-30T09:41:40Z</time>
      </trkpt>
      <trkpt lat="45.32377" lon="6.34044">
        <ele>1077</ele>
        <time>2012-10-30T09:41:42Z</time>
      </trkpt>
      <trkpt lat="45.32375" lon="6.34039">
        <ele>1078</ele>
        <time>2012-10-30T09:41:44Z</time>
      </trkpt>
      <trkpt lat="45.32372" lon="6.34032">
        <ele>1078</ele>
        <time>2012-10-30T09:41:47Z</time>
      </trkpt>
      <trkpt lat="45.3237" lon="6.34028">
        <ele>1079</ele>
        <time>2012-10-30T09:41:49Z</time>
      </trkpt>
      <trkpt lat="45.32367" lon="6.34025">
        <ele>1079</ele>
        <time>2012-10-30T09:41:51Z</time>
      </trkpt>
      <trkpt lat="45.32365" lon="6.34022">
        <ele>1079</ele>
        <time>2012-10-30T09:41:53Z</time>
      </trkpt>
      <trkpt lat="45.32361" lon="6.34018">
        <ele>1079</ele>
        <time>2012-10-30T09:41:55Z</time>
      </trkpt>
      <trkpt lat="45.32357" lon="6.34015">
        <ele>1080</ele>
        <time>2012-10-30T09:41:57Z</time>
      </trkpt>
      <trkpt lat="45.32354" lon="6.34011">
        <ele>1081</ele>
        <time>2012-10-30T09:41:59Z</time>
      </trkpt>
      <trkpt lat="45.32351" lon="6.34008">
        <ele>1081</ele>
        <time>2012-10-30T09:42:01Z</time>
      </trkpt>
      <trkpt lat="45.32347" lon="6.34004">
        <ele>1082</ele>
        <time>2012-10-30T09:42:03Z</time>
      </trkpt>
      <trkpt lat="45.32343" lon="6.34001">
        <ele>1082</ele>
        <time>2012-10-30T09:42:05Z</time>
      </trkpt>
      <trkpt lat="45.32337" lon="6.33996">
        <ele>1082</ele>
        <time>2012-10-30T09:42:08Z</time>
      </trkpt>
      <trkpt lat="45.32333" lon="6.33992">
        <ele>1081</ele>
        <time>2012-10-30T09:42:10Z</time>
      </trkpt>
      <trkpt lat="45.3233" lon="6.33988">
        <ele>1082</ele>
        <time>2012-10-30T09:42:12Z</time>
      </trkpt>
      <trkpt lat="45.32327" lon="6.33983">
        <ele>1082</ele>
        <time>2012-10-30T09:42:14Z</time>
      </trkpt>
      <trkpt lat="45.32325" lon="6.33978">
        <ele>1082</ele>
        <time>2012-10-30T09:42:16Z</time>
      </trkpt>
      <trkpt lat="45.32323" lon="6.33972">
        <ele>1082</ele>
        <time>2012-10-30T09:42:18Z</time>
      </trkpt>
      <trkpt lat="45.32322" lon="6.33966">
        <ele>1083</ele>
        <time>2012-10-30T09:42:20Z</time>
      </trkpt>
      <trkpt lat="45.32322" lon="6.33956">
        <ele>1083</ele>
        <time>2012-10-30T09:42:23Z</time>
      </trkpt>
      <trkpt lat="45.32322" lon="6.33949">
        <ele>1084</ele>
        <time>2012-10-30T09:42:25Z</time>
      </trkpt>
      <trkpt lat="45.32322" lon="6.33943">
        <ele>1084</ele>
        <time>2012-10-30T09:42:27Z</time>
      </trkpt>
      <trkpt lat="45.32322" lon="6.33936">
        <ele>1084</ele>
        <time>2012-10-30T09:42:29Z</time>
      </trkpt>
      <trkpt lat="45.32322" lon="6.3393">
        <ele>1085</ele>
        <time>2012-10-30T09:42:31Z</time>
      </trkpt>
      <trkpt lat="45.32322" lon="6.33924">
        <ele>1085</ele>
        <time>2012-10-30T09:42:33Z</time>
      </trkpt>
      <trkpt lat="45.32322" lon="6.33918">
        <ele>1086</ele>
        <time>2012-10-30T09:42:35Z</time>
      </trkpt>
      <trkpt lat="45.32322" lon="6.33908">
        <ele>1086</ele>
        <time>2012-10-30T09:42:37Z</time>
      </trkpt>
      <trkpt lat="45.32323" lon="6.33902">
        <ele>1086</ele>
        <time>2012-10-30T09:42:40Z</time>
      </trkpt>
      <trkpt lat="45.32323" lon="6.33896">
        <ele>1086</ele>
        <time>2012-10-30T09:42:42Z</time>
      </trkpt>
      <trkpt lat="45.32323" lon="6.3389">
        <ele>1087</ele>
        <time>2012-10-30T09:42:44Z</time>
      </trkpt>
      <trkpt lat="45.32323" lon="6.33883">
        <ele>1087</ele>
        <time>2012-10-30T09:42:46Z</time>
      </trkpt>
      <trkpt lat="45.32324" lon="6.33877">
        <ele>1087</ele>
        <time>2012-10-30T09:42:48Z</time>
      </trkpt>
      <trkpt lat="45.32324" lon="6.33871">
        <ele>1088</ele>
        <time>2012-10-30T09:42:50Z</time>
      </trkpt>
      <trkpt lat="45.32324" lon="6.33864">
        <ele>1088</ele>
        <time>2012-10-30T09:42:52Z</time>
      </trkpt>
      <trkpt lat="45.32324" lon="6.33858">
        <ele>1088</ele>
        <time>2012-10-30T09:42:54Z</time>
      </trkpt>
      <trkpt lat="45.32324" lon="6.33852">
        <ele>1088</ele>
        <time>2012-10-30T09:42:56Z</time>
      </trkpt>
      <trkpt lat="45.32323" lon="6.33846">
        <ele>1088</ele>
        <time>2012-10-30T09:42:58Z</time>
      </trkpt>
      <trkpt lat="45.32324" lon="6.33837">
        <ele>1089</ele>
        <time>2012-10-30T09:43:01Z</time>
      </trkpt>
      <trkpt lat="45.32325" lon="6.3383">
        <ele>1089</ele>
        <time>2012-10-30T09:43:03Z</time>
      </trkpt>
      <trkpt lat="45.32324" lon="6.33823">
        <ele>1090</ele>
        <time>2012-10-30T09:43:05Z</time>
      </trkpt>
      <trkpt lat="45.32324" lon="6.33817">
        <ele>1091</ele>
        <time>2012-10-30T09:43:07Z</time>
      </trkpt>
      <trkpt lat="45.32325" lon="6.33811">
        <ele>1091</ele>
        <time>2012-10-30T09:43:09Z</time>
      </trkpt>
      <trkpt lat="45.32326" lon="6.33805">
        <ele>1091</ele>
        <time>2012-10-30T09:43:11Z</time>
      </trkpt>
      <trkpt lat="45.32327" lon="6.33799">
        <ele>1091</ele>
        <time>2012-10-30T09:43:13Z</time>
      </trkpt>
      <trkpt lat="45.32329" lon="6.33794">
        <ele>1092</ele>
        <time>2012-10-30T09:43:15Z</time>
      </trkpt>
      <trkpt lat="45.32331" lon="6.33789">
        <ele>1092</ele>
        <time>2012-10-30T09:43:17Z</time>
      </trkpt>
      <trkpt lat="45.32333" lon="6.33784">
        <ele>1092</ele>
        <time>2012-10-30T09:43:19Z</time>
      </trkpt>
      <trkpt lat="45.32336" lon="6.33779">
        <ele>1093</ele>
        <time>2012-10-30T09:43:21Z</time>
      </trkpt>
      <trkpt lat="45.32338" lon="6.33774">
        <ele>1093</ele>
        <time>2012-10-30T09:43:23Z</time>
      </trkpt>
      <trkpt lat="45.3234" lon="6.33769">
        <ele>1094</ele>
        <time>2012-10-30T09:43:25Z</time>
      </trkpt>
      <trkpt lat="45.32343" lon="6.33761">
        <ele>1094</ele>
        <time>2012-10-30T09:43:28Z</time>
      </trkpt>
      <trkpt lat="45.32344" lon="6.33755">
        <ele>1094</ele>
        <time>2012-10-30T09:43:30Z</time>
      </trkpt>
      <trkpt lat="45.32346" lon="6.3375">
        <ele>1094</ele>
        <time>2012-10-30T09:43:32Z</time>
      </trkpt>
      <trkpt lat="45.32348" lon="6.33745">
        <ele>1095</ele>
        <time>2012-10-30T09:43:34Z</time>
      </trkpt>
      <trkpt lat="45.3235" lon="6.3374">
        <ele>1095</ele>
        <time>2012-10-30T09:43:36Z</time>
      </trkpt>
      <trkpt lat="45.32351" lon="6.33734">
        <ele>1095</ele>
        <time>2012-10-30T09:43:38Z</time>
      </trkpt>
      <trkpt lat="45.32352" lon="6.33728">
        <ele>1096</ele>
        <time>2012-10-30T09:43:40Z</time>
      </trkpt>
      <trkpt lat="45.32353" lon="6.33722">
        <ele>1096</ele>
        <time>2012-10-30T09:43:42Z</time>
      </trkpt>
      <trkpt lat="45.32354" lon="6.33716">
        <ele>1097</ele>
        <time>2012-10-30T09:43:44Z</time>
      </trkpt>
      <trkpt lat="45.32355" lon="6.3371">
        <ele>1097</ele>
        <time>2012-10-30T09:43:46Z</time>
      </trkpt>
      <trkpt lat="45.32356" lon="6.33705">
        <ele>1098</ele>
        <time>2012-10-30T09:43:48Z</time>
      </trkpt>
      <trkpt lat="45.32356" lon="6.33699">
        <ele>1099</ele>
        <time>2012-10-30T09:43:50Z</time>
      </trkpt>
      <trkpt lat="45.32357" lon="6.33693">
        <ele>1099</ele>
        <time>2012-10-30T09:43:52Z</time>
      </trkpt>
      <trkpt lat="45.32358" lon="6.33687">
        <ele>1100</ele>
        <time>2012-10-30T09:43:54Z</time>
      </trkpt>
      <trkpt lat="45.32359" lon="6.33682">
        <ele>1100</ele>
        <time>2012-10-30T09:43:56Z</time>
      </trkpt>
      <trkpt lat="45.32362" lon="6.33674">
        <ele>1101</ele>
        <time>2012-10-30T09:43:59Z</time>
      </trkpt>
      <trkpt lat="45.32365" lon="6.33671">
        <ele>1101</ele>
        <time>2012-10-30T09:44:01Z</time>
      </trkpt>
      <trkpt lat="45.32369" lon="6.33671">
        <ele>1102</ele>
        <time>2012-10-30T09:44:03Z</time>
      </trkpt>
      <trkpt lat="45.32372" lon="6.33673">
        <ele>1102</ele>
        <time>2012-10-30T09:44:05Z</time>
      </trkpt>
      <trkpt lat="45.32375" lon="6.33677">
        <ele>1102</ele>
        <time>2012-10-30T09:44:07Z</time>
      </trkpt>
      <trkpt lat="45.32375" lon="6.33682">
        <ele>1103</ele>
        <time>2012-10-30T09:44:09Z</time>
      </trkpt>
      <trkpt lat="45.32375" lon="6.33688">
        <ele>1103</ele>
        <time>2012-10-30T09:44:11Z</time>
      </trkpt>
      <trkpt lat="45.32373" lon="6.33697">
        <ele>1104</ele>
        <time>2012-10-30T09:44:13Z</time>
      </trkpt>
      <trkpt lat="45.3237" lon="6.33703">
        <ele>1104</ele>
        <time>2012-10-30T09:44:16Z</time>
      </trkpt>
      <trkpt lat="45.32368" lon="6.33709">
        <ele>1104</ele>
        <time>2012-10-30T09:44:18Z</time>
      </trkpt>
      <trkpt lat="45.32367" lon="6.33715">
        <ele>1104</ele>
        <time>2012-10-30T09:44:20Z</time>
      </trkpt>
      <trkpt lat="45.32366" lon="6.33722">
        <ele>1104</ele>
        <time>2012-10-30T09:44:22Z</time>
      </trkpt>
      <trkpt lat="45.32365" lon="6.33729">
        <ele>1104</ele>
        <time>2012-10-30T09:44:24Z</time>
      </trkpt>
      <trkpt lat="45.32365" lon="6.33739">
        <ele>1104</ele>
        <time>2012-10-30T09:44:26Z</time>
      </trkpt>
      <trkpt lat="45.32367" lon="6.33746">
        <ele>1105</ele>
        <time>2012-10-30T09:44:29Z</time>
      </trkpt>
      <trkpt lat="45.32368" lon="6.33753">
        <ele>1105</ele>
        <time>2012-10-30T09:44:31Z</time>
      </trkpt>
      <trkpt lat="45.32371" lon="6.33759">
        <ele>1105</ele>
        <time>2012-10-30T09:44:33Z</time>
      </trkpt>
      <trkpt lat="45.32373" lon="6.33766">
        <ele>1105</ele>
        <time>2012-10-30T09:44:35Z</time>
      </trkpt>
      <trkpt lat="45.32375" lon="6.33772">
        <ele>1106</ele>
        <time>2012-10-30T09:44:37Z</time>
      </trkpt>
      <trkpt lat="45.32379" lon="6.33781">
        <ele>1106</ele>
        <time>2012-10-30T09:44:39Z</time>
      </trkpt>
      <trkpt lat="45.32382" lon="6.33786">
        <ele>1106</ele>
        <time>2012-10-30T09:44:42Z</time>
      </trkpt>
      <trkpt lat="45.32385" lon="6.33792">
        <ele>1107</ele>
        <time>2012-10-30T09:44:44Z</time>
      </trkpt>
      <trkpt lat="45.32388" lon="6.33798">
        <ele>1107</ele>
        <time>2012-10-30T09:44:46Z</time>
      </trkpt>
      <trkpt lat="45.3239" lon="6.33805">
        <ele>1107</ele>
        <time>2012-10-30T09:44:48Z</time>
      </trkpt>
      <trkpt lat="45.32393" lon="6.3381">
        <ele>1108</ele>
        <time>2012-10-30T09:44:50Z</time>
      </trkpt>
      <trkpt lat="45.32395" lon="6.33816">
        <ele>1108</ele>
        <time>2012-10-30T09:44:52Z</time>
      </trkpt>
      <trkpt lat="45.32398" lon="6.33821">
        <ele>1108</ele>
        <time>2012-10-30T09:44:54Z</time>
      </trkpt>
      <trkpt lat="45.32401" lon="6.33826">
        <ele>1109</ele>
        <time>2012-10-30T09:44:56Z</time>
      </trkpt>
      <trkpt lat="45.32404" lon="6.33832">
        <ele>1109</ele>
        <time>2012-10-30T09:44:58Z</time>
      </trkpt>
      <trkpt lat="45.32407" lon="6.33838">
        <ele>1109</ele>
        <time>2012-10-30T09:45:00Z</time>
      </trkpt>
      <trkpt lat="45.32412" lon="6.33847">
        <ele>1110</ele>
        <time>2012-10-30T09:45:03Z</time>
      </trkpt>
      <trkpt lat="45.32415" lon="6.33852">
        <ele>1110</ele>
        <time>2012-10-30T09:45:05Z</time>
      </trkpt>
      <trkpt lat="45.32419" lon="6.33858">
        <ele>1110</ele>
        <time>2012-10-30T09:45:07Z</time>
      </trkpt>
      <trkpt lat="45.32423" lon="6.33863">
        <ele>1111</ele>
        <time>2012-10-30T09:45:09Z</time>
      </trkpt>
      <trkpt lat="45.32426" lon="6.33868">
        <ele>1111</ele>
        <time>2012-10-30T09:45:11Z</time>
      </trkpt>
      <trkpt lat="45.3243" lon="6.33874">
        <ele>1111</ele>
        <time>2012-10-30T09:45:13Z</time>
      </trkpt>
      <trkpt lat="45.32433" lon="6.33879">
        <ele>1111</ele>
        <time>2012-10-30T09:45:15Z</time>
      </trkpt>
      <trkpt lat="45.32437" lon="6.33884">
        <ele>1111</ele>
        <time>2012-10-30T09:45:17Z</time>
      </trkpt>
      <trkpt lat="45.3244" lon="6.33889">
        <ele>1112</ele>
        <time>2012-10-30T09:45:19Z</time>
      </trkpt>
      <trkpt lat="45.32444" lon="6.33895">
        <ele>1112</ele>
        <time>2012-10-30T09:45:21Z</time>
      </trkpt>
      <trkpt lat="45.32448" lon="6.33903">
        <ele>1113</ele>
        <time>2012-10-30T09:45:23Z</time>
      </trkpt>
      <trkpt lat="45.32451" lon="6.33908">
        <ele>1113</ele>
        <time>2012-10-30T09:45:26Z</time>
      </trkpt>
      <trkpt lat="45.32453" lon="6.33914">
        <ele>1114</ele>
        <time>2012-10-30T09:45:28Z</time>
      </trkpt>
      <trkpt lat="45.32455" lon="6.3392">
        <ele>1114</ele>
        <time>2012-10-30T09:45:30Z</time>
      </trkpt>
      <trkpt lat="45.32458" lon="6.33925">
        <ele>1114</ele>
        <time>2012-10-30T09:45:32Z</time>
      </trkpt>
      <trkpt lat="45.3246" lon="6.33931">
        <ele>1115</ele>
        <time>2012-10-30T09:45:34Z</time>
      </trkpt>
      <trkpt lat="45.32462" lon="6.33937">
        <ele>1115</ele>
        <time>2012-10-30T09:45:36Z</time>
      </trkpt>
      <trkpt lat="45.32465" lon="6.33943">
        <ele>1116</ele>
        <time>2012-10-30T09:45:38Z</time>
      </trkpt>
      <trkpt lat="45.32468" lon="6.33947">
        <ele>1117</ele>
        <time>2012-10-30T09:45:40Z</time>
      </trkpt>
      <trkpt lat="45.32471" lon="6.33952">
        <ele>1117</ele>
        <time>2012-10-30T09:45:42Z</time>
      </trkpt>
      <trkpt lat="45.32475" lon="6.33956">
        <ele>1118</ele>
        <time>2012-10-30T09:45:44Z</time>
      </trkpt>
      <trkpt lat="45.32478" lon="6.3396">
        <ele>1118</ele>
        <time>2012-10-30T09:45:46Z</time>
      </trkpt>
      <trkpt lat="45.32482" lon="6.33968">
        <ele>1118</ele>
        <time>2012-10-30T09:45:48Z</time>
      </trkpt>
      <trkpt lat="45.32484" lon="6.33973">
        <ele>1119</ele>
        <time>2012-10-30T09:45:51Z</time>
      </trkpt>
      <trkpt lat="45.32485" lon="6.33979">
        <ele>1119</ele>
        <time>2012-10-30T09:45:53Z</time>
      </trkpt>
      <trkpt lat="45.32486" lon="6.33985">
        <ele>1119</ele>
        <time>2012-10-30T09:45:55Z</time>
      </trkpt>
      <trkpt lat="45.32487" lon="6.33992">
        <ele>1119</ele>
        <time>2012-10-30T09:45:57Z</time>
      </trkpt>
      <trkpt lat="45.32488" lon="6.33998">
        <ele>1120</ele>
        <time>2012-10-30T09:45:59Z</time>
      </trkpt>
      <trkpt lat="45.32489" lon="6.34004">
        <ele>1120</ele>
        <time>2012-10-30T09:46:01Z</time>
      </trkpt>
      <trkpt lat="45.3249" lon="6.3401">
        <ele>1120</ele>
        <time>2012-10-30T09:46:03Z</time>
      </trkpt>
      <trkpt lat="45.32491" lon="6.34017">
        <ele>1121</ele>
        <time>2012-10-30T09:46:05Z</time>
      </trkpt>
      <trkpt lat="45.32492" lon="6.34023">
        <ele>1121</ele>
        <time>2012-10-30T09:46:07Z</time>
      </trkpt>
      <trkpt lat="45.32493" lon="6.34029">
        <ele>1122</ele>
        <time>2012-10-30T09:46:09Z</time>
      </trkpt>
      <trkpt lat="45.32494" lon="6.34035">
        <ele>1122</ele>
        <time>2012-10-30T09:46:11Z</time>
      </trkpt>
      <trkpt lat="45.32495" lon="6.34042">
        <ele>1123</ele>
        <time>2012-10-30T09:46:13Z</time>
      </trkpt>
      <trkpt lat="45.32497" lon="6.34052">
        <ele>1123</ele>
        <time>2012-10-30T09:46:15Z</time>
      </trkpt>
      <trkpt lat="45.32499" lon="6.34058">
        <ele>1123</ele>
        <time>2012-10-30T09:46:17Z</time>
      </trkpt>
      <trkpt lat="45.32499" lon="6.34064">
        <ele>1123</ele>
        <time>2012-10-30T09:46:20Z</time>
      </trkpt>
      <trkpt lat="45.325" lon="6.3407">
        <ele>1123</ele>
        <time>2012-10-30T09:46:22Z</time>
      </trkpt>
      <trkpt lat="45.32502" lon="6.34076">
        <ele>1124</ele>
        <time>2012-10-30T09:46:24Z</time>
      </trkpt>
      <trkpt lat="45.32502" lon="6.34083">
        <ele>1124</ele>
        <time>2012-10-30T09:46:26Z</time>
      </trkpt>
      <trkpt lat="45.32504" lon="6.34089">
        <ele>1125</ele>
        <time>2012-10-30T09:46:28Z</time>
      </trkpt>
      <trkpt lat="45.32505" lon="6.34098">
        <ele>1125</ele>
        <time>2012-10-30T09:46:30Z</time>
      </trkpt>
      <trkpt lat="45.32507" lon="6.34103">
        <ele>1125</ele>
        <time>2012-10-30T09:46:32Z</time>
      </trkpt>
      <trkpt lat="45.32508" lon="6.34109">
        <ele>1126</ele>
        <time>2012-10-30T09:46:34Z</time>
      </trkpt>
      <trkpt lat="45.32509" lon="6.34115">
        <ele>1126</ele>
        <time>2012-10-30T09:46:37Z</time>
      </trkpt>
      <trkpt lat="45.3251" lon="6.34121">
        <ele>1127</ele>
        <time>2012-10-30T09:46:39Z</time>
      </trkpt>
      <trkpt lat="45.3251" lon="6.34127">
        <ele>1127</ele>
        <time>2012-10-30T09:46:41Z</time>
      </trkpt>
      <trkpt lat="45.32511" lon="6.34133">
        <ele>1128</ele>
        <time>2012-10-30T09:46:43Z</time>
      </trkpt>
      <trkpt lat="45.32511" lon="6.34139">
        <ele>1128</ele>
        <time>2012-10-30T09:46:45Z</time>
      </trkpt>
      <trkpt lat="45.32511" lon="6.34145">
        <ele>1129</ele>
        <time>2012-10-30T09:46:47Z</time>
      </trkpt>
      <trkpt lat="45.32511" lon="6.34151">
        <ele>1129</ele>
        <time>2012-10-30T09:46:49Z</time>
      </trkpt>
      <trkpt lat="45.3251" lon="6.34158">
        <ele>1129</ele>
        <time>2012-10-30T09:46:51Z</time>
      </trkpt>
      <trkpt lat="45.32509" lon="6.34164">
        <ele>1130</ele>
        <time>2012-10-30T09:46:53Z</time>
      </trkpt>
      <trkpt lat="45.32507" lon="6.34169">
        <ele>1130</ele>
        <time>2012-10-30T09:46:55Z</time>
      </trkpt>
      <trkpt lat="45.32504" lon="6.34174">
        <ele>1131</ele>
        <time>2012-10-30T09:46:57Z</time>
      </trkpt>
      <trkpt lat="45.325" lon="6.34178">
        <ele>1132</ele>
        <time>2012-10-30T09:46:59Z</time>
      </trkpt>
      <trkpt lat="45.32496" lon="6.3418">
        <ele>1132</ele>
        <time>2012-10-30T09:47:01Z</time>
      </trkpt>
      <trkpt lat="45.32493" lon="6.34181">
        <ele>1132</ele>
        <time>2012-10-30T09:47:03Z</time>
      </trkpt>
      <trkpt lat="45.32489" lon="6.34183">
        <ele>1133</ele>
        <time>2012-10-30T09:47:05Z</time>
      </trkpt>
      <trkpt lat="45.32483" lon="6.34186">
        <ele>1133</ele>
        <time>2012-10-30T09:47:07Z</time>
      </trkpt>
      <trkpt lat="45.32478" lon="6.34188">
        <ele>1134</ele>
        <time>2012-10-30T09:47:10Z</time>
      </trkpt>
      <trkpt lat="45.32474" lon="6.34189">
        <ele>1134</ele>
        <time>2012-10-30T09:47:12Z</time>
      </trkpt>
      <trkpt lat="45.3247" lon="6.34191">
        <ele>1135</ele>
        <time>2012-10-30T09:47:14Z</time>
      </trkpt>
      <trkpt lat="45.32466" lon="6.34192">
        <ele>1136</ele>
        <time>2012-10-30T09:47:16Z</time>
      </trkpt>
      <trkpt lat="45.32462" lon="6.34195">
        <ele>1136</ele>
        <time>2012-10-30T09:47:18Z</time>
      </trkpt>
      <trkpt lat="45.32459" lon="6.34197">
        <ele>1136</ele>
        <time>2012-10-30T09:47:20Z</time>
      </trkpt>
      <trkpt lat="45.32455" lon="6.34201">
        <ele>1137</ele>
        <time>2012-10-30T09:47:22Z</time>
      </trkpt>
      <trkpt lat="45.32451" lon="6.3421">
        <ele>1137</ele>
        <time>2012-10-30T09:47:24Z</time>
      </trkpt>
      <trkpt lat="45.32449" lon="6.34216">
        <ele>1137</ele>
        <time>2012-10-30T09:47:27Z</time>
      </trkpt>
      <trkpt lat="45.32448" lon="6.34222">
        <ele>1138</ele>
        <time>2012-10-30T09:47:29Z</time>
      </trkpt>
      <trkpt lat="45.32448" lon="6.34228">
        <ele>1138</ele>
        <time>2012-10-30T09:47:31Z</time>
      </trkpt>
      <trkpt lat="45.32449" lon="6.34234">
        <ele>1138</ele>
        <time>2012-10-30T09:47:33Z</time>
      </trkpt>
      <trkpt lat="45.32451" lon="6.3424">
        <ele>1139</ele>
        <time>2012-10-30T09:47:35Z</time>
      </trkpt>
      <trkpt lat="45.32453" lon="6.34245">
        <ele>1139</ele>
        <time>2012-10-30T09:47:37Z</time>
      </trkpt>
      <trkpt lat="45.32455" lon="6.34249">
        <ele>1140</ele>
        <time>2012-10-30T09:47:39Z</time>
      </trkpt>
      <trkpt lat="45.32457" lon="6.34254">
        <ele>1140</ele>
        <time>2012-10-30T09:47:41Z</time>
      </trkpt>
      <trkpt lat="45.3246" lon="6.34259">
        <ele>1140</ele>
        <time>2012-10-30T09:47:43Z</time>
      </trkpt>
      <trkpt lat="45.32462" lon="6.34264">
        <ele>1141</ele>
        <time>2012-10-30T09:47:45Z</time>
      </trkpt>
      <trkpt lat="45.32465" lon="6.34268">
        <ele>1141</ele>
        <time>2012-10-30T09:47:47Z</time>
      </trkpt>
      <trkpt lat="45.32467" lon="6.34273">
        <ele>1141</ele>
        <time>2012-10-30T09:47:49Z</time>
      </trkpt>
      <trkpt lat="45.32469" lon="6.34279">
        <ele>1142</ele>
        <time>2012-10-30T09:47:51Z</time>
      </trkpt>
      <trkpt lat="45.32472" lon="6.34288">
        <ele>1142</ele>
        <time>2012-10-30T09:47:53Z</time>
      </trkpt>
      <trkpt lat="45.32474" lon="6.34294">
        <ele>1142</ele>
        <time>2012-10-30T09:47:55Z</time>
      </trkpt>
      <trkpt lat="45.32475" lon="6.343">
        <ele>1142</ele>
        <time>2012-10-30T09:47:57Z</time>
      </trkpt>
      <trkpt lat="45.32474" lon="6.34306">
        <ele>1142</ele>
        <time>2012-10-30T09:48:00Z</time>
      </trkpt>
      <trkpt lat="45.32474" lon="6.34313">
        <ele>1143</ele>
        <time>2012-10-30T09:48:02Z</time>
      </trkpt>
      <trkpt lat="45.32474" lon="6.34319">
        <ele>1143</ele>
        <time>2012-10-30T09:48:04Z</time>
      </trkpt>
      <trkpt lat="45.32473" lon="6.34326">
        <ele>1144</ele>
        <time>2012-10-30T09:48:06Z</time>
      </trkpt>
      <trkpt lat="45.32472" lon="6.34332">
        <ele>1144</ele>
        <time>2012-10-30T09:48:08Z</time>
      </trkpt>
      <trkpt lat="45.3247" lon="6.34339">
        <ele>1145</ele>
        <time>2012-10-30T09:48:10Z</time>
      </trkpt>
      <trkpt lat="45.32468" lon="6.34345">
        <ele>1145</ele>
        <time>2012-10-30T09:48:12Z</time>
      </trkpt>
      <trkpt lat="45.32465" lon="6.34354">
        <ele>1145</ele>
        <time>2012-10-30T09:48:14Z</time>
      </trkpt>
      <trkpt lat="45.32463" lon="6.34361">
        <ele>1145</ele>
        <time>2012-10-30T09:48:17Z</time>
      </trkpt>
      <trkpt lat="45.3246" lon="6.34367">
        <ele>1145</ele>
        <time>2012-10-30T09:48:19Z</time>
      </trkpt>
      <trkpt lat="45.32458" lon="6.34372">
        <ele>1146</ele>
        <time>2012-10-30T09:48:21Z</time>
      </trkpt>
      <trkpt lat="45.32455" lon="6.34377">
        <ele>1146</ele>
        <time>2012-10-30T09:48:23Z</time>
      </trkpt>
      <trkpt lat="45.32452" lon="6.34381">
        <ele>1147</ele>
        <time>2012-10-30T09:48:25Z</time>
      </trkpt>
      <trkpt lat="45.32449" lon="6.34385">
        <ele>1147</ele>
        <time>2012-10-30T09:48:27Z</time>
      </trkpt>
      <trkpt lat="45.32446" lon="6.34389">
        <ele>1148</ele>
        <time>2012-10-30T09:48:29Z</time>
      </trkpt>
      <trkpt lat="45.32442" lon="6.34393">
        <ele>1148</ele>
        <time>2012-10-30T09:48:31Z</time>
      </trkpt>
      <trkpt lat="45.3244" lon="6.34398">
        <ele>1149</ele>
        <time>2012-10-30T09:48:33Z</time>
      </trkpt>
      <trkpt lat="45.32437" lon="6.34403">
        <ele>1149</ele>
        <time>2012-10-30T09:48:35Z</time>
      </trkpt>
      <trkpt lat="45.32436" lon="6.34412">
        <ele>1149</ele>
        <time>2012-10-30T09:48:37Z</time>
      </trkpt>
      <trkpt lat="45.32436" lon="6.34417">
        <ele>1149</ele>
        <time>2012-10-30T09:48:40Z</time>
      </trkpt>
      <trkpt lat="45.32438" lon="6.34421">
        <ele>1149</ele>
        <time>2012-10-30T09:48:42Z</time>
      </trkpt>
      <trkpt lat="45.32441" lon="6.34424">
        <ele>1150</ele>
        <time>2012-10-30T09:48:44Z</time>
      </trkpt>
      <trkpt lat="45.32445" lon="6.34426">
        <ele>1150</ele>
        <time>2012-10-30T09:48:46Z</time>
      </trkpt>
      <trkpt lat="45.32449" lon="6.34426">
        <ele>1150</ele>
        <time>2012-10-30T09:48:48Z</time>
      </trkpt>
      <trkpt lat="45.32453" lon="6.34424">
        <ele>1150</ele>
        <time>2012-10-30T09:48:50Z</time>
      </trkpt>
      <trkpt lat="45.32456" lon="6.3442">
        <ele>1150</ele>
        <time>2012-10-30T09:48:52Z</time>
      </trkpt>
      <trkpt lat="45.32458" lon="6.34414">
        <ele>1150</ele>
        <time>2012-10-30T09:48:54Z</time>
      </trkpt>
      <trkpt lat="45.3246" lon="6.34409">
        <ele>1151</ele>
        <time>2012-10-30T09:48:56Z</time>
      </trkpt>
      <trkpt lat="45.32463" lon="6.34402">
        <ele>1151</ele>
        <time>2012-10-30T09:48:58Z</time>
      </trkpt>
      <trkpt lat="45.32466" lon="6.34397">
        <ele>1151</ele>
        <time>2012-10-30T09:49:00Z</time>
      </trkpt>
      <trkpt lat="45.3247" lon="6.34389">
        <ele>1151</ele>
        <time>2012-10-30T09:49:02Z</time>
      </trkpt>
      <trkpt lat="45.32473" lon="6.34383">
        <ele>1151</ele>
        <time>2012-10-30T09:49:04Z</time>
      </trkpt>
      <trkpt lat="45.32476" lon="6.34378">
        <ele>1152</ele>
        <time>2012-10-30T09:49:07Z</time>
      </trkpt>
      <trkpt lat="45.32478" lon="6.34373">
        <ele>1152</ele>
        <time>2012-10-30T09:49:09Z</time>
      </trkpt>
      <trkpt lat="45.32481" lon="6.34368">
        <ele>1152</ele>
        <time>2012-10-30T09:49:11Z</time>
      </trkpt>
      <trkpt lat="45.32484" lon="6.34363">
        <ele>1153</ele>
        <time>2012-10-30T09:49:13Z</time>
      </trkpt>
      <trkpt lat="45.32486" lon="6.34358">
        <ele>1153</ele>
        <time>2012-10-30T09:49:15Z</time>
      </trkpt>
      <trkpt lat="45.32489" lon="6.34353">
        <ele>1154</ele>
        <time>2012-10-30T09:49:17Z</time>
      </trkpt>
      <trkpt lat="45.32492" lon="6.34348">
        <ele>1154</ele>
        <time>2012-10-30T09:49:19Z</time>
      </trkpt>
      <trkpt lat="45.32494" lon="6.34343">
        <ele>1154</ele>
        <time>2012-10-30T09:49:21Z</time>
      </trkpt>
      <trkpt lat="45.32497" lon="6.34338">
        <ele>1155</ele>
        <time>2012-10-30T09:49:23Z</time>
      </trkpt>
      <trkpt lat="45.325" lon="6.34333">
        <ele>1155</ele>
        <time>2012-10-30T09:49:25Z</time>
      </trkpt>
      <trkpt lat="45.32503" lon="6.34328">
        <ele>1156</ele>
        <time>2012-10-30T09:49:27Z</time>
      </trkpt>
      <trkpt lat="45.32507" lon="6.34324">
        <ele>1156</ele>
        <time>2012-10-30T09:49:29Z</time>
      </trkpt>
      <trkpt lat="45.32512" lon="6.34318">
        <ele>1157</ele>
        <time>2012-10-30T09:49:31Z</time>
      </trkpt>
      <trkpt lat="45.32515" lon="6.34314">
        <ele>1157</ele>
        <time>2012-10-30T09:49:33Z</time>
      </trkpt>
      <trkpt lat="45.32519" lon="6.3431">
        <ele>1157</ele>
        <time>2012-10-30T09:49:35Z</time>
      </trkpt>
      <trkpt lat="45.32521" lon="6.34308">
        <ele>1158</ele>
        <time>2012-10-30T09:49:37Z</time>
      </trkpt>
      <trkpt lat="45.32526" lon="6.34304">
        <ele>1158</ele>
        <time>2012-10-30T09:49:40Z</time>
      </trkpt>
      <trkpt lat="45.3253" lon="6.343">
        <ele>1158</ele>
        <time>2012-10-30T09:49:42Z</time>
      </trkpt>
      <trkpt lat="45.32534" lon="6.34296">
        <ele>1159</ele>
        <time>2012-10-30T09:49:44Z</time>
      </trkpt>
      <trkpt lat="45.32537" lon="6.34292">
        <ele>1159</ele>
        <time>2012-10-30T09:49:46Z</time>
      </trkpt>
      <trkpt lat="45.32541" lon="6.34288">
        <ele>1159</ele>
        <time>2012-10-30T09:49:48Z</time>
      </trkpt>
      <trkpt lat="45.32543" lon="6.34283">
        <ele>1160</ele>
        <time>2012-10-30T09:49:50Z</time>
      </trkpt>
      <trkpt lat="45.32546" lon="6.34279">
        <ele>1161</ele>
        <time>2012-10-30T09:49:52Z</time>
      </trkpt>
      <trkpt lat="45.32548" lon="6.34274">
        <ele>1161</ele>
        <time>2012-10-30T09:49:54Z</time>
      </trkpt>
      <trkpt lat="45.3255" lon="6.34268">
        <ele>1161</ele>
        <time>2012-10-30T09:49:56Z</time>
      </trkpt>
      <trkpt lat="45.32552" lon="6.34263">
        <ele>1161</ele>
        <time>2012-10-30T09:49:58Z</time>
      </trkpt>
      <trkpt lat="45.32554" lon="6.34258">
        <ele>1162</ele>
        <time>2012-10-30T09:50:00Z</time>
      </trkpt>
      <trkpt lat="45.32556" lon="6.34252">
        <ele>1162</ele>
        <time>2012-10-30T09:50:02Z</time>
      </trkpt>
      <trkpt lat="45.32558" lon="6.34247">
        <ele>1163</ele>
        <time>2012-10-30T09:50:04Z</time>
      </trkpt>
      <trkpt lat="45.3256" lon="6.34243">
        <ele>1164</ele>
        <time>2012-10-30T09:50:06Z</time>
      </trkpt>
      <trkpt lat="45.32562" lon="6.34238">
        <ele>1164</ele>
        <time>2012-10-30T09:50:08Z</time>
      </trkpt>
      <trkpt lat="45.32565" lon="6.34233">
        <ele>1164</ele>
        <time>2012-10-30T09:50:10Z</time>
      </trkpt>
      <trkpt lat="45.32567" lon="6.34229">
        <ele>1164</ele>
        <time>2012-10-30T09:50:12Z</time>
      </trkpt>
      <trkpt lat="45.32572" lon="6.34226">
        <ele>1165</ele>
        <time>2012-10-30T09:50:14Z</time>
      </trkpt>
      <trkpt lat="45.32576" lon="6.34224">
        <ele>1165</ele>
        <time>2012-10-30T09:50:16Z</time>
      </trkpt>
      <trkpt lat="45.32579" lon="6.34223">
        <ele>1165</ele>
        <time>2012-10-30T09:50:18Z</time>
      </trkpt>
      <trkpt lat="45.32583" lon="6.34219">
        <ele>1166</ele>
        <time>2012-10-30T09:50:21Z</time>
      </trkpt>
      <trkpt lat="45.32586" lon="6.34216">
        <ele>1166</ele>
        <time>2012-10-30T09:50:23Z</time>
      </trkpt>
      <trkpt lat="45.32589" lon="6.34212">
        <ele>1166</ele>
        <time>2012-10-30T09:50:25Z</time>
      </trkpt>
      <trkpt lat="45.32591" lon="6.34207">
        <ele>1167</ele>
        <time>2012-10-30T09:50:27Z</time>
      </trkpt>
      <trkpt lat="45.32593" lon="6.34201">
        <ele>1168</ele>
        <time>2012-10-30T09:50:29Z</time>
      </trkpt>
      <trkpt lat="45.32595" lon="6.34195">
        <ele>1168</ele>
        <time>2012-10-30T09:50:31Z</time>
      </trkpt>
      <trkpt lat="45.32596" lon="6.34189">
        <ele>1168</ele>
        <time>2012-10-30T09:50:33Z</time>
      </trkpt>
      <trkpt lat="45.32596" lon="6.34182">
        <ele>1169</ele>
        <time>2012-10-30T09:50:35Z</time>
      </trkpt>
      <trkpt lat="45.32597" lon="6.34173">
        <ele>1169</ele>
        <time>2012-10-30T09:50:37Z</time>
      </trkpt>
      <trkpt lat="45.32598" lon="6.34166">
        <ele>1169</ele>
        <time>2012-10-30T09:50:39Z</time>
      </trkpt>
      <trkpt lat="45.32599" lon="6.3416">
        <ele>1170</ele>
        <time>2012-10-30T09:50:41Z</time>
      </trkpt>
      <trkpt lat="45.326" lon="6.34154">
        <ele>1170</ele>
        <time>2012-10-30T09:50:44Z</time>
      </trkpt>
      <trkpt lat="45.326" lon="6.34146">
        <ele>1171</ele>
        <time>2012-10-30T09:50:46Z</time>
      </trkpt>
      <trkpt lat="45.32602" lon="6.34139">
        <ele>1171</ele>
        <time>2012-10-30T09:50:48Z</time>
      </trkpt>
      <trkpt lat="45.32603" lon="6.34133">
        <ele>1171</ele>
        <time>2012-10-30T09:50:50Z</time>
      </trkpt>
      <trkpt lat="45.32603" lon="6.34126">
        <ele>1172</ele>
        <time>2012-10-30T09:50:52Z</time>
      </trkpt>
      <trkpt lat="45.32602" lon="6.3412">
        <ele>1172</ele>
        <time>2012-10-30T09:50:54Z</time>
      </trkpt>
      <trkpt lat="45.32603" lon="6.34113">
        <ele>1172</ele>
        <time>2012-10-30T09:50:56Z</time>
      </trkpt>
      <trkpt lat="45.32605" lon="6.34104">
        <ele>1173</ele>
        <time>2012-10-30T09:50:58Z</time>
      </trkpt>
      <trkpt lat="45.32607" lon="6.34098">
        <ele>1173</ele>
        <time>2012-10-30T09:51:01Z</time>
      </trkpt>
      <trkpt lat="45.3261" lon="6.34093">
        <ele>1173</ele>
        <time>2012-10-30T09:51:03Z</time>
      </trkpt>
      <trkpt lat="45.32612" lon="6.34088">
        <ele>1173</ele>
        <time>2012-10-30T09:51:05Z</time>
      </trkpt>
      <trkpt lat="45.32614" lon="6.34083">
        <ele>1174</ele>
        <time>2012-10-30T09:51:07Z</time>
      </trkpt>
      <trkpt lat="45.32615" lon="6.34077">
        <ele>1174</ele>
        <time>2012-10-30T09:51:09Z</time>
      </trkpt>
      <trkpt lat="45.32617" lon="6.34071">
        <ele>1174</ele>
        <time>2012-10-30T09:51:11Z</time>
      </trkpt>
      <trkpt lat="45.32619" lon="6.34065">
        <ele>1175</ele>
        <time>2012-10-30T09:51:13Z</time>
      </trkpt>
      <trkpt lat="45.32622" lon="6.3406">
        <ele>1175</ele>
        <time>2012-10-30T09:51:15Z</time>
      </trkpt>
      <trkpt lat="45.32624" lon="6.34055">
        <ele>1176</ele>
        <time>2012-10-30T09:51:17Z</time>
      </trkpt>
      <trkpt lat="45.32626" lon="6.3405">
        <ele>1176</ele>
        <time>2012-10-30T09:51:19Z</time>
      </trkpt>
      <trkpt lat="45.32629" lon="6.34045">
        <ele>1176</ele>
        <time>2012-10-30T09:51:21Z</time>
      </trkpt>
      <trkpt lat="45.32632" lon="6.34037">
        <ele>1177</ele>
        <time>2012-10-30T09:51:23Z</time>
      </trkpt>
      <trkpt lat="45.32635" lon="6.34032">
        <ele>1177</ele>
        <time>2012-10-30T09:51:25Z</time>
      </trkpt>
      <trkpt lat="45.32637" lon="6.34028">
        <ele>1177</ele>
        <time>2012-10-30T09:51:27Z</time>
      </trkpt>
      <trkpt lat="45.3264" lon="6.34023">
        <ele>1178</ele>
        <time>2012-10-30T09:51:30Z</time>
      </trkpt>
      <trkpt lat="45.32643" lon="6.34017">
        <ele>1178</ele>
        <time>2012-10-30T09:51:32Z</time>
      </trkpt>
      <trkpt lat="45.32646" lon="6.34013">
        <ele>1179</ele>
        <time>2012-10-30T09:51:34Z</time>
      </trkpt>
      <trkpt lat="45.32649" lon="6.34008">
        <ele>1179</ele>
        <time>2012-10-30T09:51:36Z</time>
      </trkpt>
      <trkpt lat="45.32652" lon="6.34003">
        <ele>1179</ele>
        <time>2012-10-30T09:51:38Z</time>
      </trkpt>
      <trkpt lat="45.32655" lon="6.33999">
        <ele>1179</ele>
        <time>2012-10-30T09:51:40Z</time>
      </trkpt>
      <trkpt lat="45.32659" lon="6.33993">
        <ele>1180</ele>
        <time>2012-10-30T09:51:42Z</time>
      </trkpt>
      <trkpt lat="45.32663" lon="6.3399">
        <ele>1180</ele>
        <time>2012-10-30T09:51:45Z</time>
      </trkpt>
      <trkpt lat="45.32666" lon="6.33985">
        <ele>1181</ele>
        <time>2012-10-30T09:51:47Z</time>
      </trkpt>
      <trkpt lat="45.32669" lon="6.33981">
        <ele>1181</ele>
        <time>2012-10-30T09:51:49Z</time>
      </trkpt>
      <trkpt lat="45.32672" lon="6.33976">
        <ele>1182</ele>
        <time>2012-10-30T09:51:51Z</time>
      </trkpt>
      <trkpt lat="45.32675" lon="6.33972">
        <ele>1182</ele>
        <time>2012-10-30T09:51:53Z</time>
      </trkpt>
      <trkpt lat="45.32678" lon="6.33967">
        <ele>1182</ele>
        <time>2012-10-30T09:51:55Z</time>
      </trkpt>
      <trkpt lat="45.32681" lon="6.33959">
        <ele>1183</ele>
        <time>2012-10-30T09:51:57Z</time>
      </trkpt>
      <trkpt lat="45.32681" lon="6.33953">
        <ele>1183</ele>
        <time>2012-10-30T09:51:59Z</time>
      </trkpt>
      <trkpt lat="45.32682" lon="6.33946">
        <ele>1184</ele>
        <time>2012-10-30T09:52:02Z</time>
      </trkpt>
      <trkpt lat="45.3268" lon="6.33939">
        <ele>1184</ele>
        <time>2012-10-30T09:52:04Z</time>
      </trkpt>
      <trkpt lat="45.32679" lon="6.33932">
        <ele>1185</ele>
        <time>2012-10-30T09:52:06Z</time>
      </trkpt>
      <trkpt lat="45.32678" lon="6.33926">
        <ele>1186</ele>
        <time>2012-10-30T09:52:08Z</time>
      </trkpt>
      <trkpt lat="45.32676" lon="6.33919">
        <ele>1186</ele>
        <time>2012-10-30T09:52:10Z</time>
      </trkpt>
      <trkpt lat="45.32675" lon="6.3391">
        <ele>1187</ele>
        <time>2012-10-30T09:52:12Z</time>
      </trkpt>
      <trkpt lat="45.32674" lon="6.33904">
        <ele>1187</ele>
        <time>2012-10-30T09:52:15Z</time>
      </trkpt>
      <trkpt lat="45.32674" lon="6.33897">
        <ele>1187</ele>
        <time>2012-10-30T09:52:17Z</time>
      </trkpt>
      <trkpt lat="45.32674" lon="6.33891">
        <ele>1188</ele>
        <time>2012-10-30T09:52:19Z</time>
      </trkpt>
      <trkpt lat="45.32673" lon="6.33885">
        <ele>1188</ele>
        <time>2012-10-30T09:52:21Z</time>
      </trkpt>
      <trkpt lat="45.32673" lon="6.33879">
        <ele>1188</ele>
        <time>2012-10-30T09:52:23Z</time>
      </trkpt>
      <trkpt lat="45.32673" lon="6.33873">
        <ele>1188</ele>
        <time>2012-10-30T09:52:25Z</time>
      </trkpt>
      <trkpt lat="45.32672" lon="6.33867">
        <ele>1189</ele>
        <time>2012-10-30T09:52:27Z</time>
      </trkpt>
      <trkpt lat="45.32671" lon="6.3386">
        <ele>1189</ele>
        <time>2012-10-30T09:52:29Z</time>
      </trkpt>
      <trkpt lat="45.32671" lon="6.33855">
        <ele>1190</ele>
        <time>2012-10-30T09:52:31Z</time>
      </trkpt>
      <trkpt lat="45.32671" lon="6.33849">
        <ele>1190</ele>
        <time>2012-10-30T09:52:33Z</time>
      </trkpt>
      <trkpt lat="45.3267" lon="6.33843">
        <ele>1191</ele>
        <time>2012-10-30T09:52:35Z</time>
      </trkpt>
      <trkpt lat="45.3267" lon="6.33836">
        <ele>1191</ele>
        <time>2012-10-30T09:52:37Z</time>
      </trkpt>
      <trkpt lat="45.32669" lon="6.33827">
        <ele>1192</ele>
        <time>2012-10-30T09:52:39Z</time>
      </trkpt>
      <trkpt lat="45.3267" lon="6.3382">
        <ele>1192</ele>
        <time>2012-10-30T09:52:41Z</time>
      </trkpt>
      <trkpt lat="45.3267" lon="6.33814">
        <ele>1192</ele>
        <time>2012-10-30T09:52:43Z</time>
      </trkpt>
      <trkpt lat="45.32671" lon="6.33809">
        <ele>1192</ele>
        <time>2012-10-30T09:52:45Z</time>
      </trkpt>
      <trkpt lat="45.32673" lon="6.33804">
        <ele>1192</ele>
        <time>2012-10-30T09:52:48Z</time>
      </trkpt>
      <trkpt lat="45.32674" lon="6.33798">
        <ele>1193</ele>
        <time>2012-10-30T09:52:50Z</time>
      </trkpt>
      <trkpt lat="45.32675" lon="6.33792">
        <ele>1193</ele>
        <time>2012-10-30T09:52:52Z</time>
      </trkpt>
      <trkpt lat="45.32677" lon="6.33787">
        <ele>1193</ele>
        <time>2012-10-30T09:52:54Z</time>
      </trkpt>
      <trkpt lat="45.32679" lon="6.33782">
        <ele>1194</ele>
        <time>2012-10-30T09:52:56Z</time>
      </trkpt>
      <trkpt lat="45.3268" lon="6.33777">
        <ele>1194</ele>
        <time>2012-10-30T09:52:58Z</time>
      </trkpt>
      <trkpt lat="45.32682" lon="6.33771">
        <ele>1194</ele>
        <time>2012-10-30T09:53:00Z</time>
      </trkpt>
      <trkpt lat="45.32683" lon="6.33766">
        <ele>1195</ele>
        <time>2012-10-30T09:53:02Z</time>
      </trkpt>
      <trkpt lat="45.32684" lon="6.33761">
        <ele>1196</ele>
        <time>2012-10-30T09:53:04Z</time>
      </trkpt>
      <trkpt lat="45.32687" lon="6.33753">
        <ele>1196</ele>
        <time>2012-10-30T09:53:06Z</time>
      </trkpt>
      <trkpt lat="45.3269" lon="6.33748">
        <ele>1197</ele>
        <time>2012-10-30T09:53:09Z</time>
      </trkpt>
      <trkpt lat="45.32693" lon="6.33745">
        <ele>1197</ele>
        <time>2012-10-30T09:53:11Z</time>
      </trkpt>
      <trkpt lat="45.32696" lon="6.33741">
        <ele>1198</ele>
        <time>2012-10-30T09:53:13Z</time>
      </trkpt>
      <trkpt lat="45.32698" lon="6.33736">
        <ele>1198</ele>
        <time>2012-10-30T09:53:15Z</time>
      </trkpt>
      <trkpt lat="45.32703" lon="6.3373">
        <ele>1199</ele>
        <time>2012-10-30T09:53:17Z</time>
      </trkpt>
      <trkpt lat="45.32706" lon="6.33727">
        <ele>1199</ele>
        <time>2012-10-30T09:53:19Z</time>
      </trkpt>
      <trkpt lat="45.32709" lon="6.33722">
        <ele>1199</ele>
        <time>2012-10-30T09:53:22Z</time>
      </trkpt>
      <trkpt lat="45.32712" lon="6.33718">
        <ele>1200</ele>
        <time>2012-10-30T09:53:24Z</time>
      </trkpt>
      <trkpt lat="45.32716" lon="6.33713">
        <ele>1200</ele>
        <time>2012-10-30T09:53:26Z</time>
      </trkpt>
      <trkpt lat="45.32719" lon="6.3371">
        <ele>1200</ele>
        <time>2012-10-30T09:53:28Z</time>
      </trkpt>
      <trkpt lat="45.32722" lon="6.33706">
        <ele>1201</ele>
        <time>2012-10-30T09:53:30Z</time>
      </trkpt>
      <trkpt lat="45.32726" lon="6.33702">
        <ele>1201</ele>
        <time>2012-10-30T09:53:32Z</time>
      </trkpt>
      <trkpt lat="45.32729" lon="6.33698">
        <ele>1202</ele>
        <time>2012-10-30T09:53:34Z</time>
      </trkpt>
      <trkpt lat="45.32732" lon="6.33694">
        <ele>1202</ele>
        <time>2012-10-30T09:53:36Z</time>
      </trkpt>
      <trkpt lat="45.32736" lon="6.3369">
        <ele>1203</ele>
        <time>2012-10-30T09:53:38Z</time>
      </trkpt>
      <trkpt lat="45.32739" lon="6.33686">
        <ele>1203</ele>
        <time>2012-10-30T09:53:40Z</time>
      </trkpt>
      <trkpt lat="45.32742" lon="6.33682">
        <ele>1203</ele>
        <time>2012-10-30T09:53:42Z</time>
      </trkpt>
      <trkpt lat="45.32745" lon="6.33678">
        <ele>1204</ele>
        <time>2012-10-30T09:53:44Z</time>
      </trkpt>
      <trkpt lat="45.32749" lon="6.33674">
        <ele>1205</ele>
        <time>2012-10-30T09:53:46Z</time>
      </trkpt>
      <trkpt lat="45.32754" lon="6.33669">
        <ele>1205</ele>
        <time>2012-10-30T09:53:48Z</time>
      </trkpt>
      <trkpt lat="45.32757" lon="6.33665">
        <ele>1205</ele>
        <time>2012-10-30T09:53:50Z</time>
      </trkpt>
      <trkpt lat="45.32761" lon="6.33662">
        <ele>1206</ele>
        <time>2012-10-30T09:53:52Z</time>
      </trkpt>
      <trkpt lat="45.32764" lon="6.33658">
        <ele>1206</ele>
        <time>2012-10-30T09:53:55Z</time>
      </trkpt>
      <trkpt lat="45.32767" lon="6.33654">
        <ele>1206</ele>
        <time>2012-10-30T09:53:57Z</time>
      </trkpt>
      <trkpt lat="45.32771" lon="6.3365">
        <ele>1207</ele>
        <time>2012-10-30T09:53:59Z</time>
      </trkpt>
      <trkpt lat="45.32773" lon="6.33645">
        <ele>1207</ele>
        <time>2012-10-30T09:54:01Z</time>
      </trkpt>
      <trkpt lat="45.32776" lon="6.3364">
        <ele>1207</ele>
        <time>2012-10-30T09:54:03Z</time>
      </trkpt>
      <trkpt lat="45.32779" lon="6.33636">
        <ele>1208</ele>
        <time>2012-10-30T09:54:05Z</time>
      </trkpt>
      <trkpt lat="45.32782" lon="6.3363">
        <ele>1208</ele>
        <time>2012-10-30T09:54:07Z</time>
      </trkpt>
      <trkpt lat="45.32785" lon="6.33625">
        <ele>1208</ele>
        <time>2012-10-30T09:54:09Z</time>
      </trkpt>
      <trkpt lat="45.32788" lon="6.33619">
        <ele>1208</ele>
        <time>2012-10-30T09:54:11Z</time>
      </trkpt>
      <trkpt lat="45.32793" lon="6.33611">
        <ele>1209</ele>
        <time>2012-10-30T09:54:13Z</time>
      </trkpt>
      <trkpt lat="45.32795" lon="6.33606">
        <ele>1209</ele>
        <time>2012-10-30T09:54:15Z</time>
      </trkpt>
      <trkpt lat="45.32799" lon="6.33602">
        <ele>1209</ele>
        <time>2012-10-30T09:54:17Z</time>
      </trkpt>
      <trkpt lat="45.32804" lon="6.33601">
        <ele>1210</ele>
        <time>2012-10-30T09:54:20Z</time>
      </trkpt>
      <trkpt lat="45.32807" lon="6.33606">
        <ele>1210</ele>
        <time>2012-10-30T09:54:22Z</time>
      </trkpt>
      <trkpt lat="45.32807" lon="6.33611">
        <ele>1211</ele>
        <time>2012-10-30T09:54:24Z</time>
      </trkpt>
      <trkpt lat="45.32805" lon="6.33616">
        <ele>1212</ele>
        <time>2012-10-30T09:54:26Z</time>
      </trkpt>
      <trkpt lat="45.32803" lon="6.3362">
        <ele>1212</ele>
        <time>2012-10-30T09:54:28Z</time>
      </trkpt>
      <trkpt lat="45.328" lon="6.33624">
        <ele>1212</ele>
        <time>2012-10-30T09:54:30Z</time>
      </trkpt>
      <trkpt lat="45.32797" lon="6.33629">
        <ele>1213</ele>
        <time>2012-10-30T09:54:32Z</time>
      </trkpt>
      <trkpt lat="45.32795" lon="6.33635">
        <ele>1213</ele>
        <time>2012-10-30T09:54:34Z</time>
      </trkpt>
      <trkpt lat="45.32793" lon="6.3364">
        <ele>1213</ele>
        <time>2012-10-30T09:54:36Z</time>
      </trkpt>
      <trkpt lat="45.3279" lon="6.33645">
        <ele>1213</ele>
        <time>2012-10-30T09:54:38Z</time>
      </trkpt>
      <trkpt lat="45.32787" lon="6.33653">
        <ele>1214</ele>
        <time>2012-10-30T09:54:40Z</time>
      </trkpt>
      <trkpt lat="45.32786" lon="6.3366">
        <ele>1215</ele>
        <time>2012-10-30T09:54:42Z</time>
      </trkpt>
      <trkpt lat="45.32784" lon="6.33665">
        <ele>1215</ele>
        <time>2012-10-30T09:54:45Z</time>
      </trkpt>
      <trkpt lat="45.32783" lon="6.33671">
        <ele>1216</ele>
        <time>2012-10-30T09:54:47Z</time>
      </trkpt>
      <trkpt lat="45.32782" lon="6.33678">
        <ele>1216</ele>
        <time>2012-10-30T09:54:49Z</time>
      </trkpt>
      <trkpt lat="45.32782" lon="6.33684">
        <ele>1216</ele>
        <time>2012-10-30T09:54:51Z</time>
      </trkpt>
      <trkpt lat="45.32783" lon="6.33691">
        <ele>1216</ele>
        <time>2012-10-30T09:54:53Z</time>
      </trkpt>
      <trkpt lat="45.32782" lon="6.33701">
        <ele>1217</ele>
        <time>2012-10-30T09:54:55Z</time>
      </trkpt>
      <trkpt lat="45.32782" lon="6.33708">
        <ele>1217</ele>
        <time>2012-10-30T09:54:57Z</time>
      </trkpt>
      <trkpt lat="45.32781" lon="6.33715">
        <ele>1217</ele>
        <time>2012-10-30T09:55:00Z</time>
      </trkpt>
      <trkpt lat="45.3278" lon="6.33722">
        <ele>1217</ele>
        <time>2012-10-30T09:55:02Z</time>
      </trkpt>
      <trkpt lat="45.32779" lon="6.33729">
        <ele>1217</ele>
        <time>2012-10-30T09:55:04Z</time>
      </trkpt>
      <trkpt lat="45.32777" lon="6.33735">
        <ele>1218</ele>
        <time>2012-10-30T09:55:06Z</time>
      </trkpt>
      <trkpt lat="45.32777" lon="6.33741">
        <ele>1218</ele>
        <time>2012-10-30T09:55:08Z</time>
      </trkpt>
      <trkpt lat="45.32776" lon="6.33748">
        <ele>1219</ele>
        <time>2012-10-30T09:55:10Z</time>
      </trkpt>
      <trkpt lat="45.32776" lon="6.33754">
        <ele>1219</ele>
        <time>2012-10-30T09:55:12Z</time>
      </trkpt>
      <trkpt lat="45.32776" lon="6.33761">
        <ele>1220</ele>
        <time>2012-10-30T09:55:14Z</time>
      </trkpt>
      <trkpt lat="45.32777" lon="6.33767">
        <ele>1220</ele>
        <time>2012-10-30T09:55:16Z</time>
      </trkpt>
      <trkpt lat="45.32778" lon="6.33773">
        <ele>1220</ele>
        <time>2012-10-30T09:55:18Z</time>
      </trkpt>
      <trkpt lat="45.32779" lon="6.33779">
        <ele>1221</ele>
        <time>2012-10-30T09:55:20Z</time>
      </trkpt>
      <trkpt lat="45.32779" lon="6.33789">
        <ele>1221</ele>
        <time>2012-10-30T09:55:22Z</time>
      </trkpt>
      <trkpt lat="45.3278" lon="6.33795">
        <ele>1221</ele>
        <time>2012-10-30T09:55:24Z</time>
      </trkpt>
      <trkpt lat="45.32781" lon="6.33801">
        <ele>1222</ele>
        <time>2012-10-30T09:55:26Z</time>
      </trkpt>
      <trkpt lat="45.32784" lon="6.33805">
        <ele>1222</ele>
        <time>2012-10-30T09:55:28Z</time>
      </trkpt>
      <trkpt lat="45.32786" lon="6.3381">
        <ele>1222</ele>
        <time>2012-10-30T09:55:30Z</time>
      </trkpt>
      <trkpt lat="45.32788" lon="6.33812">
        <ele>1222</ele>
        <time>2012-10-30T09:55:33Z</time>
      </trkpt>
      <trkpt lat="45.32792" lon="6.33814">
        <ele>1223</ele>
        <time>2012-10-30T09:55:35Z</time>
      </trkpt>
      <trkpt lat="45.32795" lon="6.33815">
        <ele>1223</ele>
        <time>2012-10-30T09:55:37Z</time>
      </trkpt>
      <trkpt lat="45.32799" lon="6.33814">
        <ele>1223</ele>
        <time>2012-10-30T09:55:39Z</time>
      </trkpt>
      <trkpt lat="45.32803" lon="6.33813">
        <ele>1224</ele>
        <time>2012-10-30T09:55:41Z</time>
      </trkpt>
      <trkpt lat="45.32806" lon="6.33811">
        <ele>1224</ele>
        <time>2012-10-30T09:55:43Z</time>
      </trkpt>
      <trkpt lat="45.32809" lon="6.33807">
        <ele>1224</ele>
        <time>2012-10-30T09:55:45Z</time>
      </trkpt>
      <trkpt lat="45.32811" lon="6.33802">
        <ele>1225</ele>
        <time>2012-10-30T09:55:47Z</time>
      </trkpt>
      <trkpt lat="45.32813" lon="6.33796">
        <ele>1225</ele>
        <time>2012-10-30T09:55:49Z</time>
      </trkpt>
      <trkpt lat="45.32814" lon="6.3379">
        <ele>1225</ele>
        <time>2012-10-30T09:55:51Z</time>
      </trkpt>
      <trkpt lat="45.32816" lon="6.33784">
        <ele>1226</ele>
        <time>2012-10-30T09:55:53Z</time>
      </trkpt>
      <trkpt lat="45.32817" lon="6.33776">
        <ele>1226</ele>
        <time>2012-10-30T09:55:55Z</time>
      </trkpt>
      <trkpt lat="45.32819" lon="6.3377">
        <ele>1227</ele>
        <time>2012-10-30T09:55:57Z</time>
      </trkpt>
      <trkpt lat="45.3282" lon="6.33765">
        <ele>1227</ele>
        <time>2012-10-30T09:55:59Z</time>
      </trkpt>
      <trkpt lat="45.32822" lon="6.33759">
        <ele>1228</ele>
        <time>2012-10-30T09:56:01Z</time>
      </trkpt>
      <trkpt lat="45.32823" lon="6.33753">
        <ele>1228</ele>
        <time>2012-10-30T09:56:03Z</time>
      </trkpt>
      <trkpt lat="45.32824" lon="6.33747">
        <ele>1229</ele>
        <time>2012-10-30T09:56:05Z</time>
      </trkpt>
      <trkpt lat="45.32826" lon="6.33741">
        <ele>1229</ele>
        <time>2012-10-30T09:56:08Z</time>
      </trkpt>
      <trkpt lat="45.32827" lon="6.33735">
        <ele>1230</ele>
        <time>2012-10-30T09:56:10Z</time>
      </trkpt>
      <trkpt lat="45.32829" lon="6.33729">
        <ele>1230</ele>
        <time>2012-10-30T09:56:12Z</time>
      </trkpt>
      <trkpt lat="45.3283" lon="6.33723">
        <ele>1230</ele>
        <time>2012-10-30T09:56:14Z</time>
      </trkpt>
      <trkpt lat="45.32832" lon="6.33718">
        <ele>1231</ele>
        <time>2012-10-30T09:56:16Z</time>
      </trkpt>
      <trkpt lat="45.32833" lon="6.33712">
        <ele>1232</ele>
        <time>2012-10-30T09:56:18Z</time>
      </trkpt>
      <trkpt lat="45.32835" lon="6.33706">
        <ele>1232</ele>
        <time>2012-10-30T09:56:20Z</time>
      </trkpt>
      <trkpt lat="45.32837" lon="6.337">
        <ele>1232</ele>
        <time>2012-10-30T09:56:22Z</time>
      </trkpt>
      <trkpt lat="45.32839" lon="6.33694">
        <ele>1233</ele>
        <time>2012-10-30T09:56:24Z</time>
      </trkpt>
      <trkpt lat="45.32841" lon="6.33688">
        <ele>1233</ele>
        <time>2012-10-30T09:56:26Z</time>
      </trkpt>
      <trkpt lat="45.32843" lon="6.33682">
        <ele>1234</ele>
        <time>2012-10-30T09:56:28Z</time>
      </trkpt>
      <trkpt lat="45.32845" lon="6.33676">
        <ele>1234</ele>
        <time>2012-10-30T09:56:30Z</time>
      </trkpt>
      <trkpt lat="45.32847" lon="6.33671">
        <ele>1235</ele>
        <time>2012-10-30T09:56:32Z</time>
      </trkpt>
      <trkpt lat="45.32849" lon="6.33666">
        <ele>1235</ele>
        <time>2012-10-30T09:56:34Z</time>
      </trkpt>
      <trkpt lat="45.32852" lon="6.33661">
        <ele>1235</ele>
        <time>2012-10-30T09:56:36Z</time>
      </trkpt>
      <trkpt lat="45.32855" lon="6.33658">
        <ele>1235</ele>
        <time>2012-10-30T09:56:38Z</time>
      </trkpt>
      <trkpt lat="45.3286" lon="6.33652">
        <ele>1236</ele>
        <time>2012-10-30T09:56:40Z</time>
      </trkpt>
      <trkpt lat="45.32864" lon="6.33648">
        <ele>1236</ele>
        <time>2012-10-30T09:56:42Z</time>
      </trkpt>
      <trkpt lat="45.32867" lon="6.33646">
        <ele>1236</ele>
        <time>2012-10-30T09:56:44Z</time>
      </trkpt>
      <trkpt lat="45.32871" lon="6.33644">
        <ele>1237</ele>
        <time>2012-10-30T09:56:46Z</time>
      </trkpt>
      <trkpt lat="45.32874" lon="6.33642">
        <ele>1238</ele>
        <time>2012-10-30T09:56:49Z</time>
      </trkpt>
      <trkpt lat="45.32878" lon="6.33639">
        <ele>1238</ele>
        <time>2012-10-30T09:56:51Z</time>
      </trkpt>
      <trkpt lat="45.32881" lon="6.33637">
        <ele>1239</ele>
        <time>2012-10-30T09:56:53Z</time>
      </trkpt>
      <trkpt lat="45.32885" lon="6.33635">
        <ele>1240</ele>
        <time>2012-10-30T09:56:55Z</time>
      </trkpt>
      <trkpt lat="45.32888" lon="6.33632">
        <ele>1240</ele>
        <time>2012-10-30T09:56:57Z</time>
      </trkpt>
      <trkpt lat="45.32892" lon="6.33629">
        <ele>1240</ele>
        <time>2012-10-30T09:56:59Z</time>
      </trkpt>
      <trkpt lat="45.32896" lon="6.33627">
        <ele>1241</ele>
        <time>2012-10-30T09:57:01Z</time>
      </trkpt>
      <trkpt lat="45.32899" lon="6.33624">
        <ele>1241</ele>
        <time>2012-10-30T09:57:03Z</time>
      </trkpt>
      <trkpt lat="45.32903" lon="6.33621">
        <ele>1242</ele>
        <time>2012-10-30T09:57:05Z</time>
      </trkpt>
      <trkpt lat="45.32906" lon="6.33618">
        <ele>1242</ele>
        <time>2012-10-30T09:57:07Z</time>
      </trkpt>
      <trkpt lat="45.3291" lon="6.33616">
        <ele>1243</ele>
        <time>2012-10-30T09:57:09Z</time>
      </trkpt>
      <trkpt lat="45.32915" lon="6.33612">
        <ele>1243</ele>
        <time>2012-10-30T09:57:11Z</time>
      </trkpt>
      <trkpt lat="45.32918" lon="6.3361">
        <ele>1244</ele>
        <time>2012-10-30T09:57:13Z</time>
      </trkpt>
      <trkpt lat="45.32922" lon="6.33607">
        <ele>1244</ele>
        <time>2012-10-30T09:57:15Z</time>
      </trkpt>
      <trkpt lat="45.32925" lon="6.33605">
        <ele>1245</ele>
        <time>2012-10-30T09:57:18Z</time>
      </trkpt>
      <trkpt lat="45.32929" lon="6.33602">
        <ele>1245</ele>
        <time>2012-10-30T09:57:20Z</time>
      </trkpt>
      <trkpt lat="45.32932" lon="6.33599">
        <ele>1246</ele>
        <time>2012-10-30T09:57:22Z</time>
      </trkpt>
      <trkpt lat="45.32935" lon="6.33596">
        <ele>1246</ele>
        <time>2012-10-30T09:57:24Z</time>
      </trkpt>
      <trkpt lat="45.32939" lon="6.33592">
        <ele>1247</ele>
        <time>2012-10-30T09:57:26Z</time>
      </trkpt>
      <trkpt lat="45.32943" lon="6.33588">
        <ele>1247</ele>
        <time>2012-10-30T09:57:28Z</time>
      </trkpt>
      <trkpt lat="45.32946" lon="6.33585">
        <ele>1247</ele>
        <time>2012-10-30T09:57:30Z</time>
      </trkpt>
      <trkpt lat="45.32951" lon="6.33579">
        <ele>1248</ele>
        <time>2012-10-30T09:57:32Z</time>
      </trkpt>
      <trkpt lat="45.32954" lon="6.33575">
        <ele>1248</ele>
        <time>2012-10-30T09:57:35Z</time>
      </trkpt>
      <trkpt lat="45.32957" lon="6.33572">
        <ele>1249</ele>
        <time>2012-10-30T09:57:37Z</time>
      </trkpt>
      <trkpt lat="45.32961" lon="6.33569">
        <ele>1249</ele>
        <time>2012-10-30T09:57:39Z</time>
      </trkpt>
      <trkpt lat="45.32964" lon="6.33567">
        <ele>1250</ele>
        <time>2012-10-30T09:57:41Z</time>
      </trkpt>
      <trkpt lat="45.32968" lon="6.33564">
        <ele>1250</ele>
        <time>2012-10-30T09:57:43Z</time>
      </trkpt>
      <trkpt lat="45.32972" lon="6.3356">
        <ele>1251</ele>
        <time>2012-10-30T09:57:45Z</time>
      </trkpt>
      <trkpt lat="45.32976" lon="6.33557">
        <ele>1251</ele>
        <time>2012-10-30T09:57:47Z</time>
      </trkpt>
      <trkpt lat="45.32979" lon="6.33555">
        <ele>1251</ele>
        <time>2012-10-30T09:57:50Z</time>
      </trkpt>
      <trkpt lat="45.32982" lon="6.33552">
        <ele>1251</ele>
        <time>2012-10-30T09:57:52Z</time>
      </trkpt>
      <trkpt lat="45.32986" lon="6.33549">
        <ele>1252</ele>
        <time>2012-10-30T09:57:54Z</time>
      </trkpt>
      <trkpt lat="45.32989" lon="6.33546">
        <ele>1253</ele>
        <time>2012-10-30T09:57:56Z</time>
      </trkpt>
      <trkpt lat="45.32993" lon="6.33543">
        <ele>1253</ele>
        <time>2012-10-30T09:57:58Z</time>
      </trkpt>
      <trkpt lat="45.32996" lon="6.33539">
        <ele>1254</ele>
        <time>2012-10-30T09:58:00Z</time>
      </trkpt>
      <trkpt lat="45.32999" lon="6.33535">
        <ele>1254</ele>
        <time>2012-10-30T09:58:02Z</time>
      </trkpt>
      <trkpt lat="45.33002" lon="6.33531">
        <ele>1254</ele>
        <time>2012-10-30T09:58:04Z</time>
      </trkpt>
      <trkpt lat="45.33007" lon="6.33525">
        <ele>1255</ele>
        <time>2012-10-30T09:58:06Z</time>
      </trkpt>
      <trkpt lat="45.3301" lon="6.3352">
        <ele>1255</ele>
        <time>2012-10-30T09:58:08Z</time>
      </trkpt>
      <trkpt lat="45.33012" lon="6.33515">
        <ele>1256</ele>
        <time>2012-10-30T09:58:10Z</time>
      </trkpt>
      <trkpt lat="45.33016" lon="6.33512">
        <ele>1256</ele>
        <time>2012-10-30T09:58:12Z</time>
      </trkpt>
      <trkpt lat="45.33019" lon="6.33509">
        <ele>1256</ele>
        <time>2012-10-30T09:58:15Z</time>
      </trkpt>
      <trkpt lat="45.33022" lon="6.33506">
        <ele>1256</ele>
        <time>2012-10-30T09:58:17Z</time>
      </trkpt>
      <trkpt lat="45.33024" lon="6.33503">
        <ele>1256</ele>
        <time>2012-10-30T09:58:19Z</time>
      </trkpt>
      <trkpt lat="45.33027" lon="6.33499">
        <ele>1257</ele>
        <time>2012-10-30T09:58:21Z</time>
      </trkpt>
      <trkpt lat="45.33029" lon="6.33496">
        <ele>1257</ele>
        <time>2012-10-30T09:58:23Z</time>
      </trkpt>
      <trkpt lat="45.3303" lon="6.33492">
        <ele>1258</ele>
        <time>2012-10-30T09:58:25Z</time>
      </trkpt>
      <trkpt lat="45.33034" lon="6.33487">
        <ele>1258</ele>
        <time>2012-10-30T09:58:27Z</time>
      </trkpt>
      <trkpt lat="45.33035" lon="6.33483">
        <ele>1258</ele>
        <time>2012-10-30T09:58:29Z</time>
      </trkpt>
      <trkpt lat="45.33037" lon="6.33478">
        <ele>1258</ele>
        <time>2012-10-30T09:58:32Z</time>
      </trkpt>
      <trkpt lat="45.33038" lon="6.33471">
        <ele>1259</ele>
        <time>2012-10-30T09:58:34Z</time>
      </trkpt>
      <trkpt lat="45.33039" lon="6.33465">
        <ele>1259</ele>
        <time>2012-10-30T09:58:36Z</time>
      </trkpt>
      <trkpt lat="45.33041" lon="6.33459">
        <ele>1259</ele>
        <time>2012-10-30T09:58:38Z</time>
      </trkpt>
      <trkpt lat="45.33041" lon="6.33453">
        <ele>1259</ele>
        <time>2012-10-30T09:58:40Z</time>
      </trkpt>
      <trkpt lat="45.33041" lon="6.33445">
        <ele>1260</ele>
        <time>2012-10-30T09:58:42Z</time>
      </trkpt>
      <trkpt lat="45.33042" lon="6.33438">
        <ele>1260</ele>
        <time>2012-10-30T09:58:44Z</time>
      </trkpt>
      <trkpt lat="45.33043" lon="6.33428">
        <ele>1260</ele>
        <time>2012-10-30T09:58:46Z</time>
      </trkpt>
      <trkpt lat="45.33044" lon="6.33421">
        <ele>1261</ele>
        <time>2012-10-30T09:58:48Z</time>
      </trkpt>
      <trkpt lat="45.33045" lon="6.33415">
        <ele>1261</ele>
        <time>2012-10-30T09:58:50Z</time>
      </trkpt>
      <trkpt lat="45.33047" lon="6.33409">
        <ele>1261</ele>
        <time>2012-10-30T09:58:53Z</time>
      </trkpt>
      <trkpt lat="45.33049" lon="6.33404">
        <ele>1262</ele>
        <time>2012-10-30T09:58:55Z</time>
      </trkpt>
      <trkpt lat="45.3305" lon="6.33398">
        <ele>1262</ele>
        <time>2012-10-30T09:58:57Z</time>
      </trkpt>
      <trkpt lat="45.33052" lon="6.33392">
        <ele>1263</ele>
        <time>2012-10-30T09:58:59Z</time>
      </trkpt>
      <trkpt lat="45.33055" lon="6.33386">
        <ele>1263</ele>
        <time>2012-10-30T09:59:01Z</time>
      </trkpt>
      <trkpt lat="45.33057" lon="6.33381">
        <ele>1264</ele>
        <time>2012-10-30T09:59:03Z</time>
      </trkpt>
      <trkpt lat="45.3306" lon="6.33376">
        <ele>1264</ele>
        <time>2012-10-30T09:59:05Z</time>
      </trkpt>
      <trkpt lat="45.33063" lon="6.3337">
        <ele>1264</ele>
        <time>2012-10-30T09:59:07Z</time>
      </trkpt>
      <trkpt lat="45.33068" lon="6.3336">
        <ele>1265</ele>
        <time>2012-10-30T09:59:09Z</time>
      </trkpt>
      <trkpt lat="45.33071" lon="6.33355">
        <ele>1265</ele>
        <time>2012-10-30T09:59:12Z</time>
      </trkpt>
      <trkpt lat="45.33074" lon="6.33349">
        <ele>1265</ele>
        <time>2012-10-30T09:59:14Z</time>
      </trkpt>
      <trkpt lat="45.33076" lon="6.33343">
        <ele>1265</ele>
        <time>2012-10-30T09:59:16Z</time>
      </trkpt>
      <trkpt lat="45.33079" lon="6.33337">
        <ele>1266</ele>
        <time>2012-10-30T09:59:18Z</time>
      </trkpt>
      <trkpt lat="45.33081" lon="6.33332">
        <ele>1266</ele>
        <time>2012-10-30T09:59:20Z</time>
      </trkpt>
      <trkpt lat="45.33083" lon="6.33327">
        <ele>1267</ele>
        <time>2012-10-30T09:59:22Z</time>
      </trkpt>
      <trkpt lat="45.33085" lon="6.33321">
        <ele>1267</ele>
        <time>2012-10-30T09:59:24Z</time>
      </trkpt>
      <trkpt lat="45.33087" lon="6.33315">
        <ele>1268</ele>
        <time>2012-10-30T09:59:26Z</time>
      </trkpt>
      <trkpt lat="45.33089" lon="6.33308">
        <ele>1268</ele>
        <time>2012-10-30T09:59:28Z</time>
      </trkpt>
      <trkpt lat="45.33091" lon="6.33298">
        <ele>1268</ele>
        <time>2012-10-30T09:59:30Z</time>
      </trkpt>
      <trkpt lat="45.33092" lon="6.33292">
        <ele>1268</ele>
        <time>2012-10-30T09:59:32Z</time>
      </trkpt>
      <trkpt lat="45.33094" lon="6.33285">
        <ele>1269</ele>
        <time>2012-10-30T09:59:35Z</time>
      </trkpt>
      <trkpt lat="45.33096" lon="6.33279">
        <ele>1269</ele>
        <time>2012-10-30T09:59:37Z</time>
      </trkpt>
      <trkpt lat="45.33097" lon="6.33273">
        <ele>1270</ele>
        <time>2012-10-30T09:59:39Z</time>
      </trkpt>
      <trkpt lat="45.33099" lon="6.33266">
        <ele>1270</ele>
        <time>2012-10-30T09:59:41Z</time>
      </trkpt>
      <trkpt lat="45.331" lon="6.33259">
        <ele>1271</ele>
        <time>2012-10-30T09:59:43Z</time>
      </trkpt>
      <trkpt lat="45.33102" lon="6.33253">
        <ele>1271</ele>
        <time>2012-10-30T09:59:45Z</time>
      </trkpt>
      <trkpt lat="45.33104" lon="6.33248">
        <ele>1272</ele>
        <time>2012-10-30T09:59:47Z</time>
      </trkpt>
      <trkpt lat="45.33104" lon="6.33241">
        <ele>1273</ele>
        <time>2012-10-30T09:59:49Z</time>
      </trkpt>
      <trkpt lat="45.33107" lon="6.33236">
        <ele>1273</ele>
        <time>2012-10-30T09:59:51Z</time>
      </trkpt>
      <trkpt lat="45.33109" lon="6.33232">
        <ele>1273</ele>
        <time>2012-10-30T09:59:53Z</time>
      </trkpt>
      <trkpt lat="45.33112" lon="6.33228">
        <ele>1274</ele>
        <time>2012-10-30T09:59:55Z</time>
      </trkpt>
      <trkpt lat="45.33115" lon="6.33224">
        <ele>1274</ele>
        <time>2012-10-30T09:59:57Z</time>
      </trkpt>
      <trkpt lat="45.33118" lon="6.3322">
        <ele>1274</ele>
        <time>2012-10-30T09:59:59Z</time>
      </trkpt>
      <trkpt lat="45.33122" lon="6.33217">
        <ele>1274</ele>
        <time>2012-10-30T10:00:01Z</time>
      </trkpt>
      <trkpt lat="45.33127" lon="6.33214">
        <ele>1275</ele>
        <time>2012-10-30T10:00:03Z</time>
      </trkpt>
      <trkpt lat="45.33131" lon="6.33211">
        <ele>1275</ele>
        <time>2012-10-30T10:00:05Z</time>
      </trkpt>
      <trkpt lat="45.33134" lon="6.33208">
        <ele>1276</ele>
        <time>2012-10-30T10:00:08Z</time>
      </trkpt>
      <trkpt lat="45.33138" lon="6.33204">
        <ele>1276</ele>
        <time>2012-10-30T10:00:10Z</time>
      </trkpt>
      <trkpt lat="45.33141" lon="6.332">
        <ele>1277</ele>
        <time>2012-10-30T10:00:12Z</time>
      </trkpt>
      <trkpt lat="45.33145" lon="6.33196">
        <ele>1277</ele>
        <time>2012-10-30T10:00:14Z</time>
      </trkpt>
      <trkpt lat="45.33149" lon="6.33193">
        <ele>1278</ele>
        <time>2012-10-30T10:00:16Z</time>
      </trkpt>
      <trkpt lat="45.33154" lon="6.33187">
        <ele>1278</ele>
        <time>2012-10-30T10:00:18Z</time>
      </trkpt>
      <trkpt lat="45.33158" lon="6.33183">
        <ele>1279</ele>
        <time>2012-10-30T10:00:20Z</time>
      </trkpt>
      <trkpt lat="45.33162" lon="6.33179">
        <ele>1279</ele>
        <time>2012-10-30T10:00:23Z</time>
      </trkpt>
      <trkpt lat="45.33165" lon="6.33175">
        <ele>1280</ele>
        <time>2012-10-30T10:00:25Z</time>
      </trkpt>
      <trkpt lat="45.33168" lon="6.33172">
        <ele>1280</ele>
        <time>2012-10-30T10:00:27Z</time>
      </trkpt>
      <trkpt lat="45.33171" lon="6.33168">
        <ele>1280</ele>
        <time>2012-10-30T10:00:29Z</time>
      </trkpt>
      <trkpt lat="45.33176" lon="6.33163">
        <ele>1281</ele>
        <time>2012-10-30T10:00:31Z</time>
      </trkpt>
      <trkpt lat="45.33179" lon="6.33159">
        <ele>1281</ele>
        <time>2012-10-30T10:00:33Z</time>
      </trkpt>
      <trkpt lat="45.33182" lon="6.33155">
        <ele>1282</ele>
        <time>2012-10-30T10:00:35Z</time>
      </trkpt>
      <trkpt lat="45.33185" lon="6.33151">
        <ele>1282</ele>
        <time>2012-10-30T10:00:38Z</time>
      </trkpt>
      <trkpt lat="45.33188" lon="6.33148">
        <ele>1282</ele>
        <time>2012-10-30T10:00:40Z</time>
      </trkpt>
      <trkpt lat="45.33191" lon="6.33144">
        <ele>1283</ele>
        <time>2012-10-30T10:00:42Z</time>
      </trkpt>
      <trkpt lat="45.33194" lon="6.33141">
        <ele>1283</ele>
        <time>2012-10-30T10:00:44Z</time>
      </trkpt>
      <trkpt lat="45.33197" lon="6.33138">
        <ele>1283</ele>
        <time>2012-10-30T10:00:46Z</time>
      </trkpt>
      <trkpt lat="45.332" lon="6.33134">
        <ele>1284</ele>
        <time>2012-10-30T10:00:48Z</time>
      </trkpt>
      <trkpt lat="45.33203" lon="6.33131">
        <ele>1284</ele>
        <time>2012-10-30T10:00:50Z</time>
      </trkpt>
      <trkpt lat="45.33206" lon="6.33127">
        <ele>1284</ele>
        <time>2012-10-30T10:00:52Z</time>
      </trkpt>
      <trkpt lat="45.33209" lon="6.33124">
        <ele>1285</ele>
        <time>2012-10-30T10:00:54Z</time>
      </trkpt>
      <trkpt lat="45.33212" lon="6.3312">
        <ele>1285</ele>
        <time>2012-10-30T10:00:56Z</time>
      </trkpt>
      <trkpt lat="45.33215" lon="6.33117">
        <ele>1285</ele>
        <time>2012-10-30T10:00:58Z</time>
      </trkpt>
      <trkpt lat="45.33218" lon="6.33114">
        <ele>1286</ele>
        <time>2012-10-30T10:01:00Z</time>
      </trkpt>
      <trkpt lat="45.33221" lon="6.3311">
        <ele>1286</ele>
        <time>2012-10-30T10:01:02Z</time>
      </trkpt>
      <trkpt lat="45.33226" lon="6.33105">
        <ele>1286</ele>
        <time>2012-10-30T10:01:04Z</time>
      </trkpt>
      <trkpt lat="45.33229" lon="6.33101">
        <ele>1287</ele>
        <time>2012-10-30T10:01:06Z</time>
      </trkpt>
      <trkpt lat="45.33232" lon="6.33098">
        <ele>1287</ele>
        <time>2012-10-30T10:01:08Z</time>
      </trkpt>
      <trkpt lat="45.33236" lon="6.33095">
        <ele>1287</ele>
        <time>2012-10-30T10:01:10Z</time>
      </trkpt>
      <trkpt lat="45.33239" lon="6.3309">
        <ele>1287</ele>
        <time>2012-10-30T10:01:13Z</time>
      </trkpt>
      <trkpt lat="45.33242" lon="6.33086">
        <ele>1287</ele>
        <time>2012-10-30T10:01:15Z</time>
      </trkpt>
      <trkpt lat="45.33245" lon="6.33082">
        <ele>1288</ele>
        <time>2012-10-30T10:01:17Z</time>
      </trkpt>
      <trkpt lat="45.33249" lon="6.33079">
        <ele>1288</ele>
        <time>2012-10-30T10:01:19Z</time>
      </trkpt>
      <trkpt lat="45.33252" lon="6.33075">
        <ele>1288</ele>
        <time>2012-10-30T10:01:21Z</time>
      </trkpt>
      <trkpt lat="45.33255" lon="6.33071">
        <ele>1288</ele>
        <time>2012-10-30T10:01:23Z</time>
      </trkpt>
      <trkpt lat="45.33258" lon="6.33066">
        <ele>1288</ele>
        <time>2012-10-30T10:01:25Z</time>
      </trkpt>
      <trkpt lat="45.33262" lon="6.33062">
        <ele>1289</ele>
        <time>2012-10-30T10:01:27Z</time>
      </trkpt>
      <trkpt lat="45.33267" lon="6.33055">
        <ele>1289</ele>
        <time>2012-10-30T10:01:29Z</time>
      </trkpt>
      <trkpt lat="45.33271" lon="6.33051">
        <ele>1290</ele>
        <time>2012-10-30T10:01:32Z</time>
      </trkpt>
      <trkpt lat="45.33274" lon="6.33047">
        <ele>1290</ele>
        <time>2012-10-30T10:01:34Z</time>
      </trkpt>
      <trkpt lat="45.33278" lon="6.33043">
        <ele>1290</ele>
        <time>2012-10-30T10:01:36Z</time>
      </trkpt>
      <trkpt lat="45.33282" lon="6.33039">
        <ele>1290</ele>
        <time>2012-10-30T10:01:38Z</time>
      </trkpt>
      <trkpt lat="45.33286" lon="6.33035">
        <ele>1291</ele>
        <time>2012-10-30T10:01:40Z</time>
      </trkpt>
      <trkpt lat="45.33292" lon="6.33028">
        <ele>1291</ele>
        <time>2012-10-30T10:01:42Z</time>
      </trkpt>
      <trkpt lat="45.33296" lon="6.33024">
        <ele>1292</ele>
        <time>2012-10-30T10:01:44Z</time>
      </trkpt>
      <trkpt lat="45.333" lon="6.33019">
        <ele>1292</ele>
        <time>2012-10-30T10:01:46Z</time>
      </trkpt>
      <trkpt lat="45.33303" lon="6.33014">
        <ele>1293</ele>
        <time>2012-10-30T10:01:49Z</time>
      </trkpt>
      <trkpt lat="45.33307" lon="6.33011">
        <ele>1293</ele>
        <time>2012-10-30T10:01:51Z</time>
      </trkpt>
      <trkpt lat="45.33311" lon="6.33007">
        <ele>1293</ele>
        <time>2012-10-30T10:01:53Z</time>
      </trkpt>
      <trkpt lat="45.33314" lon="6.33003">
        <ele>1294</ele>
        <time>2012-10-30T10:01:55Z</time>
      </trkpt>
      <trkpt lat="45.33318" lon="6.32999">
        <ele>1294</ele>
        <time>2012-10-30T10:01:57Z</time>
      </trkpt>
      <trkpt lat="45.33322" lon="6.32996">
        <ele>1295</ele>
        <time>2012-10-30T10:01:59Z</time>
      </trkpt>
      <trkpt lat="45.33325" lon="6.32992">
        <ele>1295</ele>
        <time>2012-10-30T10:02:01Z</time>
      </trkpt>
      <trkpt lat="45.33328" lon="6.32988">
        <ele>1295</ele>
        <time>2012-10-30T10:02:03Z</time>
      </trkpt>
      <trkpt lat="45.33332" lon="6.32984">
        <ele>1296</ele>
        <time>2012-10-30T10:02:05Z</time>
      </trkpt>
      <trkpt lat="45.33335" lon="6.32981">
        <ele>1296</ele>
        <time>2012-10-30T10:02:07Z</time>
      </trkpt>
      <trkpt lat="45.33339" lon="6.32975">
        <ele>1297</ele>
        <time>2012-10-30T10:02:09Z</time>
      </trkpt>
      <trkpt lat="45.33342" lon="6.32972">
        <ele>1297</ele>
        <time>2012-10-30T10:02:11Z</time>
      </trkpt>
      <trkpt lat="45.33344" lon="6.32968">
        <ele>1297</ele>
        <time>2012-10-30T10:02:13Z</time>
      </trkpt>
      <trkpt lat="45.33346" lon="6.32963">
        <ele>1297</ele>
        <time>2012-10-30T10:02:15Z</time>
      </trkpt>
      <trkpt lat="45.33347" lon="6.32958">
        <ele>1298</ele>
        <time>2012-10-30T10:02:17Z</time>
      </trkpt>
      <trkpt lat="45.33349" lon="6.32954">
        <ele>1298</ele>
        <time>2012-10-30T10:02:20Z</time>
      </trkpt>
      <trkpt lat="45.33349" lon="6.32948">
        <ele>1299</ele>
        <time>2012-10-30T10:02:22Z</time>
      </trkpt>
      <trkpt lat="45.3335" lon="6.32942">
        <ele>1299</ele>
        <time>2012-10-30T10:02:24Z</time>
      </trkpt>
      <trkpt lat="45.3335" lon="6.32937">
        <ele>1299</ele>
        <time>2012-10-30T10:02:26Z</time>
      </trkpt>
      <trkpt lat="45.33349" lon="6.32929">
        <ele>1299</ele>
        <time>2012-10-30T10:02:28Z</time>
      </trkpt>
      <trkpt lat="45.33348" lon="6.32923">
        <ele>1300</ele>
        <time>2012-10-30T10:02:30Z</time>
      </trkpt>
      <trkpt lat="45.33348" lon="6.32917">
        <ele>1300</ele>
        <time>2012-10-30T10:02:33Z</time>
      </trkpt>
      <trkpt lat="45.33347" lon="6.32912">
        <ele>1301</ele>
        <time>2012-10-30T10:02:35Z</time>
      </trkpt>
      <trkpt lat="45.33345" lon="6.32906">
        <ele>1302</ele>
        <time>2012-10-30T10:02:37Z</time>
      </trkpt>
      <trkpt lat="45.33345" lon="6.32901">
        <ele>1302</ele>
        <time>2012-10-30T10:02:39Z</time>
      </trkpt>
      <trkpt lat="45.33344" lon="6.32896">
        <ele>1302</ele>
        <time>2012-10-30T10:02:41Z</time>
      </trkpt>
      <trkpt lat="45.33342" lon="6.32887">
        <ele>1303</ele>
        <time>2012-10-30T10:02:43Z</time>
      </trkpt>
      <trkpt lat="45.33341" lon="6.32882">
        <ele>1303</ele>
        <time>2012-10-30T10:02:45Z</time>
      </trkpt>
      <trkpt lat="45.3334" lon="6.32877">
        <ele>1303</ele>
        <time>2012-10-30T10:02:47Z</time>
      </trkpt>
      <trkpt lat="45.33339" lon="6.32872">
        <ele>1304</ele>
        <time>2012-10-30T10:02:50Z</time>
      </trkpt>
      <trkpt lat="45.33338" lon="6.32867">
        <ele>1305</ele>
        <time>2012-10-30T10:02:52Z</time>
      </trkpt>
      <trkpt lat="45.33337" lon="6.32861">
        <ele>1305</ele>
        <time>2012-10-30T10:02:54Z</time>
      </trkpt>
      <trkpt lat="45.33336" lon="6.32855">
        <ele>1306</ele>
        <time>2012-10-30T10:02:56Z</time>
      </trkpt>
      <trkpt lat="45.33335" lon="6.32849">
        <ele>1306</ele>
        <time>2012-10-30T10:02:58Z</time>
      </trkpt>
      <trkpt lat="45.33334" lon="6.32843">
        <ele>1307</ele>
        <time>2012-10-30T10:03:00Z</time>
      </trkpt>
      <trkpt lat="45.33332" lon="6.32837">
        <ele>1307</ele>
        <time>2012-10-30T10:03:02Z</time>
      </trkpt>
      <trkpt lat="45.33332" lon="6.3283">
        <ele>1307</ele>
        <time>2012-10-30T10:03:04Z</time>
      </trkpt>
      <trkpt lat="45.3333" lon="6.32821">
        <ele>1308</ele>
        <time>2012-10-30T10:03:06Z</time>
      </trkpt>
      <trkpt lat="45.33329" lon="6.32815">
        <ele>1308</ele>
        <time>2012-10-30T10:03:08Z</time>
      </trkpt>
      <trkpt lat="45.33328" lon="6.32809">
        <ele>1308</ele>
        <time>2012-10-30T10:03:10Z</time>
      </trkpt>
      <trkpt lat="45.33327" lon="6.32803">
        <ele>1309</ele>
        <time>2012-10-30T10:03:13Z</time>
      </trkpt>
      <trkpt lat="45.33327" lon="6.32797">
        <ele>1309</ele>
        <time>2012-10-30T10:03:15Z</time>
      </trkpt>
      <trkpt lat="45.33326" lon="6.3279">
        <ele>1309</ele>
        <time>2012-10-30T10:03:17Z</time>
      </trkpt>
      <trkpt lat="45.33326" lon="6.32784">
        <ele>1310</ele>
        <time>2012-10-30T10:03:19Z</time>
      </trkpt>
      <trkpt lat="45.33327" lon="6.32777">
        <ele>1310</ele>
        <time>2012-10-30T10:03:21Z</time>
      </trkpt>
      <trkpt lat="45.3333" lon="6.32772">
        <ele>1310</ele>
        <time>2012-10-30T10:03:23Z</time>
      </trkpt>
      <trkpt lat="45.33335" lon="6.32771">
        <ele>1310</ele>
        <time>2012-10-30T10:03:25Z</time>
      </trkpt>
      <trkpt lat="45.33339" lon="6.32774">
        <ele>1310</ele>
        <time>2012-10-30T10:03:27Z</time>
      </trkpt>
      <trkpt lat="45.33343" lon="6.32779">
        <ele>1311</ele>
        <time>2012-10-30T10:03:29Z</time>
      </trkpt>
      <trkpt lat="45.33344" lon="6.32786">
        <ele>1311</ele>
        <time>2012-10-30T10:03:31Z</time>
      </trkpt>
      <trkpt lat="45.33345" lon="6.32795">
        <ele>1311</ele>
        <time>2012-10-30T10:03:33Z</time>
      </trkpt>
      <trkpt lat="45.33345" lon="6.32801">
        <ele>1312</ele>
        <time>2012-10-30T10:03:36Z</time>
      </trkpt>
      <trkpt lat="45.33346" lon="6.32807">
        <ele>1312</ele>
        <time>2012-10-30T10:03:38Z</time>
      </trkpt>
      <trkpt lat="45.33347" lon="6.32813">
        <ele>1313</ele>
        <time>2012-10-30T10:03:40Z</time>
      </trkpt>
      <trkpt lat="45.33348" lon="6.3282">
        <ele>1313</ele>
        <time>2012-10-30T10:03:42Z</time>
      </trkpt>
      <trkpt lat="45.3335" lon="6.32826">
        <ele>1313</ele>
        <time>2012-10-30T10:03:44Z</time>
      </trkpt>
      <trkpt lat="45.33352" lon="6.32832">
        <ele>1313</ele>
        <time>2012-10-30T10:03:46Z</time>
      </trkpt>
      <trkpt lat="45.33355" lon="6.32842">
        <ele>1314</ele>
        <time>2012-10-30T10:03:48Z</time>
      </trkpt>
      <trkpt lat="45.33357" lon="6.32848">
        <ele>1314</ele>
        <time>2012-10-30T10:03:50Z</time>
      </trkpt>
      <trkpt lat="45.33359" lon="6.32854">
        <ele>1314</ele>
        <time>2012-10-30T10:03:52Z</time>
      </trkpt>
      <trkpt lat="45.3336" lon="6.32861">
        <ele>1315</ele>
        <time>2012-10-30T10:03:55Z</time>
      </trkpt>
      <trkpt lat="45.33362" lon="6.32867">
        <ele>1315</ele>
        <time>2012-10-30T10:03:57Z</time>
      </trkpt>
      <trkpt lat="45.33364" lon="6.32874">
        <ele>1315</ele>
        <time>2012-10-30T10:03:59Z</time>
      </trkpt>
      <trkpt lat="45.33366" lon="6.3288">
        <ele>1316</ele>
        <time>2012-10-30T10:04:01Z</time>
      </trkpt>
      <trkpt lat="45.33368" lon="6.32886">
        <ele>1316</ele>
        <time>2012-10-30T10:04:03Z</time>
      </trkpt>
      <trkpt lat="45.3337" lon="6.32892">
        <ele>1317</ele>
        <time>2012-10-30T10:04:05Z</time>
      </trkpt>
      <trkpt lat="45.33372" lon="6.32898">
        <ele>1317</ele>
        <time>2012-10-30T10:04:07Z</time>
      </trkpt>
      <trkpt lat="45.33374" lon="6.32903">
        <ele>1318</ele>
        <time>2012-10-30T10:04:09Z</time>
      </trkpt>
      <trkpt lat="45.33378" lon="6.32912">
        <ele>1318</ele>
        <time>2012-10-30T10:04:11Z</time>
      </trkpt>
      <trkpt lat="45.3338" lon="6.32919">
        <ele>1318</ele>
        <time>2012-10-30T10:04:13Z</time>
      </trkpt>
      <trkpt lat="45.33383" lon="6.32925">
        <ele>1318</ele>
        <time>2012-10-30T10:04:16Z</time>
      </trkpt>
      <trkpt lat="45.33387" lon="6.32931">
        <ele>1318</ele>
        <time>2012-10-30T10:04:18Z</time>
      </trkpt>
      <trkpt lat="45.3339" lon="6.32937">
        <ele>1319</ele>
        <time>2012-10-30T10:04:20Z</time>
      </trkpt>
      <trkpt lat="45.33393" lon="6.32943">
        <ele>1319</ele>
        <time>2012-10-30T10:04:22Z</time>
      </trkpt>
      <trkpt lat="45.33395" lon="6.32951">
        <ele>1320</ele>
        <time>2012-10-30T10:04:24Z</time>
      </trkpt>
      <trkpt lat="45.33398" lon="6.32958">
        <ele>1320</ele>
        <time>2012-10-30T10:04:26Z</time>
      </trkpt>
      <trkpt lat="45.33399" lon="6.32965">
        <ele>1320</ele>
        <time>2012-10-30T10:04:28Z</time>
      </trkpt>
      <trkpt lat="45.334" lon="6.32973">
        <ele>1320</ele>
        <time>2012-10-30T10:04:30Z</time>
      </trkpt>
      <trkpt lat="45.334" lon="6.32983">
        <ele>1320</ele>
        <time>2012-10-30T10:04:32Z</time>
      </trkpt>
      <trkpt lat="45.33399" lon="6.32989">
        <ele>1320</ele>
        <time>2012-10-30T10:04:34Z</time>
      </trkpt>
      <trkpt lat="45.33398" lon="6.32995">
        <ele>1321</ele>
        <time>2012-10-30T10:04:37Z</time>
      </trkpt>
      <trkpt lat="45.33397" lon="6.33001">
        <ele>1321</ele>
        <time>2012-10-30T10:04:39Z</time>
      </trkpt>
      <trkpt lat="45.33395" lon="6.33011">
        <ele>1322</ele>
        <time>2012-10-30T10:04:41Z</time>
      </trkpt>
      <trkpt lat="45.33393" lon="6.33017">
        <ele>1322</ele>
        <time>2012-10-30T10:04:44Z</time>
      </trkpt>
      <trkpt lat="45.33391" lon="6.33024">
        <ele>1323</ele>
        <time>2012-10-30T10:04:46Z</time>
      </trkpt>
      <trkpt lat="45.3339" lon="6.33031">
        <ele>1323</ele>
        <time>2012-10-30T10:04:48Z</time>
      </trkpt>
      <trkpt lat="45.33388" lon="6.33039">
        <ele>1323</ele>
        <time>2012-10-30T10:04:50Z</time>
      </trkpt>
      <trkpt lat="45.33387" lon="6.33046">
        <ele>1323</ele>
        <time>2012-10-30T10:04:52Z</time>
      </trkpt>
      <trkpt lat="45.33385" lon="6.33054">
        <ele>1324</ele>
        <time>2012-10-30T10:04:54Z</time>
      </trkpt>
      <trkpt lat="45.33383" lon="6.33062">
        <ele>1324</ele>
        <time>2012-10-30T10:04:56Z</time>
      </trkpt>
      <trkpt lat="45.33381" lon="6.33069">
        <ele>1324</ele>
        <time>2012-10-30T10:04:58Z</time>
      </trkpt>
      <trkpt lat="45.33379" lon="6.33077">
        <ele>1324</ele>
        <time>2012-10-30T10:05:00Z</time>
      </trkpt>
      <trkpt lat="45.33378" lon="6.33085">
        <ele>1325</ele>
        <time>2012-10-30T10:05:02Z</time>
      </trkpt>
      <trkpt lat="45.33374" lon="6.33097">
        <ele>1325</ele>
        <time>2012-10-30T10:05:04Z</time>
      </trkpt>
      <trkpt lat="45.33373" lon="6.33106">
        <ele>1326</ele>
        <time>2012-10-30T10:05:06Z</time>
      </trkpt>
      <trkpt lat="45.33371" lon="6.33114">
        <ele>1326</ele>
        <time>2012-10-30T10:05:09Z</time>
      </trkpt>
      <trkpt lat="45.33371" lon="6.33122">
        <ele>1326</ele>
        <time>2012-10-30T10:05:11Z</time>
      </trkpt>
      <trkpt lat="45.3337" lon="6.3313">
        <ele>1326</ele>
        <time>2012-10-30T10:05:13Z</time>
      </trkpt>
      <trkpt lat="45.33368" lon="6.33142">
        <ele>1327</ele>
        <time>2012-10-30T10:05:15Z</time>
      </trkpt>
      <trkpt lat="45.33368" lon="6.33145">
        <ele>1327</ele>
        <time>2012-10-30T10:05:17Z</time>
      </trkpt>
      <trkpt lat="45.33366" lon="6.33155">
        <ele>1328</ele>
        <time>2012-10-30T10:05:19Z</time>
      </trkpt>
      <trkpt lat="45.33363" lon="6.33162">
        <ele>1328</ele>
        <time>2012-10-30T10:05:21Z</time>
      </trkpt>
      <trkpt lat="45.33361" lon="6.33168">
        <ele>1328</ele>
        <time>2012-10-30T10:05:23Z</time>
      </trkpt>
      <trkpt lat="45.3336" lon="6.33175">
        <ele>1329</ele>
        <time>2012-10-30T10:05:25Z</time>
      </trkpt>
      <trkpt lat="45.33358" lon="6.33181">
        <ele>1329</ele>
        <time>2012-10-30T10:05:28Z</time>
      </trkpt>
      <trkpt lat="45.33356" lon="6.33187">
        <ele>1329</ele>
        <time>2012-10-30T10:05:30Z</time>
      </trkpt>
      <trkpt lat="45.33353" lon="6.33193">
        <ele>1329</ele>
        <time>2012-10-30T10:05:32Z</time>
      </trkpt>
      <trkpt lat="45.33351" lon="6.33198">
        <ele>1329</ele>
        <time>2012-10-30T10:05:34Z</time>
      </trkpt>
      <trkpt lat="45.3335" lon="6.33204">
        <ele>1330</ele>
        <time>2012-10-30T10:05:36Z</time>
      </trkpt>
      <trkpt lat="45.33348" lon="6.33209">
        <ele>1330</ele>
        <time>2012-10-30T10:05:38Z</time>
      </trkpt>
      <trkpt lat="45.33346" lon="6.33213">
        <ele>1331</ele>
        <time>2012-10-30T10:05:40Z</time>
      </trkpt>
      <trkpt lat="45.33344" lon="6.33218">
        <ele>1332</ele>
        <time>2012-10-30T10:05:42Z</time>
      </trkpt>
      <trkpt lat="45.33342" lon="6.33221">
        <ele>1332</ele>
        <time>2012-10-30T10:05:44Z</time>
      </trkpt>
      <trkpt lat="45.33341" lon="6.33225">
        <ele>1332</ele>
        <time>2012-10-30T10:05:46Z</time>
      </trkpt>
      <trkpt lat="45.33341" lon="6.33228">
        <ele>1332</ele>
        <time>2012-10-30T10:05:48Z</time>
      </trkpt>
      <trkpt lat="45.33344" lon="6.3323">
        <ele>1332</ele>
        <time>2012-10-30T10:05:50Z</time>
      </trkpt>
      <trkpt lat="45.33346" lon="6.3323">
        <ele>1332</ele>
        <time>2012-10-30T10:05:52Z</time>
      </trkpt>
      <trkpt lat="45.33349" lon="6.33228">
        <ele>1332</ele>
        <time>2012-10-30T10:05:54Z</time>
      </trkpt>
      <trkpt lat="45.33351" lon="6.33225">
        <ele>1333</ele>
        <time>2012-10-30T10:05:56Z</time>
      </trkpt>
      <trkpt lat="45.33353" lon="6.33223">
        <ele>1334</ele>
        <time>2012-10-30T10:05:59Z</time>
      </trkpt>
      <trkpt lat="45.33356" lon="6.33221">
        <ele>1334</ele>
        <time>2012-10-30T10:06:01Z</time>
      </trkpt>
      <trkpt lat="45.33358" lon="6.33219">
        <ele>1334</ele>
        <time>2012-10-30T10:06:03Z</time>
      </trkpt>
      <trkpt lat="45.3336" lon="6.33216">
        <ele>1335</ele>
        <time>2012-10-30T10:06:05Z</time>
      </trkpt>
      <trkpt lat="45.33364" lon="6.33213">
        <ele>1335</ele>
        <time>2012-10-30T10:06:07Z</time>
      </trkpt>
      <trkpt lat="45.33367" lon="6.3321">
        <ele>1335</ele>
        <time>2012-10-30T10:06:09Z</time>
      </trkpt>
      <trkpt lat="45.33369" lon="6.33208">
        <ele>1335</ele>
        <time>2012-10-30T10:06:11Z</time>
      </trkpt>
      <trkpt lat="45.33372" lon="6.33206">
        <ele>1335</ele>
        <time>2012-10-30T10:06:14Z</time>
      </trkpt>
      <trkpt lat="45.33375" lon="6.33203">
        <ele>1335</ele>
        <time>2012-10-30T10:06:16Z</time>
      </trkpt>
      <trkpt lat="45.33378" lon="6.332">
        <ele>1336</ele>
        <time>2012-10-30T10:06:18Z</time>
      </trkpt>
      <trkpt lat="45.33381" lon="6.33198">
        <ele>1336</ele>
        <time>2012-10-30T10:06:20Z</time>
      </trkpt>
      <trkpt lat="45.33384" lon="6.33195">
        <ele>1336</ele>
        <time>2012-10-30T10:06:22Z</time>
      </trkpt>
      <trkpt lat="45.33387" lon="6.33192">
        <ele>1337</ele>
        <time>2012-10-30T10:06:24Z</time>
      </trkpt>
      <trkpt lat="45.33389" lon="6.3319">
        <ele>1337</ele>
        <time>2012-10-30T10:06:26Z</time>
      </trkpt>
      <trkpt lat="45.33392" lon="6.33187">
        <ele>1338</ele>
        <time>2012-10-30T10:06:28Z</time>
      </trkpt>
      <trkpt lat="45.33394" lon="6.33185">
        <ele>1338</ele>
        <time>2012-10-30T10:06:30Z</time>
      </trkpt>
      <trkpt lat="45.33398" lon="6.33181">
        <ele>1339</ele>
        <time>2012-10-30T10:06:32Z</time>
      </trkpt>
      <trkpt lat="45.334" lon="6.33177">
        <ele>1339</ele>
        <time>2012-10-30T10:06:34Z</time>
      </trkpt>
      <trkpt lat="45.33402" lon="6.33174">
        <ele>1339</ele>
        <time>2012-10-30T10:06:36Z</time>
      </trkpt>
      <trkpt lat="45.33404" lon="6.3317">
        <ele>1339</ele>
        <time>2012-10-30T10:06:39Z</time>
      </trkpt>
      <trkpt lat="45.33406" lon="6.33167">
        <ele>1339</ele>
        <time>2012-10-30T10:06:41Z</time>
      </trkpt>
      <trkpt lat="45.33407" lon="6.33163">
        <ele>1339</ele>
        <time>2012-10-30T10:06:43Z</time>
      </trkpt>
      <trkpt lat="45.33409" lon="6.33159">
        <ele>1340</ele>
        <time>2012-10-30T10:06:45Z</time>
      </trkpt>
      <trkpt lat="45.3341" lon="6.33155">
        <ele>1340</ele>
        <time>2012-10-30T10:06:47Z</time>
      </trkpt>
      <trkpt lat="45.33412" lon="6.33152">
        <ele>1341</ele>
        <time>2012-10-30T10:06:49Z</time>
      </trkpt>
      <trkpt lat="45.33413" lon="6.33147">
        <ele>1342</ele>
        <time>2012-10-30T10:06:51Z</time>
      </trkpt>
      <trkpt lat="45.33416" lon="6.33141">
        <ele>1342</ele>
        <time>2012-10-30T10:06:53Z</time>
      </trkpt>
      <trkpt lat="45.33418" lon="6.33138">
        <ele>1343</ele>
        <time>2012-10-30T10:06:55Z</time>
      </trkpt>
      <trkpt lat="45.33419" lon="6.33135">
        <ele>1343</ele>
        <time>2012-10-30T10:06:57Z</time>
      </trkpt>
      <trkpt lat="45.33421" lon="6.33131">
        <ele>1344</ele>
        <time>2012-10-30T10:07:00Z</time>
      </trkpt>
      <trkpt lat="45.33422" lon="6.33128">
        <ele>1344</ele>
        <time>2012-10-30T10:07:02Z</time>
      </trkpt>
      <trkpt lat="45.33424" lon="6.33125">
        <ele>1344</ele>
        <time>2012-10-30T10:07:04Z</time>
      </trkpt>
      <trkpt lat="45.33425" lon="6.33121">
        <ele>1344</ele>
        <time>2012-10-30T10:07:06Z</time>
      </trkpt>
      <trkpt lat="45.33426" lon="6.33118">
        <ele>1345</ele>
        <time>2012-10-30T10:07:08Z</time>
      </trkpt>
      <trkpt lat="45.33428" lon="6.33114">
        <ele>1345</ele>
        <time>2012-10-30T10:07:10Z</time>
      </trkpt>
      <trkpt lat="45.33429" lon="6.3311">
        <ele>1345</ele>
        <time>2012-10-30T10:07:12Z</time>
      </trkpt>
      <trkpt lat="45.33431" lon="6.33107">
        <ele>1346</ele>
        <time>2012-10-30T10:07:14Z</time>
      </trkpt>
      <trkpt lat="45.33432" lon="6.33104">
        <ele>1346</ele>
        <time>2012-10-30T10:07:16Z</time>
      </trkpt>
      <trkpt lat="45.33434" lon="6.331">
        <ele>1347</ele>
        <time>2012-10-30T10:07:18Z</time>
      </trkpt>
      <trkpt lat="45.33436" lon="6.33098">
        <ele>1347</ele>
        <time>2012-10-30T10:07:20Z</time>
      </trkpt>
      <trkpt lat="45.33438" lon="6.33095">
        <ele>1347</ele>
        <time>2012-10-30T10:07:22Z</time>
      </trkpt>
      <trkpt lat="45.3344" lon="6.33092">
        <ele>1347</ele>
        <time>2012-10-30T10:07:24Z</time>
      </trkpt>
      <trkpt lat="45.33442" lon="6.33089">
        <ele>1348</ele>
        <time>2012-10-30T10:07:26Z</time>
      </trkpt>
      <trkpt lat="45.33445" lon="6.33085">
        <ele>1348</ele>
        <time>2012-10-30T10:07:29Z</time>
      </trkpt>
      <trkpt lat="45.33447" lon="6.33082">
        <ele>1348</ele>
        <time>2012-10-30T10:07:31Z</time>
      </trkpt>
      <trkpt lat="45.33449" lon="6.3308">
        <ele>1349</ele>
        <time>2012-10-30T10:07:33Z</time>
      </trkpt>
      <trkpt lat="45.3345" lon="6.33078">
        <ele>1349</ele>
        <time>2012-10-30T10:07:35Z</time>
      </trkpt>
      <trkpt lat="45.33452" lon="6.33075">
        <ele>1349</ele>
        <time>2012-10-30T10:07:37Z</time>
      </trkpt>
      <trkpt lat="45.33453" lon="6.33072">
        <ele>1350</ele>
        <time>2012-10-30T10:07:39Z</time>
      </trkpt>
      <trkpt lat="45.33455" lon="6.33069">
        <ele>1350</ele>
        <time>2012-10-30T10:07:41Z</time>
      </trkpt>
      <trkpt lat="45.33456" lon="6.33066">
        <ele>1350</ele>
        <time>2012-10-30T10:07:43Z</time>
      </trkpt>
      <trkpt lat="45.33458" lon="6.33064">
        <ele>1350</ele>
        <time>2012-10-30T10:07:45Z</time>
      </trkpt>
      <trkpt lat="45.33459" lon="6.33061">
        <ele>1350</ele>
        <time>2012-10-30T10:07:47Z</time>
      </trkpt>
      <trkpt lat="45.3346" lon="6.33059">
        <ele>1350</ele>
        <time>2012-10-30T10:07:50Z</time>
      </trkpt>
      <trkpt lat="45.3346" lon="6.33056">
        <ele>1350</ele>
        <time>2012-10-30T10:07:52Z</time>
      </trkpt>
      <trkpt lat="45.3346" lon="6.33054">
        <ele>1351</ele>
        <time>2012-10-30T10:07:54Z</time>
      </trkpt>
      <trkpt lat="45.33461" lon="6.33051">
        <ele>1351</ele>
        <time>2012-10-30T10:07:56Z</time>
      </trkpt>
      <trkpt lat="45.33462" lon="6.3305">
        <ele>1352</ele>
        <time>2012-10-30T10:07:58Z</time>
      </trkpt>
      <trkpt lat="45.33463" lon="6.33047">
        <ele>1352</ele>
        <time>2012-10-30T10:08:00Z</time>
      </trkpt>
      <trkpt lat="45.33463" lon="6.33044">
        <ele>1352</ele>
        <time>2012-10-30T10:08:02Z</time>
      </trkpt>
      <trkpt lat="45.33464" lon="6.33041">
        <ele>1352</ele>
        <time>2012-10-30T10:08:04Z</time>
      </trkpt>
      <trkpt lat="45.33464" lon="6.33037">
        <ele>1353</ele>
        <time>2012-10-30T10:08:06Z</time>
      </trkpt>
      <trkpt lat="45.33465" lon="6.33034">
        <ele>1353</ele>
        <time>2012-10-30T10:08:08Z</time>
      </trkpt>
      <trkpt lat="45.33466" lon="6.33029">
        <ele>1354</ele>
        <time>2012-10-30T10:08:10Z</time>
      </trkpt>
      <trkpt lat="45.33467" lon="6.33025">
        <ele>1354</ele>
        <time>2012-10-30T10:08:12Z</time>
      </trkpt>
      <trkpt lat="45.33468" lon="6.33022">
        <ele>1355</ele>
        <time>2012-10-30T10:08:14Z</time>
      </trkpt>
      <trkpt lat="45.33469" lon="6.33019">
        <ele>1355</ele>
        <time>2012-10-30T10:08:17Z</time>
      </trkpt>
      <trkpt lat="45.3347" lon="6.33016">
        <ele>1356</ele>
        <time>2012-10-30T10:08:19Z</time>
      </trkpt>
      <trkpt lat="45.33471" lon="6.33013">
        <ele>1357</ele>
        <time>2012-10-30T10:08:21Z</time>
      </trkpt>
      <trkpt lat="45.33471" lon="6.3301">
        <ele>1357</ele>
        <time>2012-10-30T10:08:23Z</time>
      </trkpt>
      <trkpt lat="45.33472" lon="6.33007">
        <ele>1358</ele>
        <time>2012-10-30T10:08:25Z</time>
      </trkpt>
      <trkpt lat="45.33472" lon="6.33003">
        <ele>1358</ele>
        <time>2012-10-30T10:08:27Z</time>
      </trkpt>
      <trkpt lat="45.33473" lon="6.33001">
        <ele>1359</ele>
        <time>2012-10-30T10:08:29Z</time>
      </trkpt>
      <trkpt lat="45.33474" lon="6.32999">
        <ele>1359</ele>
        <time>2012-10-30T10:08:31Z</time>
      </trkpt>
      <trkpt lat="45.33476" lon="6.32998">
        <ele>1360</ele>
        <time>2012-10-30T10:08:33Z</time>
      </trkpt>
      <trkpt lat="45.33479" lon="6.32995">
        <ele>1360</ele>
        <time>2012-10-30T10:08:35Z</time>
      </trkpt>
      <trkpt lat="45.3348" lon="6.32993">
        <ele>1360</ele>
        <time>2012-10-30T10:08:37Z</time>
      </trkpt>
      <trkpt lat="45.33482" lon="6.32991">
        <ele>1361</ele>
        <time>2012-10-30T10:08:39Z</time>
      </trkpt>
      <trkpt lat="45.33484" lon="6.32989">
        <ele>1361</ele>
        <time>2012-10-30T10:08:41Z</time>
      </trkpt>
      <trkpt lat="45.33485" lon="6.32987">
        <ele>1361</ele>
        <time>2012-10-30T10:08:44Z</time>
      </trkpt>
      <trkpt lat="45.33487" lon="6.32987">
        <ele>1361</ele>
        <time>2012-10-30T10:08:46Z</time>
      </trkpt>
      <trkpt lat="45.33488" lon="6.32985">
        <ele>1362</ele>
        <time>2012-10-30T10:08:48Z</time>
      </trkpt>
      <trkpt lat="45.33491" lon="6.32984">
        <ele>1362</ele>
        <time>2012-10-30T10:08:50Z</time>
      </trkpt>
      <trkpt lat="45.33493" lon="6.32982">
        <ele>1363</ele>
        <time>2012-10-30T10:08:52Z</time>
      </trkpt>
      <trkpt lat="45.33495" lon="6.3298">
        <ele>1363</ele>
        <time>2012-10-30T10:08:54Z</time>
      </trkpt>
      <trkpt lat="45.33498" lon="6.32978">
        <ele>1364</ele>
        <time>2012-10-30T10:08:56Z</time>
      </trkpt>
      <trkpt lat="45.335" lon="6.32976">
        <ele>1364</ele>
        <time>2012-10-30T10:08:58Z</time>
      </trkpt>
      <trkpt lat="45.33502" lon="6.32974">
        <ele>1365</ele>
        <time>2012-10-30T10:09:00Z</time>
      </trkpt>
      <trkpt lat="45.33505" lon="6.32972">
        <ele>1365</ele>
        <time>2012-10-30T10:09:02Z</time>
      </trkpt>
      <trkpt lat="45.33509" lon="6.32969">
        <ele>1366</ele>
        <time>2012-10-30T10:09:04Z</time>
      </trkpt>
      <trkpt lat="45.33511" lon="6.32966">
        <ele>1366</ele>
        <time>2012-10-30T10:09:06Z</time>
      </trkpt>
      <trkpt lat="45.33513" lon="6.32964">
        <ele>1367</ele>
        <time>2012-10-30T10:09:08Z</time>
      </trkpt>
      <trkpt lat="45.33515" lon="6.32962">
        <ele>1367</ele>
        <time>2012-10-30T10:09:10Z</time>
      </trkpt>
      <trkpt lat="45.33517" lon="6.3296">
        <ele>1367</ele>
        <time>2012-10-30T10:09:13Z</time>
      </trkpt>
      <trkpt lat="45.33519" lon="6.32958">
        <ele>1367</ele>
        <time>2012-10-30T10:09:15Z</time>
      </trkpt>
      <trkpt lat="45.33521" lon="6.32956">
        <ele>1368</ele>
        <time>2012-10-30T10:09:17Z</time>
      </trkpt>
      <trkpt lat="45.33523" lon="6.32955">
        <ele>1368</ele>
        <time>2012-10-30T10:09:19Z</time>
      </trkpt>
      <trkpt lat="45.33525" lon="6.32952">
        <ele>1368</ele>
        <time>2012-10-30T10:09:21Z</time>
      </trkpt>
      <trkpt lat="45.33527" lon="6.32951">
        <ele>1368</ele>
        <time>2012-10-30T10:09:23Z</time>
      </trkpt>
      <trkpt lat="45.33529" lon="6.32949">
        <ele>1369</ele>
        <time>2012-10-30T10:09:25Z</time>
      </trkpt>
      <trkpt lat="45.3353" lon="6.32946">
        <ele>1369</ele>
        <time>2012-10-30T10:09:27Z</time>
      </trkpt>
      <trkpt lat="45.33531" lon="6.32943">
        <ele>1369</ele>
        <time>2012-10-30T10:09:29Z</time>
      </trkpt>
      <trkpt lat="45.33533" lon="6.3294">
        <ele>1369</ele>
        <time>2012-10-30T10:09:31Z</time>
      </trkpt>
      <trkpt lat="45.33534" lon="6.32937">
        <ele>1369</ele>
        <time>2012-10-30T10:09:33Z</time>
      </trkpt>
      <trkpt lat="45.33534" lon="6.32933">
        <ele>1369</ele>
        <time>2012-10-30T10:09:35Z</time>
      </trkpt>
      <trkpt lat="45.33534" lon="6.3293">
        <ele>1370</ele>
        <time>2012-10-30T10:09:37Z</time>
      </trkpt>
      <trkpt lat="45.33532" lon="6.32926">
        <ele>1370</ele>
        <time>2012-10-30T10:09:39Z</time>
      </trkpt>
      <trkpt lat="45.3353" lon="6.32921">
        <ele>1370</ele>
        <time>2012-10-30T10:09:41Z</time>
      </trkpt>
      <trkpt lat="45.33529" lon="6.32917">
        <ele>1370</ele>
        <time>2012-10-30T10:09:43Z</time>
      </trkpt>
      <trkpt lat="45.33527" lon="6.32914">
        <ele>1370</ele>
        <time>2012-10-30T10:09:45Z</time>
      </trkpt>
      <trkpt lat="45.33525" lon="6.32911">
        <ele>1370</ele>
        <time>2012-10-30T10:09:48Z</time>
      </trkpt>
      <trkpt lat="45.33524" lon="6.32908">
        <ele>1370</ele>
        <time>2012-10-30T10:09:50Z</time>
      </trkpt>
      <trkpt lat="45.33522" lon="6.32905">
        <ele>1370</ele>
        <time>2012-10-30T10:09:52Z</time>
      </trkpt>
      <trkpt lat="45.33521" lon="6.32902">
        <ele>1371</ele>
        <time>2012-10-30T10:09:54Z</time>
      </trkpt>
      <trkpt lat="45.33519" lon="6.32899">
        <ele>1371</ele>
        <time>2012-10-30T10:09:56Z</time>
      </trkpt>
      <trkpt lat="45.33517" lon="6.32897">
        <ele>1371</ele>
        <time>2012-10-30T10:09:58Z</time>
      </trkpt>
      <trkpt lat="45.33516" lon="6.32894">
        <ele>1372</ele>
        <time>2012-10-30T10:10:00Z</time>
      </trkpt>
      <trkpt lat="45.33514" lon="6.3289">
        <ele>1372</ele>
        <time>2012-10-30T10:10:02Z</time>
      </trkpt>
      <trkpt lat="45.33512" lon="6.32887">
        <ele>1372</ele>
        <time>2012-10-30T10:10:04Z</time>
      </trkpt>
      <trkpt lat="45.33509" lon="6.32882">
        <ele>1372</ele>
        <time>2012-10-30T10:10:06Z</time>
      </trkpt>
      <trkpt lat="45.33506" lon="6.32878">
        <ele>1372</ele>
        <time>2012-10-30T10:10:09Z</time>
      </trkpt>
      <trkpt lat="45.33504" lon="6.32875">
        <ele>1372</ele>
        <time>2012-10-30T10:10:11Z</time>
      </trkpt>
      <trkpt lat="45.33502" lon="6.32872">
        <ele>1373</ele>
        <time>2012-10-30T10:10:13Z</time>
      </trkpt>
      <trkpt lat="45.335" lon="6.32868">
        <ele>1373</ele>
        <time>2012-10-30T10:10:15Z</time>
      </trkpt>
      <trkpt lat="45.33498" lon="6.32865">
        <ele>1373</ele>
        <time>2012-10-30T10:10:17Z</time>
      </trkpt>
      <trkpt lat="45.33495" lon="6.32863">
        <ele>1373</ele>
        <time>2012-10-30T10:10:19Z</time>
      </trkpt>
      <trkpt lat="45.33493" lon="6.3286">
        <ele>1374</ele>
        <time>2012-10-30T10:10:21Z</time>
      </trkpt>
      <trkpt lat="45.33489" lon="6.32855">
        <ele>1374</ele>
        <time>2012-10-30T10:10:23Z</time>
      </trkpt>
      <trkpt lat="45.33487" lon="6.32852">
        <ele>1374</ele>
        <time>2012-10-30T10:10:25Z</time>
      </trkpt>
      <trkpt lat="45.33485" lon="6.32849">
        <ele>1374</ele>
        <time>2012-10-30T10:10:28Z</time>
      </trkpt>
      <trkpt lat="45.33484" lon="6.32845">
        <ele>1374</ele>
        <time>2012-10-30T10:10:30Z</time>
      </trkpt>
      <trkpt lat="45.33483" lon="6.32841">
        <ele>1375</ele>
        <time>2012-10-30T10:10:32Z</time>
      </trkpt>
      <trkpt lat="45.33481" lon="6.32836">
        <ele>1375</ele>
        <time>2012-10-30T10:10:34Z</time>
      </trkpt>
      <trkpt lat="45.33479" lon="6.32832">
        <ele>1375</ele>
        <time>2012-10-30T10:10:36Z</time>
      </trkpt>
      <trkpt lat="45.33477" lon="6.32828">
        <ele>1376</ele>
        <time>2012-10-30T10:10:38Z</time>
      </trkpt>
      <trkpt lat="45.33475" lon="6.32825">
        <ele>1376</ele>
        <time>2012-10-30T10:10:40Z</time>
      </trkpt>
      <trkpt lat="45.33471" lon="6.3282">
        <ele>1376</ele>
        <time>2012-10-30T10:10:42Z</time>
      </trkpt>
      <trkpt lat="45.33469" lon="6.32816">
        <ele>1377</ele>
        <time>2012-10-30T10:10:44Z</time>
      </trkpt>
      <trkpt lat="45.33467" lon="6.32813">
        <ele>1377</ele>
        <time>2012-10-30T10:10:46Z</time>
      </trkpt>
      <trkpt lat="45.33465" lon="6.32808">
        <ele>1378</ele>
        <time>2012-10-30T10:10:48Z</time>
      </trkpt>
      <trkpt lat="45.33464" lon="6.32804">
        <ele>1378</ele>
        <time>2012-10-30T10:10:51Z</time>
      </trkpt>
      <trkpt lat="45.33463" lon="6.328">
        <ele>1378</ele>
        <time>2012-10-30T10:10:53Z</time>
      </trkpt>
      <trkpt lat="45.33462" lon="6.32795">
        <ele>1378</ele>
        <time>2012-10-30T10:10:55Z</time>
      </trkpt>
      <trkpt lat="45.33463" lon="6.32789">
        <ele>1378</ele>
        <time>2012-10-30T10:10:57Z</time>
      </trkpt>
      <trkpt lat="45.33465" lon="6.32781">
        <ele>1378</ele>
        <time>2012-10-30T10:10:59Z</time>
      </trkpt>
      <trkpt lat="45.33466" lon="6.3277">
        <ele>1376</ele>
        <time>2012-10-30T10:11:01Z</time>
      </trkpt>
      <trkpt lat="45.33468" lon="6.32754">
        <ele>1375</ele>
        <time>2012-10-30T10:11:03Z</time>
      </trkpt>
      <trkpt lat="45.33469" lon="6.32746">
        <ele>1375</ele>
        <time>2012-10-30T10:11:05Z</time>
      </trkpt>
      <trkpt lat="45.3347" lon="6.32739">
        <ele>1375</ele>
        <time>2012-10-30T10:11:07Z</time>
      </trkpt>
      <trkpt lat="45.33471" lon="6.32735">
        <ele>1375</ele>
        <time>2012-10-30T10:11:09Z</time>
      </trkpt>
      <trkpt lat="45.33471" lon="6.32729">
        <ele>1376</ele>
        <time>2012-10-30T10:11:11Z</time>
      </trkpt>
      <trkpt lat="45.33471" lon="6.32723">
        <ele>1375</ele>
        <time>2012-10-30T10:11:14Z</time>
      </trkpt>
      <trkpt lat="45.33471" lon="6.32716">
        <ele>1375</ele>
        <time>2012-10-30T10:11:16Z</time>
      </trkpt>
      <trkpt lat="45.3347" lon="6.3271">
        <ele>1375</ele>
        <time>2012-10-30T10:11:18Z</time>
      </trkpt>
      <trkpt lat="45.33471" lon="6.32703">
        <ele>1375</ele>
        <time>2012-10-30T10:11:20Z</time>
      </trkpt>
      <trkpt lat="45.33471" lon="6.32697">
        <ele>1375</ele>
        <time>2012-10-30T10:11:22Z</time>
      </trkpt>
      <trkpt lat="45.33471" lon="6.32691">
        <ele>1376</ele>
        <time>2012-10-30T10:11:24Z</time>
      </trkpt>
      <trkpt lat="45.33471" lon="6.32684">
        <ele>1376</ele>
        <time>2012-10-30T10:11:26Z</time>
      </trkpt>
      <trkpt lat="45.33472" lon="6.32677">
        <ele>1376</ele>
        <time>2012-10-30T10:11:28Z</time>
      </trkpt>
      <trkpt lat="45.33473" lon="6.3267">
        <ele>1376</ele>
        <time>2012-10-30T10:11:30Z</time>
      </trkpt>
      <trkpt lat="45.33474" lon="6.32659">
        <ele>1376</ele>
        <time>2012-10-30T10:11:32Z</time>
      </trkpt>
      <trkpt lat="45.33475" lon="6.32653">
        <ele>1376</ele>
        <time>2012-10-30T10:11:34Z</time>
      </trkpt>
      <trkpt lat="45.33477" lon="6.32646">
        <ele>1377</ele>
        <time>2012-10-30T10:11:36Z</time>
      </trkpt>
      <trkpt lat="45.33479" lon="6.3264">
        <ele>1377</ele>
        <time>2012-10-30T10:11:38Z</time>
      </trkpt>
      <trkpt lat="45.33482" lon="6.32634">
        <ele>1376</ele>
        <time>2012-10-30T10:11:40Z</time>
      </trkpt>
      <trkpt lat="45.33484" lon="6.32628">
        <ele>1376</ele>
        <time>2012-10-30T10:11:42Z</time>
      </trkpt>
      <trkpt lat="45.33487" lon="6.32623">
        <ele>1376</ele>
        <time>2012-10-30T10:11:45Z</time>
      </trkpt>
      <trkpt lat="45.33489" lon="6.32619">
        <ele>1376</ele>
        <time>2012-10-30T10:11:47Z</time>
      </trkpt>
      <trkpt lat="45.33492" lon="6.32616">
        <ele>1376</ele>
        <time>2012-10-30T10:11:49Z</time>
      </trkpt>
      <trkpt lat="45.33495" lon="6.32614">
        <ele>1376</ele>
        <time>2012-10-30T10:11:51Z</time>
      </trkpt>
      <trkpt lat="45.33497" lon="6.32613">
        <ele>1377</ele>
        <time>2012-10-30T10:11:53Z</time>
      </trkpt>
      <trkpt lat="45.335" lon="6.3261">
        <ele>1377</ele>
        <time>2012-10-30T10:11:55Z</time>
      </trkpt>
      <trkpt lat="45.33504" lon="6.32608">
        <ele>1378</ele>
        <time>2012-10-30T10:11:57Z</time>
      </trkpt>
      <trkpt lat="45.33507" lon="6.32605">
        <ele>1378</ele>
        <time>2012-10-30T10:11:59Z</time>
      </trkpt>
      <trkpt lat="45.33507" lon="6.32603">
        <ele>1378</ele>
        <time>2012-10-30T10:12:01Z</time>
      </trkpt>
      <trkpt lat="45.33509" lon="6.32601">
        <ele>1378</ele>
        <time>2012-10-30T10:12:03Z</time>
      </trkpt>
      <trkpt lat="45.33512" lon="6.32598">
        <ele>1379</ele>
        <time>2012-10-30T10:12:05Z</time>
      </trkpt>
      <trkpt lat="45.33515" lon="6.32594">
        <ele>1379</ele>
        <time>2012-10-30T10:12:07Z</time>
      </trkpt>
      <trkpt lat="45.33517" lon="6.32592">
        <ele>1379</ele>
        <time>2012-10-30T10:12:09Z</time>
      </trkpt>
      <trkpt lat="45.3352" lon="6.3259">
        <ele>1379</ele>
        <time>2012-10-30T10:12:12Z</time>
      </trkpt>
      <trkpt lat="45.33522" lon="6.32587">
        <ele>1380</ele>
        <time>2012-10-30T10:12:14Z</time>
      </trkpt>
      <trkpt lat="45.33524" lon="6.32584">
        <ele>1380</ele>
        <time>2012-10-30T10:12:16Z</time>
      </trkpt>
      <trkpt lat="45.33527" lon="6.32582">
        <ele>1380</ele>
        <time>2012-10-30T10:12:18Z</time>
      </trkpt>
      <trkpt lat="45.3353" lon="6.3258">
        <ele>1380</ele>
        <time>2012-10-30T10:12:20Z</time>
      </trkpt>
      <trkpt lat="45.33532" lon="6.32579">
        <ele>1380</ele>
        <time>2012-10-30T10:12:22Z</time>
      </trkpt>
      <trkpt lat="45.33534" lon="6.32578">
        <ele>1381</ele>
        <time>2012-10-30T10:12:24Z</time>
      </trkpt>
      <trkpt lat="45.33533" lon="6.32577">
        <ele>1381</ele>
        <time>2012-10-30T10:12:27Z</time>
      </trkpt>
      <trkpt lat="45.33534" lon="6.32577">
        <ele>1381</ele>
        <time>2012-10-30T10:12:29Z</time>
      </trkpt>
      <trkpt lat="45.33535" lon="6.32576">
        <ele>1382</ele>
        <time>2012-10-30T10:12:31Z</time>
      </trkpt>
      <trkpt lat="45.33535" lon="6.32575">
        <ele>1382</ele>
        <time>2012-10-30T10:12:33Z</time>
      </trkpt>
      <trkpt lat="45.33537" lon="6.32573">
        <ele>1383</ele>
        <time>2012-10-30T10:12:35Z</time>
      </trkpt>
      <trkpt lat="45.33538" lon="6.32572">
        <ele>1383</ele>
        <time>2012-10-30T10:12:37Z</time>
      </trkpt>
      <trkpt lat="45.33538" lon="6.32572">
        <ele>1383</ele>
        <time>2012-10-30T10:12:39Z</time>
      </trkpt>
      <trkpt lat="45.3354" lon="6.32572">
        <ele>1383</ele>
        <time>2012-10-30T10:12:41Z</time>
      </trkpt>
      <trkpt lat="45.33541" lon="6.3257">
        <ele>1383</ele>
        <time>2012-10-30T10:12:43Z</time>
      </trkpt>
      <trkpt lat="45.33543" lon="6.32569">
        <ele>1383</ele>
        <time>2012-10-30T10:12:45Z</time>
      </trkpt>
      <trkpt lat="45.33545" lon="6.32566">
        <ele>1383</ele>
        <time>2012-10-30T10:12:47Z</time>
      </trkpt>
      <trkpt lat="45.33546" lon="6.32564">
        <ele>1383</ele>
        <time>2012-10-30T10:12:49Z</time>
      </trkpt>
      <trkpt lat="45.33548" lon="6.32563">
        <ele>1383</ele>
        <time>2012-10-30T10:12:51Z</time>
      </trkpt>
      <trkpt lat="45.3355" lon="6.32562">
        <ele>1384</ele>
        <time>2012-10-30T10:12:54Z</time>
      </trkpt>
      <trkpt lat="45.33551" lon="6.3256">
        <ele>1384</ele>
        <time>2012-10-30T10:12:56Z</time>
      </trkpt>
      <trkpt lat="45.33552" lon="6.32558">
        <ele>1384</ele>
        <time>2012-10-30T10:12:58Z</time>
      </trkpt>
      <trkpt lat="45.33553" lon="6.32558">
        <ele>1385</ele>
        <time>2012-10-30T10:13:00Z</time>
      </trkpt>
      <trkpt lat="45.33555" lon="6.32557">
        <ele>1385</ele>
        <time>2012-10-30T10:13:02Z</time>
      </trkpt>
      <trkpt lat="45.33556" lon="6.32557">
        <ele>1386</ele>
        <time>2012-10-30T10:13:04Z</time>
      </trkpt>
      <trkpt lat="45.33558" lon="6.32558">
        <ele>1386</ele>
        <time>2012-10-30T10:13:06Z</time>
      </trkpt>
      <trkpt lat="45.33559" lon="6.32558">
        <ele>1386</ele>
        <time>2012-10-30T10:13:08Z</time>
      </trkpt>
      <trkpt lat="45.33561" lon="6.32558">
        <ele>1386</ele>
        <time>2012-10-30T10:13:10Z</time>
      </trkpt>
      <trkpt lat="45.33563" lon="6.32557">
        <ele>1386</ele>
        <time>2012-10-30T10:13:12Z</time>
      </trkpt>
      <trkpt lat="45.33566" lon="6.32557">
        <ele>1387</ele>
        <time>2012-10-30T10:13:14Z</time>
      </trkpt>
      <trkpt lat="45.33569" lon="6.32556">
        <ele>1387</ele>
        <time>2012-10-30T10:13:16Z</time>
      </trkpt>
      <trkpt lat="45.33572" lon="6.32555">
        <ele>1388</ele>
        <time>2012-10-30T10:13:18Z</time>
      </trkpt>
      <trkpt lat="45.33574" lon="6.32555">
        <ele>1388</ele>
        <time>2012-10-30T10:13:21Z</time>
      </trkpt>
      <trkpt lat="45.33576" lon="6.32554">
        <ele>1388</ele>
        <time>2012-10-30T10:13:23Z</time>
      </trkpt>
      <trkpt lat="45.33579" lon="6.32554">
        <ele>1388</ele>
        <time>2012-10-30T10:13:25Z</time>
      </trkpt>
      <trkpt lat="45.33582" lon="6.32554">
        <ele>1389</ele>
        <time>2012-10-30T10:13:27Z</time>
      </trkpt>
      <trkpt lat="45.33584" lon="6.32554">
        <ele>1389</ele>
        <time>2012-10-30T10:13:29Z</time>
      </trkpt>
      <trkpt lat="45.33585" lon="6.32553">
        <ele>1390</ele>
        <time>2012-10-30T10:13:31Z</time>
      </trkpt>
      <trkpt lat="45.33587" lon="6.32552">
        <ele>1390</ele>
        <time>2012-10-30T10:13:33Z</time>
      </trkpt>
      <trkpt lat="45.33588" lon="6.3255">
        <ele>1390</ele>
        <time>2012-10-30T10:13:35Z</time>
      </trkpt>
      <trkpt lat="45.3359" lon="6.32549">
        <ele>1390</ele>
        <time>2012-10-30T10:13:38Z</time>
      </trkpt>
      <trkpt lat="45.33591" lon="6.32547">
        <ele>1391</ele>
        <time>2012-10-30T10:13:40Z</time>
      </trkpt>
      <trkpt lat="45.33593" lon="6.32545">
        <ele>1391</ele>
        <time>2012-10-30T10:13:42Z</time>
      </trkpt>
      <trkpt lat="45.33596" lon="6.32543">
        <ele>1392</ele>
        <time>2012-10-30T10:13:44Z</time>
      </trkpt>
      <trkpt lat="45.33598" lon="6.32542">
        <ele>1392</ele>
        <time>2012-10-30T10:13:46Z</time>
      </trkpt>
      <trkpt lat="45.336" lon="6.32541">
        <ele>1392</ele>
        <time>2012-10-30T10:13:48Z</time>
      </trkpt>
      <trkpt lat="45.33603" lon="6.32539">
        <ele>1392</ele>
        <time>2012-10-30T10:13:50Z</time>
      </trkpt>
      <trkpt lat="45.33605" lon="6.32539">
        <ele>1392</ele>
        <time>2012-10-30T10:13:52Z</time>
      </trkpt>
      <trkpt lat="45.33607" lon="6.32538">
        <ele>1393</ele>
        <time>2012-10-30T10:13:54Z</time>
      </trkpt>
      <trkpt lat="45.33609" lon="6.32537">
        <ele>1393</ele>
        <time>2012-10-30T10:13:56Z</time>
      </trkpt>
      <trkpt lat="45.3361" lon="6.32536">
        <ele>1393</ele>
        <time>2012-10-30T10:13:58Z</time>
      </trkpt>
      <trkpt lat="45.33612" lon="6.32536">
        <ele>1393</ele>
        <time>2012-10-30T10:14:01Z</time>
      </trkpt>
      <trkpt lat="45.33615" lon="6.32536">
        <ele>1393</ele>
        <time>2012-10-30T10:14:03Z</time>
      </trkpt>
      <trkpt lat="45.33617" lon="6.32536">
        <ele>1393</ele>
        <time>2012-10-30T10:14:05Z</time>
      </trkpt>
      <trkpt lat="45.3362" lon="6.32535">
        <ele>1393</ele>
        <time>2012-10-30T10:14:07Z</time>
      </trkpt>
      <trkpt lat="45.33625" lon="6.32536">
        <ele>1393</ele>
        <time>2012-10-30T10:14:09Z</time>
      </trkpt>
      <trkpt lat="45.33628" lon="6.32537">
        <ele>1393</ele>
        <time>2012-10-30T10:14:11Z</time>
      </trkpt>
      <trkpt lat="45.33631" lon="6.32537">
        <ele>1393</ele>
        <time>2012-10-30T10:14:13Z</time>
      </trkpt>
      <trkpt lat="45.33635" lon="6.32538">
        <ele>1393</ele>
        <time>2012-10-30T10:14:16Z</time>
      </trkpt>
      <trkpt lat="45.33638" lon="6.32537">
        <ele>1393</ele>
        <time>2012-10-30T10:14:18Z</time>
      </trkpt>
      <trkpt lat="45.33641" lon="6.32536">
        <ele>1393</ele>
        <time>2012-10-30T10:14:20Z</time>
      </trkpt>
      <trkpt lat="45.33644" lon="6.32535">
        <ele>1393</ele>
        <time>2012-10-30T10:14:22Z</time>
      </trkpt>
      <trkpt lat="45.33647" lon="6.32532">
        <ele>1392</ele>
        <time>2012-10-30T10:14:24Z</time>
      </trkpt>
      <trkpt lat="45.3365" lon="6.32531">
        <ele>1391</ele>
        <time>2012-10-30T10:14:26Z</time>
      </trkpt>
      <trkpt lat="45.33654" lon="6.32531">
        <ele>1391</ele>
        <time>2012-10-30T10:14:28Z</time>
      </trkpt>
      <trkpt lat="45.33658" lon="6.32531">
        <ele>1391</ele>
        <time>2012-10-30T10:14:31Z</time>
      </trkpt>
      <trkpt lat="45.33659" lon="6.32531">
        <ele>1390</ele>
        <time>2012-10-30T10:14:33Z</time>
      </trkpt>
      <trkpt lat="45.33659" lon="6.32532">
        <ele>1391</ele>
        <time>2012-10-30T10:14:35Z</time>
      </trkpt>
      <trkpt lat="45.33662" lon="6.32532">
        <ele>1391</ele>
        <time>2012-10-30T10:14:37Z</time>
      </trkpt>
      <trkpt lat="45.33664" lon="6.32532">
        <ele>1391</ele>
        <time>2012-10-30T10:14:39Z</time>
      </trkpt>
      <trkpt lat="45.33666" lon="6.32532">
        <ele>1391</ele>
        <time>2012-10-30T10:14:41Z</time>
      </trkpt>
      <trkpt lat="45.33668" lon="6.32531">
        <ele>1391</ele>
        <time>2012-10-30T10:14:44Z</time>
      </trkpt>
      <trkpt lat="45.3367" lon="6.3253">
        <ele>1391</ele>
        <time>2012-10-30T10:14:46Z</time>
      </trkpt>
      <trkpt lat="45.33673" lon="6.32529">
        <ele>1391</ele>
        <time>2012-10-30T10:14:48Z</time>
      </trkpt>
      <trkpt lat="45.33675" lon="6.32527">
        <ele>1390</ele>
        <time>2012-10-30T10:14:50Z</time>
      </trkpt>
      <trkpt lat="45.33676" lon="6.32526">
        <ele>1390</ele>
        <time>2012-10-30T10:14:52Z</time>
      </trkpt>
      <trkpt lat="45.33677" lon="6.32526">
        <ele>1390</ele>
        <time>2012-10-30T10:14:54Z</time>
      </trkpt>
      <trkpt lat="45.33681" lon="6.32524">
        <ele>1389</ele>
        <time>2012-10-30T10:14:56Z</time>
      </trkpt>
      <trkpt lat="45.33682" lon="6.32523">
        <ele>1389</ele>
        <time>2012-10-30T10:14:58Z</time>
      </trkpt>
      <trkpt lat="45.33682" lon="6.32522">
        <ele>1389</ele>
        <time>2012-10-30T10:15:00Z</time>
      </trkpt>
      <trkpt lat="45.33683" lon="6.32522">
        <ele>1390</ele>
        <time>2012-10-30T10:15:02Z</time>
      </trkpt>
      <trkpt lat="45.33684" lon="6.32521">
        <ele>1390</ele>
        <time>2012-10-30T10:15:04Z</time>
      </trkpt>
      <trkpt lat="45.33684" lon="6.3252">
        <ele>1390</ele>
        <time>2012-10-30T10:15:07Z</time>
      </trkpt>
      <trkpt lat="45.33686" lon="6.32519">
        <ele>1391</ele>
        <time>2012-10-30T10:15:09Z</time>
      </trkpt>
      <trkpt lat="45.33687" lon="6.3252">
        <ele>1391</ele>
        <time>2012-10-30T10:15:11Z</time>
      </trkpt>
      <trkpt lat="45.33688" lon="6.3252">
        <ele>1391</ele>
        <time>2012-10-30T10:15:13Z</time>
      </trkpt>
      <trkpt lat="45.33691" lon="6.32521">
        <ele>1392</ele>
        <time>2012-10-30T10:15:15Z</time>
      </trkpt>
      <trkpt lat="45.33694" lon="6.32522">
        <ele>1392</ele>
        <time>2012-10-30T10:15:17Z</time>
      </trkpt>
      <trkpt lat="45.33696" lon="6.32523">
        <ele>1392</ele>
        <time>2012-10-30T10:15:19Z</time>
      </trkpt>
      <trkpt lat="45.33697" lon="6.32524">
        <ele>1392</ele>
        <time>2012-10-30T10:15:21Z</time>
      </trkpt>
      <trkpt lat="45.33699" lon="6.32525">
        <ele>1393</ele>
        <time>2012-10-30T10:15:23Z</time>
      </trkpt>
      <trkpt lat="45.33699" lon="6.32525">
        <ele>1393</ele>
        <time>2012-10-30T10:15:25Z</time>
      </trkpt>
      <trkpt lat="45.33699" lon="6.32526">
        <ele>1393</ele>
        <time>2012-10-30T10:15:27Z</time>
      </trkpt>
      <trkpt lat="45.337" lon="6.32526">
        <ele>1394</ele>
        <time>2012-10-30T10:15:29Z</time>
      </trkpt>
      <trkpt lat="45.33701" lon="6.32527">
        <ele>1394</ele>
        <time>2012-10-30T10:15:31Z</time>
      </trkpt>
      <trkpt lat="45.33702" lon="6.32526">
        <ele>1394</ele>
        <time>2012-10-30T10:15:33Z</time>
      </trkpt>
      <trkpt lat="45.33703" lon="6.32527">
        <ele>1394</ele>
        <time>2012-10-30T10:15:35Z</time>
      </trkpt>
      <trkpt lat="45.33704" lon="6.32527">
        <ele>1394</ele>
        <time>2012-10-30T10:15:37Z</time>
      </trkpt>
      <trkpt lat="45.33705" lon="6.32528">
        <ele>1395</ele>
        <time>2012-10-30T10:15:39Z</time>
      </trkpt>
      <trkpt lat="45.33707" lon="6.32528">
        <ele>1395</ele>
        <time>2012-10-30T10:15:41Z</time>
      </trkpt>
      <trkpt lat="45.33709" lon="6.32529">
        <ele>1395</ele>
        <time>2012-10-30T10:15:43Z</time>
      </trkpt>
      <trkpt lat="45.33709" lon="6.32529">
        <ele>1395</ele>
        <time>2012-10-30T10:15:46Z</time>
      </trkpt>
      <trkpt lat="45.3371" lon="6.32528">
        <ele>1394</ele>
        <time>2012-10-30T10:15:48Z</time>
      </trkpt>
      <trkpt lat="45.33715" lon="6.32527">
        <ele>1394</ele>
        <time>2012-10-30T10:15:50Z</time>
      </trkpt>
      <trkpt lat="45.33718" lon="6.32527">
        <ele>1393</ele>
        <time>2012-10-30T10:15:52Z</time>
      </trkpt>
      <trkpt lat="45.33718" lon="6.32527">
        <ele>1392</ele>
        <time>2012-10-30T10:15:54Z</time>
      </trkpt>
      <trkpt lat="45.33719" lon="6.32526">
        <ele>1392</ele>
        <time>2012-10-30T10:15:56Z</time>
      </trkpt>
      <trkpt lat="45.33719" lon="6.32526">
        <ele>1392</ele>
        <time>2012-10-30T10:15:58Z</time>
      </trkpt>
      <trkpt lat="45.33721" lon="6.32525">
        <ele>1393</ele>
        <time>2012-10-30T10:16:00Z</time>
      </trkpt>
      <trkpt lat="45.33723" lon="6.32525">
        <ele>1393</ele>
        <time>2012-10-30T10:16:02Z</time>
      </trkpt>
      <trkpt lat="45.33725" lon="6.32525">
        <ele>1393</ele>
        <time>2012-10-30T10:16:04Z</time>
      </trkpt>
      <trkpt lat="45.33728" lon="6.32524">
        <ele>1393</ele>
        <time>2012-10-30T10:16:06Z</time>
      </trkpt>
      <trkpt lat="45.33731" lon="6.32524">
        <ele>1393</ele>
        <time>2012-10-30T10:16:08Z</time>
      </trkpt>
      <trkpt lat="45.33735" lon="6.32525">
        <ele>1393</ele>
        <time>2012-10-30T10:16:10Z</time>
      </trkpt>
      <trkpt lat="45.33738" lon="6.32527">
        <ele>1393</ele>
        <time>2012-10-30T10:16:12Z</time>
      </trkpt>
      <trkpt lat="45.33739" lon="6.32527">
        <ele>1393</ele>
        <time>2012-10-30T10:16:14Z</time>
      </trkpt>
      <trkpt lat="45.3374" lon="6.32527">
        <ele>1393</ele>
        <time>2012-10-30T10:16:16Z</time>
      </trkpt>
      <trkpt lat="45.33742" lon="6.32527">
        <ele>1393</ele>
        <time>2012-10-30T10:16:18Z</time>
      </trkpt>
      <trkpt lat="45.33744" lon="6.32527">
        <ele>1393</ele>
        <time>2012-10-30T10:16:21Z</time>
      </trkpt>
      <trkpt lat="45.33745" lon="6.32526">
        <ele>1393</ele>
        <time>2012-10-30T10:16:23Z</time>
      </trkpt>
      <trkpt lat="45.33746" lon="6.32526">
        <ele>1393</ele>
        <time>2012-10-30T10:16:25Z</time>
      </trkpt>
      <trkpt lat="45.33749" lon="6.32527">
        <ele>1393</ele>
        <time>2012-10-30T10:16:27Z</time>
      </trkpt>
      <trkpt lat="45.33752" lon="6.32527">
        <ele>1393</ele>
        <time>2012-10-30T10:16:29Z</time>
      </trkpt>
      <trkpt lat="45.33756" lon="6.32529">
        <ele>1393</ele>
        <time>2012-10-30T10:16:31Z</time>
      </trkpt>
      <trkpt lat="45.33759" lon="6.32529">
        <ele>1393</ele>
        <time>2012-10-30T10:16:33Z</time>
      </trkpt>
      <trkpt lat="45.33762" lon="6.32529">
        <ele>1394</ele>
        <time>2012-10-30T10:16:35Z</time>
      </trkpt>
      <trkpt lat="45.33764" lon="6.32528">
        <ele>1394</ele>
        <time>2012-10-30T10:16:37Z</time>
      </trkpt>
      <trkpt lat="45.33767" lon="6.32527">
        <ele>1395</ele>
        <time>2012-10-30T10:16:40Z</time>
      </trkpt>
      <trkpt lat="45.33771" lon="6.32527">
        <ele>1395</ele>
        <time>2012-10-30T10:16:42Z</time>
      </trkpt>
      <trkpt lat="45.33775" lon="6.32527">
        <ele>1395</ele>
        <time>2012-10-30T10:16:44Z</time>
      </trkpt>
      <trkpt lat="45.33778" lon="6.32527">
        <ele>1395</ele>
        <time>2012-10-30T10:16:46Z</time>
      </trkpt>
      <trkpt lat="45.33782" lon="6.32528">
        <ele>1395</ele>
        <time>2012-10-30T10:16:48Z</time>
      </trkpt>
      <trkpt lat="45.33785" lon="6.32529">
        <ele>1395</ele>
        <time>2012-10-30T10:16:50Z</time>
      </trkpt>
      <trkpt lat="45.33788" lon="6.32528">
        <ele>1395</ele>
        <time>2012-10-30T10:16:52Z</time>
      </trkpt>
      <trkpt lat="45.33791" lon="6.32528">
        <ele>1395</ele>
        <time>2012-10-30T10:16:54Z</time>
      </trkpt>
      <trkpt lat="45.33796" lon="6.32528">
        <ele>1395</ele>
        <time>2012-10-30T10:16:56Z</time>
      </trkpt>
      <trkpt lat="45.33799" lon="6.32529">
        <ele>1395</ele>
        <time>2012-10-30T10:16:58Z</time>
      </trkpt>
      <trkpt lat="45.33802" lon="6.3253">
        <ele>1394</ele>
        <time>2012-10-30T10:17:00Z</time>
      </trkpt>
      <trkpt lat="45.33805" lon="6.32531">
        <ele>1394</ele>
        <time>2012-10-30T10:17:02Z</time>
      </trkpt>
      <trkpt lat="45.33809" lon="6.32532">
        <ele>1394</ele>
        <time>2012-10-30T10:17:04Z</time>
      </trkpt>
      <trkpt lat="45.33814" lon="6.32533">
        <ele>1393</ele>
        <time>2012-10-30T10:17:06Z</time>
      </trkpt>
      <trkpt lat="45.3382" lon="6.32535">
        <ele>1393</ele>
        <time>2012-10-30T10:17:08Z</time>
      </trkpt>
      <trkpt lat="45.33826" lon="6.32538">
        <ele>1393</ele>
        <time>2012-10-30T10:17:10Z</time>
      </trkpt>
      <trkpt lat="45.33831" lon="6.32541">
        <ele>1392</ele>
        <time>2012-10-30T10:17:12Z</time>
      </trkpt>
      <trkpt lat="45.33834" lon="6.32544">
        <ele>1392</ele>
        <time>2012-10-30T10:17:15Z</time>
      </trkpt>
      <trkpt lat="45.33838" lon="6.32546">
        <ele>1393</ele>
        <time>2012-10-30T10:17:17Z</time>
      </trkpt>
      <trkpt lat="45.33842" lon="6.32549">
        <ele>1393</ele>
        <time>2012-10-30T10:17:19Z</time>
      </trkpt>
      <trkpt lat="45.33844" lon="6.32551">
        <ele>1393</ele>
        <time>2012-10-30T10:17:21Z</time>
      </trkpt>
      <trkpt lat="45.33845" lon="6.32551">
        <ele>1393</ele>
        <time>2012-10-30T10:17:23Z</time>
      </trkpt>
      <trkpt lat="45.33846" lon="6.32553">
        <ele>1393</ele>
        <time>2012-10-30T10:17:25Z</time>
      </trkpt>
      <trkpt lat="45.33848" lon="6.32553">
        <ele>1393</ele>
        <time>2012-10-30T10:17:28Z</time>
      </trkpt>
      <trkpt lat="45.33851" lon="6.32555">
        <ele>1393</ele>
        <time>2012-10-30T10:17:30Z</time>
      </trkpt>
      <trkpt lat="45.33855" lon="6.32558">
        <ele>1392</ele>
        <time>2012-10-30T10:17:32Z</time>
      </trkpt>
      <trkpt lat="45.33859" lon="6.32563">
        <ele>1392</ele>
        <time>2012-10-30T10:17:34Z</time>
      </trkpt>
      <trkpt lat="45.33867" lon="6.32567">
        <ele>1391</ele>
        <time>2012-10-30T10:17:36Z</time>
      </trkpt>
      <trkpt lat="45.33874" lon="6.3257">
        <ele>1391</ele>
        <time>2012-10-30T10:17:38Z</time>
      </trkpt>
      <trkpt lat="45.3388" lon="6.32571">
        <ele>1390</ele>
        <time>2012-10-30T10:17:40Z</time>
      </trkpt>
      <trkpt lat="45.33885" lon="6.32574">
        <ele>1390</ele>
        <time>2012-10-30T10:17:42Z</time>
      </trkpt>
      <trkpt lat="45.33888" lon="6.32579">
        <ele>1389</ele>
        <time>2012-10-30T10:17:45Z</time>
      </trkpt>
      <trkpt lat="45.33891" lon="6.32586">
        <ele>1389</ele>
        <time>2012-10-30T10:17:47Z</time>
      </trkpt>
      <trkpt lat="45.33893" lon="6.32592">
        <ele>1389</ele>
        <time>2012-10-30T10:17:49Z</time>
      </trkpt>
      <trkpt lat="45.33894" lon="6.32599">
        <ele>1389</ele>
        <time>2012-10-30T10:17:51Z</time>
      </trkpt>
      <trkpt lat="45.33895" lon="6.32604">
        <ele>1389</ele>
        <time>2012-10-30T10:17:53Z</time>
      </trkpt>
      <trkpt lat="45.33898" lon="6.32609">
        <ele>1389</ele>
        <time>2012-10-30T10:17:56Z</time>
      </trkpt>
      <trkpt lat="45.339" lon="6.32614">
        <ele>1389</ele>
        <time>2012-10-30T10:17:58Z</time>
      </trkpt>
      <trkpt lat="45.33904" lon="6.32619">
        <ele>1389</ele>
        <time>2012-10-30T10:18:00Z</time>
      </trkpt>
      <trkpt lat="45.33908" lon="6.32622">
        <ele>1390</ele>
        <time>2012-10-30T10:18:02Z</time>
      </trkpt>
      <trkpt lat="45.33913" lon="6.32624">
        <ele>1390</ele>
        <time>2012-10-30T10:18:04Z</time>
      </trkpt>
      <trkpt lat="45.33917" lon="6.32624">
        <ele>1390</ele>
        <time>2012-10-30T10:18:06Z</time>
      </trkpt>
      <trkpt lat="45.33924" lon="6.32626">
        <ele>1390</ele>
        <time>2012-10-30T10:18:08Z</time>
      </trkpt>
      <trkpt lat="45.33929" lon="6.32626">
        <ele>1390</ele>
        <time>2012-10-30T10:18:10Z</time>
      </trkpt>
      <trkpt lat="45.33934" lon="6.32625">
        <ele>1390</ele>
        <time>2012-10-30T10:18:12Z</time>
      </trkpt>
      <trkpt lat="45.33938" lon="6.32624">
        <ele>1391</ele>
        <time>2012-10-30T10:18:15Z</time>
      </trkpt>
      <trkpt lat="45.33942" lon="6.32623">
        <ele>1391</ele>
        <time>2012-10-30T10:18:17Z</time>
      </trkpt>
      <trkpt lat="45.33947" lon="6.32623">
        <ele>1391</ele>
        <time>2012-10-30T10:18:19Z</time>
      </trkpt>
      <trkpt lat="45.33951" lon="6.32624">
        <ele>1391</ele>
        <time>2012-10-30T10:18:21Z</time>
      </trkpt>
      <trkpt lat="45.33956" lon="6.32625">
        <ele>1391</ele>
        <time>2012-10-30T10:18:23Z</time>
      </trkpt>
      <trkpt lat="45.3396" lon="6.32626">
        <ele>1391</ele>
        <time>2012-10-30T10:18:25Z</time>
      </trkpt>
      <trkpt lat="45.33965" lon="6.32626">
        <ele>1391</ele>
        <time>2012-10-30T10:18:27Z</time>
      </trkpt>
      <trkpt lat="45.33973" lon="6.32627">
        <ele>1392</ele>
        <time>2012-10-30T10:18:29Z</time>
      </trkpt>
      <trkpt lat="45.33977" lon="6.32627">
        <ele>1391</ele>
        <time>2012-10-30T10:18:31Z</time>
      </trkpt>
      <trkpt lat="45.33982" lon="6.32627">
        <ele>1392</ele>
        <time>2012-10-30T10:18:33Z</time>
      </trkpt>
      <trkpt lat="45.33987" lon="6.32627">
        <ele>1392</ele>
        <time>2012-10-30T10:18:35Z</time>
      </trkpt>
      <trkpt lat="45.33991" lon="6.32627">
        <ele>1392</ele>
        <time>2012-10-30T10:18:37Z</time>
      </trkpt>
      <trkpt lat="45.33995" lon="6.32626">
        <ele>1392</ele>
        <time>2012-10-30T10:18:39Z</time>
      </trkpt>
      <trkpt lat="45.34001" lon="6.32625">
        <ele>1392</ele>
        <time>2012-10-30T10:18:41Z</time>
      </trkpt>
      <trkpt lat="45.34006" lon="6.32625">
        <ele>1392</ele>
        <time>2012-10-30T10:18:43Z</time>
      </trkpt>
      <trkpt lat="45.3401" lon="6.32624">
        <ele>1392</ele>
        <time>2012-10-30T10:18:46Z</time>
      </trkpt>
      <trkpt lat="45.34016" lon="6.32624">
        <ele>1391</ele>
        <time>2012-10-30T10:18:48Z</time>
      </trkpt>
      <trkpt lat="45.34021" lon="6.32624">
        <ele>1392</ele>
        <time>2012-10-30T10:18:50Z</time>
      </trkpt>
      <trkpt lat="45.34026" lon="6.32624">
        <ele>1392</ele>
        <time>2012-10-30T10:18:52Z</time>
      </trkpt>
      <trkpt lat="45.3403" lon="6.32625">
        <ele>1392</ele>
        <time>2012-10-30T10:18:54Z</time>
      </trkpt>
      <trkpt lat="45.34034" lon="6.32625">
        <ele>1392</ele>
        <time>2012-10-30T10:18:56Z</time>
      </trkpt>
      <trkpt lat="45.34038" lon="6.32626">
        <ele>1392</ele>
        <time>2012-10-30T10:18:58Z</time>
      </trkpt>
      <trkpt lat="45.34042" lon="6.32627">
        <ele>1393</ele>
        <time>2012-10-30T10:19:00Z</time>
      </trkpt>
      <trkpt lat="45.34046" lon="6.32629">
        <ele>1393</ele>
        <time>2012-10-30T10:19:02Z</time>
      </trkpt>
      <trkpt lat="45.3405" lon="6.3263">
        <ele>1393</ele>
        <time>2012-10-30T10:19:04Z</time>
      </trkpt>
      <trkpt lat="45.34054" lon="6.32632">
        <ele>1394</ele>
        <time>2012-10-30T10:19:06Z</time>
      </trkpt>
      <trkpt lat="45.34059" lon="6.32633">
        <ele>1394</ele>
        <time>2012-10-30T10:19:08Z</time>
      </trkpt>
      <trkpt lat="45.34063" lon="6.32634">
        <ele>1394</ele>
        <time>2012-10-30T10:19:10Z</time>
      </trkpt>
      <trkpt lat="45.34066" lon="6.32636">
        <ele>1395</ele>
        <time>2012-10-30T10:19:12Z</time>
      </trkpt>
      <trkpt lat="45.34069" lon="6.32638">
        <ele>1395</ele>
        <time>2012-10-30T10:19:14Z</time>
      </trkpt>
      <trkpt lat="45.34069" lon="6.32641">
        <ele>1396</ele>
        <time>2012-10-30T10:19:17Z</time>
      </trkpt>
      <trkpt lat="45.34067" lon="6.32642">
        <ele>1397</ele>
        <time>2012-10-30T10:19:19Z</time>
      </trkpt>
      <trkpt lat="45.34064" lon="6.32642">
        <ele>1397</ele>
        <time>2012-10-30T10:19:21Z</time>
      </trkpt>
      <trkpt lat="45.34061" lon="6.32643">
        <ele>1397</ele>
        <time>2012-10-30T10:19:23Z</time>
      </trkpt>
      <trkpt lat="45.34056" lon="6.32643">
        <ele>1397</ele>
        <time>2012-10-30T10:19:25Z</time>
      </trkpt>
      <trkpt lat="45.34053" lon="6.32644">
        <ele>1397</ele>
        <time>2012-10-30T10:19:27Z</time>
      </trkpt>
      <trkpt lat="45.34049" lon="6.32643">
        <ele>1397</ele>
        <time>2012-10-30T10:19:29Z</time>
      </trkpt>
      <trkpt lat="45.34045" lon="6.32643">
        <ele>1397</ele>
        <time>2012-10-30T10:19:31Z</time>
      </trkpt>
      <trkpt lat="45.34042" lon="6.32644">
        <ele>1397</ele>
        <time>2012-10-30T10:19:33Z</time>
      </trkpt>
      <trkpt lat="45.34038" lon="6.32644">
        <ele>1397</ele>
        <time>2012-10-30T10:19:36Z</time>
      </trkpt>
      <trkpt lat="45.34034" lon="6.32644">
        <ele>1397</ele>
        <time>2012-10-30T10:19:38Z</time>
      </trkpt>
      <trkpt lat="45.34029" lon="6.32645">
        <ele>1397</ele>
        <time>2012-10-30T10:19:40Z</time>
      </trkpt>
      <trkpt lat="45.34024" lon="6.32646">
        <ele>1397</ele>
        <time>2012-10-30T10:19:42Z</time>
      </trkpt>
      <trkpt lat="45.34019" lon="6.32647">
        <ele>1398</ele>
        <time>2012-10-30T10:19:44Z</time>
      </trkpt>
      <trkpt lat="45.34014" lon="6.32648">
        <ele>1399</ele>
        <time>2012-10-30T10:19:46Z</time>
      </trkpt>
      <trkpt lat="45.34009" lon="6.32649">
        <ele>1399</ele>
        <time>2012-10-30T10:19:48Z</time>
      </trkpt>
      <trkpt lat="45.34004" lon="6.3265">
        <ele>1399</ele>
        <time>2012-10-30T10:19:50Z</time>
      </trkpt>
      <trkpt lat="45.33998" lon="6.32651">
        <ele>1400</ele>
        <time>2012-10-30T10:19:52Z</time>
      </trkpt>
      <trkpt lat="45.33993" lon="6.32652">
        <ele>1400</ele>
        <time>2012-10-30T10:19:54Z</time>
      </trkpt>
      <trkpt lat="45.33988" lon="6.32651">
        <ele>1400</ele>
        <time>2012-10-30T10:19:56Z</time>
      </trkpt>
      <trkpt lat="45.33984" lon="6.32651">
        <ele>1401</ele>
        <time>2012-10-30T10:19:58Z</time>
      </trkpt>
      <trkpt lat="45.33982" lon="6.3265">
        <ele>1401</ele>
        <time>2012-10-30T10:20:00Z</time>
      </trkpt>
      <trkpt lat="45.33981" lon="6.32649">
        <ele>1402</ele>
        <time>2012-10-30T10:20:02Z</time>
      </trkpt>
      <trkpt lat="45.3398" lon="6.32647">
        <ele>1402</ele>
        <time>2012-10-30T10:20:04Z</time>
      </trkpt>
      <trkpt lat="45.33978" lon="6.32646">
        <ele>1402</ele>
        <time>2012-10-30T10:20:06Z</time>
      </trkpt>
      <trkpt lat="45.33976" lon="6.32647">
        <ele>1402</ele>
        <time>2012-10-30T10:20:09Z</time>
      </trkpt>
      <trkpt lat="45.33971" lon="6.32647">
        <ele>1402</ele>
        <time>2012-10-30T10:20:11Z</time>
      </trkpt>
      <trkpt lat="45.33968" lon="6.32648">
        <ele>1402</ele>
        <time>2012-10-30T10:20:13Z</time>
      </trkpt>
      <trkpt lat="45.33963" lon="6.32648">
        <ele>1402</ele>
        <time>2012-10-30T10:20:15Z</time>
      </trkpt>
      <trkpt lat="45.3396" lon="6.3265">
        <ele>1403</ele>
        <time>2012-10-30T10:20:17Z</time>
      </trkpt>
      <trkpt lat="45.33957" lon="6.32651">
        <ele>1403</ele>
        <time>2012-10-30T10:20:19Z</time>
      </trkpt>
      <trkpt lat="45.33953" lon="6.32652">
        <ele>1404</ele>
        <time>2012-10-30T10:20:21Z</time>
      </trkpt>
      <trkpt lat="45.3395" lon="6.32654">
        <ele>1404</ele>
        <time>2012-10-30T10:20:23Z</time>
      </trkpt>
      <trkpt lat="45.33946" lon="6.32655">
        <ele>1404</ele>
        <time>2012-10-30T10:20:25Z</time>
      </trkpt>
      <trkpt lat="45.33942" lon="6.32656">
        <ele>1405</ele>
        <time>2012-10-30T10:20:27Z</time>
      </trkpt>
      <trkpt lat="45.33937" lon="6.32657">
        <ele>1405</ele>
        <time>2012-10-30T10:20:29Z</time>
      </trkpt>
      <trkpt lat="45.3393" lon="6.32659">
        <ele>1405</ele>
        <time>2012-10-30T10:20:31Z</time>
      </trkpt>
      <trkpt lat="45.33926" lon="6.3266">
        <ele>1405</ele>
        <time>2012-10-30T10:20:33Z</time>
      </trkpt>
      <trkpt lat="45.33922" lon="6.32663">
        <ele>1405</ele>
        <time>2012-10-30T10:20:35Z</time>
      </trkpt>
      <trkpt lat="45.33918" lon="6.32664">
        <ele>1406</ele>
        <time>2012-10-30T10:20:37Z</time>
      </trkpt>
      <trkpt lat="45.33915" lon="6.32665">
        <ele>1407</ele>
        <time>2012-10-30T10:20:39Z</time>
      </trkpt>
      <trkpt lat="45.33912" lon="6.32665">
        <ele>1407</ele>
        <time>2012-10-30T10:20:41Z</time>
      </trkpt>
      <trkpt lat="45.33908" lon="6.32665">
        <ele>1408</ele>
        <time>2012-10-30T10:20:44Z</time>
      </trkpt>
      <trkpt lat="45.33905" lon="6.32663">
        <ele>1408</ele>
        <time>2012-10-30T10:20:46Z</time>
      </trkpt>
      <trkpt lat="45.33901" lon="6.32662">
        <ele>1408</ele>
        <time>2012-10-30T10:20:48Z</time>
      </trkpt>
      <trkpt lat="45.33897" lon="6.3266">
        <ele>1409</ele>
        <time>2012-10-30T10:20:50Z</time>
      </trkpt>
      <trkpt lat="45.33893" lon="6.32658">
        <ele>1409</ele>
        <time>2012-10-30T10:20:52Z</time>
      </trkpt>
      <trkpt lat="45.3389" lon="6.32657">
        <ele>1410</ele>
        <time>2012-10-30T10:20:54Z</time>
      </trkpt>
      <trkpt lat="45.33886" lon="6.32652">
        <ele>1410</ele>
        <time>2012-10-30T10:20:56Z</time>
      </trkpt>
      <trkpt lat="45.33884" lon="6.32649">
        <ele>1411</ele>
        <time>2012-10-30T10:20:58Z</time>
      </trkpt>
      <trkpt lat="45.33881" lon="6.32646">
        <ele>1411</ele>
        <time>2012-10-30T10:21:00Z</time>
      </trkpt>
      <trkpt lat="45.33878" lon="6.32644">
        <ele>1411</ele>
        <time>2012-10-30T10:21:02Z</time>
      </trkpt>
      <trkpt lat="45.33875" lon="6.32642">
        <ele>1411</ele>
        <time>2012-10-30T10:21:04Z</time>
      </trkpt>
      <trkpt lat="45.33872" lon="6.3264">
        <ele>1412</ele>
        <time>2012-10-30T10:21:06Z</time>
      </trkpt>
      <trkpt lat="45.33869" lon="6.32637">
        <ele>1412</ele>
        <time>2012-10-30T10:21:08Z</time>
      </trkpt>
      <trkpt lat="45.33866" lon="6.32634">
        <ele>1413</ele>
        <time>2012-10-30T10:21:10Z</time>
      </trkpt>
      <trkpt lat="45.33863" lon="6.32631">
        <ele>1413</ele>
        <time>2012-10-30T10:21:13Z</time>
      </trkpt>
      <trkpt lat="45.33859" lon="6.32629">
        <ele>1413</ele>
        <time>2012-10-30T10:21:15Z</time>
      </trkpt>
      <trkpt lat="45.33856" lon="6.32627">
        <ele>1414</ele>
        <time>2012-10-30T10:21:17Z</time>
      </trkpt>
      <trkpt lat="45.33853" lon="6.32625">
        <ele>1414</ele>
        <time>2012-10-30T10:21:19Z</time>
      </trkpt>
      <trkpt lat="45.33849" lon="6.32622">
        <ele>1415</ele>
        <time>2012-10-30T10:21:21Z</time>
      </trkpt>
      <trkpt lat="45.33845" lon="6.32619">
        <ele>1415</ele>
        <time>2012-10-30T10:21:23Z</time>
      </trkpt>
      <trkpt lat="45.33842" lon="6.32616">
        <ele>1415</ele>
        <time>2012-10-30T10:21:25Z</time>
      </trkpt>
      <trkpt lat="45.33839" lon="6.32614">
        <ele>1415</ele>
        <time>2012-10-30T10:21:27Z</time>
      </trkpt>
      <trkpt lat="45.33836" lon="6.32612">
        <ele>1416</ele>
        <time>2012-10-30T10:21:30Z</time>
      </trkpt>
      <trkpt lat="45.33833" lon="6.32611">
        <ele>1416</ele>
        <time>2012-10-30T10:21:32Z</time>
      </trkpt>
      <trkpt lat="45.33829" lon="6.32608">
        <ele>1416</ele>
        <time>2012-10-30T10:21:34Z</time>
      </trkpt>
      <trkpt lat="45.33823" lon="6.32606">
        <ele>1417</ele>
        <time>2012-10-30T10:21:36Z</time>
      </trkpt>
      <trkpt lat="45.33819" lon="6.32605">
        <ele>1417</ele>
        <time>2012-10-30T10:21:38Z</time>
      </trkpt>
      <trkpt lat="45.33815" lon="6.32605">
        <ele>1418</ele>
        <time>2012-10-30T10:21:40Z</time>
      </trkpt>
      <trkpt lat="45.33811" lon="6.32605">
        <ele>1418</ele>
        <time>2012-10-30T10:21:43Z</time>
      </trkpt>
      <trkpt lat="45.33808" lon="6.32606">
        <ele>1418</ele>
        <time>2012-10-30T10:21:45Z</time>
      </trkpt>
      <trkpt lat="45.33804" lon="6.32606">
        <ele>1418</ele>
        <time>2012-10-30T10:21:47Z</time>
      </trkpt>
      <trkpt lat="45.33801" lon="6.32606">
        <ele>1419</ele>
        <time>2012-10-30T10:21:49Z</time>
      </trkpt>
      <trkpt lat="45.33797" lon="6.32604">
        <ele>1419</ele>
        <time>2012-10-30T10:21:51Z</time>
      </trkpt>
      <trkpt lat="45.33792" lon="6.32603">
        <ele>1419</ele>
        <time>2012-10-30T10:21:53Z</time>
      </trkpt>
      <trkpt lat="45.33786" lon="6.32601">
        <ele>1419</ele>
        <time>2012-10-30T10:21:55Z</time>
      </trkpt>
      <trkpt lat="45.33782" lon="6.32601">
        <ele>1419</ele>
        <time>2012-10-30T10:21:57Z</time>
      </trkpt>
      <trkpt lat="45.33778" lon="6.326">
        <ele>1420</ele>
        <time>2012-10-30T10:21:59Z</time>
      </trkpt>
      <trkpt lat="45.33773" lon="6.326">
        <ele>1420</ele>
        <time>2012-10-30T10:22:01Z</time>
      </trkpt>
      <trkpt lat="45.33769" lon="6.326">
        <ele>1420</ele>
        <time>2012-10-30T10:22:03Z</time>
      </trkpt>
      <trkpt lat="45.33765" lon="6.326">
        <ele>1421</ele>
        <time>2012-10-30T10:22:06Z</time>
      </trkpt>
      <trkpt lat="45.33759" lon="6.32599">
        <ele>1421</ele>
        <time>2012-10-30T10:22:08Z</time>
      </trkpt>
      <trkpt lat="45.33754" lon="6.32599">
        <ele>1422</ele>
        <time>2012-10-30T10:22:10Z</time>
      </trkpt>
      <trkpt lat="45.3375" lon="6.32598">
        <ele>1422</ele>
        <time>2012-10-30T10:22:12Z</time>
      </trkpt>
      <trkpt lat="45.33746" lon="6.32597">
        <ele>1422</ele>
        <time>2012-10-30T10:22:14Z</time>
      </trkpt>
      <trkpt lat="45.33742" lon="6.32596">
        <ele>1422</ele>
        <time>2012-10-30T10:22:17Z</time>
      </trkpt>
      <trkpt lat="45.33737" lon="6.32595">
        <ele>1422</ele>
        <time>2012-10-30T10:22:19Z</time>
      </trkpt>
      <trkpt lat="45.33732" lon="6.32594">
        <ele>1423</ele>
        <time>2012-10-30T10:22:21Z</time>
      </trkpt>
      <trkpt lat="45.33728" lon="6.32595">
        <ele>1423</ele>
        <time>2012-10-30T10:22:23Z</time>
      </trkpt>
      <trkpt lat="45.33723" lon="6.32595">
        <ele>1423</ele>
        <time>2012-10-30T10:22:25Z</time>
      </trkpt>
      <trkpt lat="45.33719" lon="6.32594">
        <ele>1424</ele>
        <time>2012-10-30T10:22:27Z</time>
      </trkpt>
      <trkpt lat="45.33714" lon="6.32594">
        <ele>1424</ele>
        <time>2012-10-30T10:22:29Z</time>
      </trkpt>
      <trkpt lat="45.3371" lon="6.32594">
        <ele>1425</ele>
        <time>2012-10-30T10:22:31Z</time>
      </trkpt>
      <trkpt lat="45.33706" lon="6.32594">
        <ele>1425</ele>
        <time>2012-10-30T10:22:33Z</time>
      </trkpt>
      <trkpt lat="45.33702" lon="6.32594">
        <ele>1426</ele>
        <time>2012-10-30T10:22:35Z</time>
      </trkpt>
      <trkpt lat="45.33696" lon="6.32594">
        <ele>1426</ele>
        <time>2012-10-30T10:22:37Z</time>
      </trkpt>
      <trkpt lat="45.33691" lon="6.32594">
        <ele>1426</ele>
        <time>2012-10-30T10:22:39Z</time>
      </trkpt>
      <trkpt lat="45.33687" lon="6.32595">
        <ele>1427</ele>
        <time>2012-10-30T10:22:41Z</time>
      </trkpt>
      <trkpt lat="45.33683" lon="6.32595">
        <ele>1427</ele>
        <time>2012-10-30T10:22:43Z</time>
      </trkpt>
      <trkpt lat="45.3368" lon="6.32595">
        <ele>1427</ele>
        <time>2012-10-30T10:22:45Z</time>
      </trkpt>
      <trkpt lat="45.33676" lon="6.32595">
        <ele>1428</ele>
        <time>2012-10-30T10:22:48Z</time>
      </trkpt>
      <trkpt lat="45.33672" lon="6.32596">
        <ele>1428</ele>
        <time>2012-10-30T10:22:50Z</time>
      </trkpt>
      <trkpt lat="45.33669" lon="6.32596">
        <ele>1429</ele>
        <time>2012-10-30T10:22:52Z</time>
      </trkpt>
      <trkpt lat="45.33665" lon="6.32597">
        <ele>1429</ele>
        <time>2012-10-30T10:22:54Z</time>
      </trkpt>
      <trkpt lat="45.33662" lon="6.32598">
        <ele>1430</ele>
        <time>2012-10-30T10:22:56Z</time>
      </trkpt>
      <trkpt lat="45.33658" lon="6.326">
        <ele>1430</ele>
        <time>2012-10-30T10:22:58Z</time>
      </trkpt>
      <trkpt lat="45.33655" lon="6.32602">
        <ele>1431</ele>
        <time>2012-10-30T10:23:00Z</time>
      </trkpt>
      <trkpt lat="45.33649" lon="6.32606">
        <ele>1431</ele>
        <time>2012-10-30T10:23:02Z</time>
      </trkpt>
      <trkpt lat="45.33646" lon="6.32608">
        <ele>1432</ele>
        <time>2012-10-30T10:23:04Z</time>
      </trkpt>
      <trkpt lat="45.33643" lon="6.3261">
        <ele>1432</ele>
        <time>2012-10-30T10:23:06Z</time>
      </trkpt>
      <trkpt lat="45.33639" lon="6.32613">
        <ele>1432</ele>
        <time>2012-10-30T10:23:08Z</time>
      </trkpt>
      <trkpt lat="45.33635" lon="6.32617">
        <ele>1432</ele>
        <time>2012-10-30T10:23:10Z</time>
      </trkpt>
      <trkpt lat="45.33633" lon="6.3262">
        <ele>1432</ele>
        <time>2012-10-30T10:23:12Z</time>
      </trkpt>
      <trkpt lat="45.33629" lon="6.32624">
        <ele>1433</ele>
        <time>2012-10-30T10:23:14Z</time>
      </trkpt>
      <trkpt lat="45.33626" lon="6.3263">
        <ele>1433</ele>
        <time>2012-10-30T10:23:17Z</time>
      </trkpt>
      <trkpt lat="45.33623" lon="6.32636">
        <ele>1433</ele>
        <time>2012-10-30T10:23:19Z</time>
      </trkpt>
      <trkpt lat="45.33621" lon="6.32643">
        <ele>1433</ele>
        <time>2012-10-30T10:23:21Z</time>
      </trkpt>
      <trkpt lat="45.33618" lon="6.32648">
        <ele>1433</ele>
        <time>2012-10-30T10:23:23Z</time>
      </trkpt>
      <trkpt lat="45.33617" lon="6.32656">
        <ele>1434</ele>
        <time>2012-10-30T10:23:25Z</time>
      </trkpt>
      <trkpt lat="45.33615" lon="6.32664">
        <ele>1434</ele>
        <time>2012-10-30T10:23:27Z</time>
      </trkpt>
      <trkpt lat="45.33613" lon="6.32672">
        <ele>1434</ele>
        <time>2012-10-30T10:23:29Z</time>
      </trkpt>
      <trkpt lat="45.33611" lon="6.32684">
        <ele>1434</ele>
        <time>2012-10-30T10:23:31Z</time>
      </trkpt>
      <trkpt lat="45.33609" lon="6.32693">
        <ele>1434</ele>
        <time>2012-10-30T10:23:33Z</time>
      </trkpt>
      <trkpt lat="45.33608" lon="6.32702">
        <ele>1434</ele>
        <time>2012-10-30T10:23:35Z</time>
      </trkpt>
      <trkpt lat="45.33608" lon="6.32713">
        <ele>1434</ele>
        <time>2012-10-30T10:23:37Z</time>
      </trkpt>
      <trkpt lat="45.3361" lon="6.32723">
        <ele>1435</ele>
        <time>2012-10-30T10:23:39Z</time>
      </trkpt>
      <trkpt lat="45.33613" lon="6.32733">
        <ele>1435</ele>
        <time>2012-10-30T10:23:42Z</time>
      </trkpt>
      <trkpt lat="45.33616" lon="6.32741">
        <ele>1435</ele>
        <time>2012-10-30T10:23:44Z</time>
      </trkpt>
      <trkpt lat="45.33619" lon="6.3275">
        <ele>1436</ele>
        <time>2012-10-30T10:23:46Z</time>
      </trkpt>
      <trkpt lat="45.33622" lon="6.32758">
        <ele>1436</ele>
        <time>2012-10-30T10:23:48Z</time>
      </trkpt>
      <trkpt lat="45.33625" lon="6.32765">
        <ele>1436</ele>
        <time>2012-10-30T10:23:50Z</time>
      </trkpt>
      <trkpt lat="45.33629" lon="6.32772">
        <ele>1436</ele>
        <time>2012-10-30T10:23:52Z</time>
      </trkpt>
      <trkpt lat="45.33632" lon="6.32779">
        <ele>1436</ele>
        <time>2012-10-30T10:23:54Z</time>
      </trkpt>
      <trkpt lat="45.33635" lon="6.32786">
        <ele>1436</ele>
        <time>2012-10-30T10:23:56Z</time>
      </trkpt>
      <trkpt lat="45.3364" lon="6.32796">
        <ele>1436</ele>
        <time>2012-10-30T10:23:58Z</time>
      </trkpt>
      <trkpt lat="45.33641" lon="6.32803">
        <ele>1437</ele>
        <time>2012-10-30T10:24:00Z</time>
      </trkpt>
      <trkpt lat="45.33642" lon="6.32809">
        <ele>1437</ele>
        <time>2012-10-30T10:24:02Z</time>
      </trkpt>
      <trkpt lat="45.33642" lon="6.32814">
        <ele>1437</ele>
        <time>2012-10-30T10:24:04Z</time>
      </trkpt>
      <trkpt lat="45.33642" lon="6.32814">
        <ele>1437</ele>
        <time>2012-10-30T10:24:07Z</time>
      </trkpt>
      <trkpt lat="45.33641" lon="6.32816">
        <ele>1437</ele>
        <time>2012-10-30T10:24:09Z</time>
      </trkpt>
      <trkpt lat="45.3364" lon="6.3282">
        <ele>1438</ele>
        <time>2012-10-30T10:24:11Z</time>
      </trkpt>
      <trkpt lat="45.33637" lon="6.32824">
        <ele>1438</ele>
        <time>2012-10-30T10:24:13Z</time>
      </trkpt>
      <trkpt lat="45.33635" lon="6.32835">
        <ele>1437</ele>
        <time>2012-10-30T10:24:15Z</time>
      </trkpt>
      <trkpt lat="45.33636" lon="6.32844">
        <ele>1436</ele>
        <time>2012-10-30T10:24:17Z</time>
      </trkpt>
      <trkpt lat="45.3364" lon="6.32853">
        <ele>1435</ele>
        <time>2012-10-30T10:24:19Z</time>
      </trkpt>
      <trkpt lat="45.33645" lon="6.32861">
        <ele>1434</ele>
        <time>2012-10-30T10:24:21Z</time>
      </trkpt>
      <trkpt lat="45.33651" lon="6.32868">
        <ele>1433</ele>
        <time>2012-10-30T10:24:24Z</time>
      </trkpt>
      <trkpt lat="45.33657" lon="6.32874">
        <ele>1433</ele>
        <time>2012-10-30T10:24:26Z</time>
      </trkpt>
      <trkpt lat="45.33664" lon="6.32879">
        <ele>1432</ele>
        <time>2012-10-30T10:24:28Z</time>
      </trkpt>
      <trkpt lat="45.33673" lon="6.32888">
        <ele>1431</ele>
        <time>2012-10-30T10:24:30Z</time>
      </trkpt>
      <trkpt lat="45.33679" lon="6.32896">
        <ele>1430</ele>
        <time>2012-10-30T10:24:32Z</time>
      </trkpt>
      <trkpt lat="45.33686" lon="6.32905">
        <ele>1430</ele>
        <time>2012-10-30T10:24:34Z</time>
      </trkpt>
      <trkpt lat="45.33692" lon="6.32913">
        <ele>1429</ele>
        <time>2012-10-30T10:24:36Z</time>
      </trkpt>
      <trkpt lat="45.33698" lon="6.3292">
        <ele>1428</ele>
        <time>2012-10-30T10:24:39Z</time>
      </trkpt>
      <trkpt lat="45.33703" lon="6.32928">
        <ele>1428</ele>
        <time>2012-10-30T10:24:41Z</time>
      </trkpt>
      <trkpt lat="45.33703" lon="6.32938">
        <ele>1427</ele>
        <time>2012-10-30T10:24:43Z</time>
      </trkpt>
      <trkpt lat="45.337" lon="6.32946">
        <ele>1426</ele>
        <time>2012-10-30T10:24:45Z</time>
      </trkpt>
      <trkpt lat="45.33693" lon="6.32957">
        <ele>1425</ele>
        <time>2012-10-30T10:24:47Z</time>
      </trkpt>
      <trkpt lat="45.33689" lon="6.32965">
        <ele>1424</ele>
        <time>2012-10-30T10:24:49Z</time>
      </trkpt>
      <trkpt lat="45.33683" lon="6.32974">
        <ele>1422</ele>
        <time>2012-10-30T10:24:51Z</time>
      </trkpt>
      <trkpt lat="45.33678" lon="6.32984">
        <ele>1422</ele>
        <time>2012-10-30T10:24:54Z</time>
      </trkpt>
      <trkpt lat="45.33672" lon="6.32994">
        <ele>1420</ele>
        <time>2012-10-30T10:24:56Z</time>
      </trkpt>
      <trkpt lat="45.33666" lon="6.33003">
        <ele>1418</ele>
        <time>2012-10-30T10:24:58Z</time>
      </trkpt>
      <trkpt lat="45.3366" lon="6.33013">
        <ele>1417</ele>
        <time>2012-10-30T10:25:00Z</time>
      </trkpt>
      <trkpt lat="45.33653" lon="6.33022">
        <ele>1415</ele>
        <time>2012-10-30T10:25:02Z</time>
      </trkpt>
      <trkpt lat="45.33649" lon="6.33028">
        <ele>1414</ele>
        <time>2012-10-30T10:25:04Z</time>
      </trkpt>
      <trkpt lat="45.33646" lon="6.3303">
        <ele>1414</ele>
        <time>2012-10-30T10:25:06Z</time>
      </trkpt>
      <trkpt lat="45.33645" lon="6.3303">
        <ele>1414</ele>
        <time>2012-10-30T10:25:08Z</time>
      </trkpt>
      <trkpt lat="45.33645" lon="6.33031">
        <ele>1414</ele>
        <time>2012-10-30T10:25:10Z</time>
      </trkpt>
      <trkpt lat="45.33645" lon="6.33031">
        <ele>1414</ele>
        <time>2012-10-30T10:25:12Z</time>
      </trkpt>
      <trkpt lat="45.33645" lon="6.33031">
        <ele>1414</ele>
        <time>2012-10-30T10:25:14Z</time>
      </trkpt>
      <trkpt lat="45.33645" lon="6.33031">
        <ele>1414</ele>
        <time>2012-10-30T10:25:16Z</time>
      </trkpt>
      <trkpt lat="45.33645" lon="6.33032">
        <ele>1414</ele>
        <time>2012-10-30T10:25:18Z</time>
      </trkpt>
      <trkpt lat="45.33644" lon="6.33033">
        <ele>1414</ele>
        <time>2012-10-30T10:25:20Z</time>
      </trkpt>
      <trkpt lat="45.33644" lon="6.33033">
        <ele>1414</ele>
        <time>2012-10-30T10:25:22Z</time>
      </trkpt>
      <trkpt lat="45.33644" lon="6.33034">
        <ele>1414</ele>
        <time>2012-10-30T10:25:24Z</time>
      </trkpt>
      <trkpt lat="45.33643" lon="6.33035">
        <ele>1414</ele>
        <time>2012-10-30T10:25:27Z</time>
      </trkpt>
      <trkpt lat="45.33643" lon="6.33035">
        <ele>1414</ele>
        <time>2012-10-30T10:25:29Z</time>
      </trkpt>
      <trkpt lat="45.33642" lon="6.33036">
        <ele>1414</ele>
        <time>2012-10-30T10:25:31Z</time>
      </trkpt>
      <trkpt lat="45.33642" lon="6.33036">
        <ele>1414</ele>
        <time>2012-10-30T10:25:33Z</time>
      </trkpt>
      <trkpt lat="45.33642" lon="6.33036">
        <ele>1414</ele>
        <time>2012-10-30T10:25:35Z</time>
      </trkpt>
      <trkpt lat="45.33642" lon="6.33037">
        <ele>1414</ele>
        <time>2012-10-30T10:25:37Z</time>
      </trkpt>
      <trkpt lat="45.33642" lon="6.33037">
        <ele>1414</ele>
        <time>2012-10-30T10:25:39Z</time>
      </trkpt>
      <trkpt lat="45.33641" lon="6.33037">
        <ele>1414</ele>
        <time>2012-10-30T10:25:41Z</time>
      </trkpt>
      <trkpt lat="45.3364" lon="6.3304">
        <ele>1414</ele>
        <time>2012-10-30T10:25:43Z</time>
      </trkpt>
      <trkpt lat="45.33636" lon="6.33046">
        <ele>1414</ele>
        <time>2012-10-30T10:25:45Z</time>
      </trkpt>
      <trkpt lat="45.33631" lon="6.33054">
        <ele>1413</ele>
        <time>2012-10-30T10:25:47Z</time>
      </trkpt>
      <trkpt lat="45.33626" lon="6.33061">
        <ele>1412</ele>
        <time>2012-10-30T10:25:49Z</time>
      </trkpt>
      <trkpt lat="45.3362" lon="6.33068">
        <ele>1411</ele>
        <time>2012-10-30T10:25:51Z</time>
      </trkpt>
      <trkpt lat="45.33614" lon="6.33077">
        <ele>1409</ele>
        <time>2012-10-30T10:25:53Z</time>
      </trkpt>
      <trkpt lat="45.33607" lon="6.33085">
        <ele>1408</ele>
        <time>2012-10-30T10:25:55Z</time>
      </trkpt>
      <trkpt lat="45.33601" lon="6.33094">
        <ele>1406</ele>
        <time>2012-10-30T10:25:58Z</time>
      </trkpt>
      <trkpt lat="45.33593" lon="6.33102">
        <ele>1404</ele>
        <time>2012-10-30T10:26:00Z</time>
      </trkpt>
      <trkpt lat="45.33585" lon="6.33111">
        <ele>1402</ele>
        <time>2012-10-30T10:26:02Z</time>
      </trkpt>
      <trkpt lat="45.33577" lon="6.33118">
        <ele>1400</ele>
        <time>2012-10-30T10:26:04Z</time>
      </trkpt>
      <trkpt lat="45.33569" lon="6.33125">
        <ele>1398</ele>
        <time>2012-10-30T10:26:06Z</time>
      </trkpt>
      <trkpt lat="45.3356" lon="6.33132">
        <ele>1397</ele>
        <time>2012-10-30T10:26:08Z</time>
      </trkpt>
      <trkpt lat="45.33551" lon="6.33139">
        <ele>1395</ele>
        <time>2012-10-30T10:26:10Z</time>
      </trkpt>
      <trkpt lat="45.33543" lon="6.33145">
        <ele>1394</ele>
        <time>2012-10-30T10:26:12Z</time>
      </trkpt>
      <trkpt lat="45.33535" lon="6.33155">
        <ele>1393</ele>
        <time>2012-10-30T10:26:14Z</time>
      </trkpt>
      <trkpt lat="45.3353" lon="6.33161">
        <ele>1392</ele>
        <time>2012-10-30T10:26:16Z</time>
      </trkpt>
      <trkpt lat="45.33525" lon="6.33169">
        <ele>1391</ele>
        <time>2012-10-30T10:26:18Z</time>
      </trkpt>
      <trkpt lat="45.33519" lon="6.33177">
        <ele>1390</ele>
        <time>2012-10-30T10:26:21Z</time>
      </trkpt>
      <trkpt lat="45.33513" lon="6.33186">
        <ele>1388</ele>
        <time>2012-10-30T10:26:23Z</time>
      </trkpt>
      <trkpt lat="45.33507" lon="6.33196">
        <ele>1387</ele>
        <time>2012-10-30T10:26:25Z</time>
      </trkpt>
      <trkpt lat="45.335" lon="6.33207">
        <ele>1386</ele>
        <time>2012-10-30T10:26:27Z</time>
      </trkpt>
      <trkpt lat="45.33494" lon="6.33218">
        <ele>1385</ele>
        <time>2012-10-30T10:26:29Z</time>
      </trkpt>
      <trkpt lat="45.33488" lon="6.33236">
        <ele>1384</ele>
        <time>2012-10-30T10:26:31Z</time>
      </trkpt>
      <trkpt lat="45.33484" lon="6.33247">
        <ele>1383</ele>
        <time>2012-10-30T10:26:33Z</time>
      </trkpt>
      <trkpt lat="45.33478" lon="6.33255">
        <ele>1382</ele>
        <time>2012-10-30T10:26:35Z</time>
      </trkpt>
      <trkpt lat="45.3347" lon="6.33263">
        <ele>1380</ele>
        <time>2012-10-30T10:26:37Z</time>
      </trkpt>
      <trkpt lat="45.33461" lon="6.33268">
        <ele>1379</ele>
        <time>2012-10-30T10:26:39Z</time>
      </trkpt>
      <trkpt lat="45.3345" lon="6.33272">
        <ele>1378</ele>
        <time>2012-10-30T10:26:41Z</time>
      </trkpt>
      <trkpt lat="45.3344" lon="6.33275">
        <ele>1376</ele>
        <time>2012-10-30T10:26:43Z</time>
      </trkpt>
      <trkpt lat="45.33432" lon="6.3328">
        <ele>1376</ele>
        <time>2012-10-30T10:26:46Z</time>
      </trkpt>
      <trkpt lat="45.33424" lon="6.33285">
        <ele>1375</ele>
        <time>2012-10-30T10:26:48Z</time>
      </trkpt>
      <trkpt lat="45.33417" lon="6.33294">
        <ele>1373</ele>
        <time>2012-10-30T10:26:50Z</time>
      </trkpt>
      <trkpt lat="45.33411" lon="6.33304">
        <ele>1372</ele>
        <time>2012-10-30T10:26:52Z</time>
      </trkpt>
      <trkpt lat="45.33405" lon="6.33313">
        <ele>1371</ele>
        <time>2012-10-30T10:26:54Z</time>
      </trkpt>
      <trkpt lat="45.33397" lon="6.33316">
        <ele>1369</ele>
        <time>2012-10-30T10:26:56Z</time>
      </trkpt>
      <trkpt lat="45.33387" lon="6.33317">
        <ele>1368</ele>
        <time>2012-10-30T10:26:58Z</time>
      </trkpt>
      <trkpt lat="45.33372" lon="6.3332">
        <ele>1366</ele>
        <time>2012-10-30T10:27:00Z</time>
      </trkpt>
      <trkpt lat="45.33364" lon="6.33325">
        <ele>1365</ele>
        <time>2012-10-30T10:27:02Z</time>
      </trkpt>
      <trkpt lat="45.33354" lon="6.33331">
        <ele>1364</ele>
        <time>2012-10-30T10:27:04Z</time>
      </trkpt>
      <trkpt lat="45.33344" lon="6.33337">
        <ele>1362</ele>
        <time>2012-10-30T10:27:06Z</time>
      </trkpt>
      <trkpt lat="45.33335" lon="6.33343">
        <ele>1361</ele>
        <time>2012-10-30T10:27:08Z</time>
      </trkpt>
      <trkpt lat="45.33329" lon="6.33354">
        <ele>1359</ele>
        <time>2012-10-30T10:27:10Z</time>
      </trkpt>
      <trkpt lat="45.33324" lon="6.33369">
        <ele>1357</ele>
        <time>2012-10-30T10:27:12Z</time>
      </trkpt>
      <trkpt lat="45.33321" lon="6.33385">
        <ele>1356</ele>
        <time>2012-10-30T10:27:15Z</time>
      </trkpt>
      <trkpt lat="45.33316" lon="6.33399">
        <ele>1354</ele>
        <time>2012-10-30T10:27:17Z</time>
      </trkpt>
      <trkpt lat="45.33313" lon="6.33415">
        <ele>1352</ele>
        <time>2012-10-30T10:27:19Z</time>
      </trkpt>
      <trkpt lat="45.33311" lon="6.3343">
        <ele>1351</ele>
        <time>2012-10-30T10:27:21Z</time>
      </trkpt>
      <trkpt lat="45.33305" lon="6.33436">
        <ele>1350</ele>
        <time>2012-10-30T10:27:23Z</time>
      </trkpt>
      <trkpt lat="45.33301" lon="6.3343">
        <ele>1350</ele>
        <time>2012-10-30T10:27:25Z</time>
      </trkpt>
      <trkpt lat="45.333" lon="6.33413">
        <ele>1349</ele>
        <time>2012-10-30T10:27:27Z</time>
      </trkpt>
      <trkpt lat="45.33297" lon="6.33397">
        <ele>1347</ele>
        <time>2012-10-30T10:27:29Z</time>
      </trkpt>
      <trkpt lat="45.33296" lon="6.33378">
        <ele>1345</ele>
        <time>2012-10-30T10:27:31Z</time>
      </trkpt>
      <trkpt lat="45.33299" lon="6.33356">
        <ele>1342</ele>
        <time>2012-10-30T10:27:33Z</time>
      </trkpt>
      <trkpt lat="45.33308" lon="6.33333">
        <ele>1339</ele>
        <time>2012-10-30T10:27:36Z</time>
      </trkpt>
      <trkpt lat="45.33316" lon="6.33308">
        <ele>1336</ele>
        <time>2012-10-30T10:27:38Z</time>
      </trkpt>
      <trkpt lat="45.33322" lon="6.3328">
        <ele>1333</ele>
        <time>2012-10-30T10:27:40Z</time>
      </trkpt>
      <trkpt lat="45.3333" lon="6.33251">
        <ele>1330</ele>
        <time>2012-10-30T10:27:42Z</time>
      </trkpt>
      <trkpt lat="45.33341" lon="6.33222">
        <ele>1328</ele>
        <time>2012-10-30T10:27:44Z</time>
      </trkpt>
      <trkpt lat="45.33353" lon="6.33193">
        <ele>1325</ele>
        <time>2012-10-30T10:27:46Z</time>
      </trkpt>
      <trkpt lat="45.33364" lon="6.33165">
        <ele>1323</ele>
        <time>2012-10-30T10:27:48Z</time>
      </trkpt>
      <trkpt lat="45.33372" lon="6.33118">
        <ele>1322</ele>
        <time>2012-10-30T10:27:50Z</time>
      </trkpt>
      <trkpt lat="45.33379" lon="6.33089">
        <ele>1320</ele>
        <time>2012-10-30T10:27:52Z</time>
      </trkpt>
      <trkpt lat="45.33387" lon="6.33061">
        <ele>1319</ele>
        <time>2012-10-30T10:27:54Z</time>
      </trkpt>
      <trkpt lat="45.33395" lon="6.33033">
        <ele>1318</ele>
        <time>2012-10-30T10:27:56Z</time>
      </trkpt>
      <trkpt lat="45.33401" lon="6.33006">
        <ele>1317</ele>
        <time>2012-10-30T10:27:58Z</time>
      </trkpt>
      <trkpt lat="45.33403" lon="6.32977">
        <ele>1316</ele>
        <time>2012-10-30T10:28:00Z</time>
      </trkpt>
      <trkpt lat="45.33398" lon="6.32949">
        <ele>1315</ele>
        <time>2012-10-30T10:28:02Z</time>
      </trkpt>
      <trkpt lat="45.33389" lon="6.32925">
        <ele>1314</ele>
        <time>2012-10-30T10:28:04Z</time>
      </trkpt>
      <trkpt lat="45.33379" lon="6.32902">
        <ele>1313</ele>
        <time>2012-10-30T10:28:07Z</time>
      </trkpt>
      <trkpt lat="45.3337" lon="6.32878">
        <ele>1311</ele>
        <time>2012-10-30T10:28:09Z</time>
      </trkpt>
      <trkpt lat="45.33362" lon="6.32853">
        <ele>1310</ele>
        <time>2012-10-30T10:28:11Z</time>
      </trkpt>
      <trkpt lat="45.33351" lon="6.32814">
        <ele>1309</ele>
        <time>2012-10-30T10:28:13Z</time>
      </trkpt>
      <trkpt lat="45.3335" lon="6.32791">
        <ele>1308</ele>
        <time>2012-10-30T10:28:15Z</time>
      </trkpt>
      <trkpt lat="45.33347" lon="6.32773">
        <ele>1307</ele>
        <time>2012-10-30T10:28:17Z</time>
      </trkpt>
      <trkpt lat="45.33336" lon="6.32766">
        <ele>1307</ele>
        <time>2012-10-30T10:28:19Z</time>
      </trkpt>
      <trkpt lat="45.33328" lon="6.32773">
        <ele>1307</ele>
        <time>2012-10-30T10:28:21Z</time>
      </trkpt>
      <trkpt lat="45.33326" lon="6.32788">
        <ele>1307</ele>
        <time>2012-10-30T10:28:23Z</time>
      </trkpt>
      <trkpt lat="45.33329" lon="6.32804">
        <ele>1306</ele>
        <time>2012-10-30T10:28:26Z</time>
      </trkpt>
      <trkpt lat="45.33332" lon="6.32822">
        <ele>1305</ele>
        <time>2012-10-30T10:28:28Z</time>
      </trkpt>
      <trkpt lat="45.33335" lon="6.32841">
        <ele>1304</ele>
        <time>2012-10-30T10:28:30Z</time>
      </trkpt>
      <trkpt lat="45.3334" lon="6.32874">
        <ele>1302</ele>
        <time>2012-10-30T10:28:32Z</time>
      </trkpt>
      <trkpt lat="45.33345" lon="6.32898">
        <ele>1300</ele>
        <time>2012-10-30T10:28:34Z</time>
      </trkpt>
      <trkpt lat="45.33348" lon="6.32923">
        <ele>1298</ele>
        <time>2012-10-30T10:28:36Z</time>
      </trkpt>
      <trkpt lat="45.33345" lon="6.32951">
        <ele>1297</ele>
        <time>2012-10-30T10:28:38Z</time>
      </trkpt>
      <trkpt lat="45.33334" lon="6.32976">
        <ele>1294</ele>
        <time>2012-10-30T10:28:41Z</time>
      </trkpt>
      <trkpt lat="45.33319" lon="6.32995">
        <ele>1292</ele>
        <time>2012-10-30T10:28:43Z</time>
      </trkpt>
      <trkpt lat="45.33302" lon="6.33014">
        <ele>1289</ele>
        <time>2012-10-30T10:28:45Z</time>
      </trkpt>
      <trkpt lat="45.33285" lon="6.33033">
        <ele>1288</ele>
        <time>2012-10-30T10:28:47Z</time>
      </trkpt>
      <trkpt lat="45.33269" lon="6.33053">
        <ele>1286</ele>
        <time>2012-10-30T10:28:49Z</time>
      </trkpt>
      <trkpt lat="45.33252" lon="6.33072">
        <ele>1284</ele>
        <time>2012-10-30T10:28:51Z</time>
      </trkpt>
      <trkpt lat="45.33236" lon="6.3309">
        <ele>1283</ele>
        <time>2012-10-30T10:28:53Z</time>
      </trkpt>
      <trkpt lat="45.33212" lon="6.33117">
        <ele>1282</ele>
        <time>2012-10-30T10:28:55Z</time>
      </trkpt>
      <trkpt lat="45.33196" lon="6.33136">
        <ele>1281</ele>
        <time>2012-10-30T10:28:57Z</time>
      </trkpt>
      <trkpt lat="45.3318" lon="6.33154">
        <ele>1280</ele>
        <time>2012-10-30T10:28:59Z</time>
      </trkpt>
      <trkpt lat="45.33163" lon="6.33174">
        <ele>1278</ele>
        <time>2012-10-30T10:29:01Z</time>
      </trkpt>
      <trkpt lat="45.33147" lon="6.33192">
        <ele>1276</ele>
        <time>2012-10-30T10:29:03Z</time>
      </trkpt>
      <trkpt lat="45.33132" lon="6.3321">
        <ele>1274</ele>
        <time>2012-10-30T10:29:05Z</time>
      </trkpt>
      <trkpt lat="45.33117" lon="6.33227">
        <ele>1272</ele>
        <time>2012-10-30T10:29:07Z</time>
      </trkpt>
      <trkpt lat="45.33107" lon="6.33245">
        <ele>1271</ele>
        <time>2012-10-30T10:29:10Z</time>
      </trkpt>
      <trkpt lat="45.331" lon="6.33265">
        <ele>1269</ele>
        <time>2012-10-30T10:29:12Z</time>
      </trkpt>
      <trkpt lat="45.33094" lon="6.33287">
        <ele>1268</ele>
        <time>2012-10-30T10:29:14Z</time>
      </trkpt>
      <trkpt lat="45.33088" lon="6.33311">
        <ele>1266</ele>
        <time>2012-10-30T10:29:16Z</time>
      </trkpt>
      <trkpt lat="45.3308" lon="6.33335">
        <ele>1264</ele>
        <time>2012-10-30T10:29:18Z</time>
      </trkpt>
      <trkpt lat="45.33069" lon="6.33358">
        <ele>1262</ele>
        <time>2012-10-30T10:29:20Z</time>
      </trkpt>
      <trkpt lat="45.33057" lon="6.3338">
        <ele>1260</ele>
        <time>2012-10-30T10:29:22Z</time>
      </trkpt>
      <trkpt lat="45.33048" lon="6.33403">
        <ele>1259</ele>
        <time>2012-10-30T10:29:24Z</time>
      </trkpt>
      <trkpt lat="45.33043" lon="6.33429">
        <ele>1257</ele>
        <time>2012-10-30T10:29:26Z</time>
      </trkpt>
      <trkpt lat="45.33037" lon="6.3347">
        <ele>1256</ele>
        <time>2012-10-30T10:29:28Z</time>
      </trkpt>
      <trkpt lat="45.33029" lon="6.33495">
        <ele>1255</ele>
        <time>2012-10-30T10:29:30Z</time>
      </trkpt>
      <trkpt lat="45.33016" lon="6.33516">
        <ele>1254</ele>
        <time>2012-10-30T10:29:32Z</time>
      </trkpt>
      <trkpt lat="45.32999" lon="6.33532">
        <ele>1252</ele>
        <time>2012-10-30T10:29:34Z</time>
      </trkpt>
      <trkpt lat="45.32982" lon="6.33548">
        <ele>1250</ele>
        <time>2012-10-30T10:29:36Z</time>
      </trkpt>
      <trkpt lat="45.32965" lon="6.33565">
        <ele>1248</ele>
        <time>2012-10-30T10:29:38Z</time>
      </trkpt>
      <trkpt lat="45.32949" lon="6.3358">
        <ele>1246</ele>
        <time>2012-10-30T10:29:40Z</time>
      </trkpt>
      <trkpt lat="45.32933" lon="6.33595">
        <ele>1245</ele>
        <time>2012-10-30T10:29:43Z</time>
      </trkpt>
      <trkpt lat="45.32919" lon="6.33607">
        <ele>1243</ele>
        <time>2012-10-30T10:29:45Z</time>
      </trkpt>
      <trkpt lat="45.32906" lon="6.33617">
        <ele>1242</ele>
        <time>2012-10-30T10:29:47Z</time>
      </trkpt>
      <trkpt lat="45.32893" lon="6.33626">
        <ele>1240</ele>
        <time>2012-10-30T10:29:49Z</time>
      </trkpt>
      <trkpt lat="45.32882" lon="6.33635">
        <ele>1239</ele>
        <time>2012-10-30T10:29:51Z</time>
      </trkpt>
      <trkpt lat="45.32868" lon="6.33644">
        <ele>1237</ele>
        <time>2012-10-30T10:29:53Z</time>
      </trkpt>
      <trkpt lat="45.32855" lon="6.33659">
        <ele>1236</ele>
        <time>2012-10-30T10:29:55Z</time>
      </trkpt>
      <trkpt lat="45.32844" lon="6.33678">
        <ele>1233</ele>
        <time>2012-10-30T10:29:57Z</time>
      </trkpt>
      <trkpt lat="45.32835" lon="6.33701">
        <ele>1232</ele>
        <time>2012-10-30T10:29:59Z</time>
      </trkpt>
      <trkpt lat="45.32827" lon="6.33726">
        <ele>1229</ele>
        <time>2012-10-30T10:30:01Z</time>
      </trkpt>
      <trkpt lat="45.32819" lon="6.33751">
        <ele>1227</ele>
        <time>2012-10-30T10:30:03Z</time>
      </trkpt>
      <trkpt lat="45.32811" lon="6.33781">
        <ele>1226</ele>
        <time>2012-10-30T10:30:05Z</time>
      </trkpt>
      <trkpt lat="45.32807" lon="6.33796">
        <ele>1224</ele>
        <time>2012-10-30T10:30:07Z</time>
      </trkpt>
      <trkpt lat="45.32799" lon="6.33805">
        <ele>1223</ele>
        <time>2012-10-30T10:30:09Z</time>
      </trkpt>
      <trkpt lat="45.32788" lon="6.33802">
        <ele>1222</ele>
        <time>2012-10-30T10:30:11Z</time>
      </trkpt>
      <trkpt lat="45.32781" lon="6.33788">
        <ele>1221</ele>
        <time>2012-10-30T10:30:13Z</time>
      </trkpt>
      <trkpt lat="45.32778" lon="6.3377">
        <ele>1219</ele>
        <time>2012-10-30T10:30:15Z</time>
      </trkpt>
      <trkpt lat="45.32776" lon="6.3375">
        <ele>1218</ele>
        <time>2012-10-30T10:30:17Z</time>
      </trkpt>
      <trkpt lat="45.32779" lon="6.33729">
        <ele>1217</ele>
        <time>2012-10-30T10:30:19Z</time>
      </trkpt>
      <trkpt lat="45.32782" lon="6.33708">
        <ele>1215</ele>
        <time>2012-10-30T10:30:22Z</time>
      </trkpt>
      <trkpt lat="45.32783" lon="6.33686">
        <ele>1214</ele>
        <time>2012-10-30T10:30:24Z</time>
      </trkpt>
      <trkpt lat="45.32785" lon="6.33666">
        <ele>1213</ele>
        <time>2012-10-30T10:30:26Z</time>
      </trkpt>
      <trkpt lat="45.32792" lon="6.33648">
        <ele>1212</ele>
        <time>2012-10-30T10:30:28Z</time>
      </trkpt>
      <trkpt lat="45.328" lon="6.33631">
        <ele>1211</ele>
        <time>2012-10-30T10:30:30Z</time>
      </trkpt>
      <trkpt lat="45.32809" lon="6.3361">
        <ele>1210</ele>
        <time>2012-10-30T10:30:32Z</time>
      </trkpt>
      <trkpt lat="45.32806" lon="6.336">
        <ele>1209</ele>
        <time>2012-10-30T10:30:34Z</time>
      </trkpt>
      <trkpt lat="45.328" lon="6.33601">
        <ele>1209</ele>
        <time>2012-10-30T10:30:36Z</time>
      </trkpt>
      <trkpt lat="45.32796" lon="6.33607">
        <ele>1210</ele>
        <time>2012-10-30T10:30:38Z</time>
      </trkpt>
      <trkpt lat="45.32792" lon="6.33615">
        <ele>1209</ele>
        <time>2012-10-30T10:30:40Z</time>
      </trkpt>
      <trkpt lat="45.32787" lon="6.33623">
        <ele>1209</ele>
        <time>2012-10-30T10:30:42Z</time>
      </trkpt>
      <trkpt lat="45.3278" lon="6.33632">
        <ele>1209</ele>
        <time>2012-10-30T10:30:44Z</time>
      </trkpt>
      <trkpt lat="45.32774" lon="6.33641">
        <ele>1208</ele>
        <time>2012-10-30T10:30:47Z</time>
      </trkpt>
      <trkpt lat="45.32768" lon="6.33649">
        <ele>1207</ele>
        <time>2012-10-30T10:30:49Z</time>
      </trkpt>
      <trkpt lat="45.32762" lon="6.33659">
        <ele>1206</ele>
        <time>2012-10-30T10:30:51Z</time>
      </trkpt>
      <trkpt lat="45.32754" lon="6.3367">
        <ele>1205</ele>
        <time>2012-10-30T10:30:53Z</time>
      </trkpt>
      <trkpt lat="45.32747" lon="6.33681">
        <ele>1204</ele>
        <time>2012-10-30T10:30:55Z</time>
      </trkpt>
      <trkpt lat="45.3274" lon="6.33691">
        <ele>1203</ele>
        <time>2012-10-30T10:30:57Z</time>
      </trkpt>
      <trkpt lat="45.32733" lon="6.33699">
        <ele>1202</ele>
        <time>2012-10-30T10:30:59Z</time>
      </trkpt>
      <trkpt lat="45.32727" lon="6.33709">
        <ele>1202</ele>
        <time>2012-10-30T10:31:01Z</time>
      </trkpt>
      <trkpt lat="45.32723" lon="6.33712">
        <ele>1201</ele>
        <time>2012-10-30T10:31:03Z</time>
      </trkpt>
      <trkpt lat="45.32721" lon="6.33708">
        <ele>1200</ele>
        <time>2012-10-30T10:31:05Z</time>
      </trkpt>
      <trkpt lat="45.32722" lon="6.33701">
        <ele>1199</ele>
        <time>2012-10-30T10:31:07Z</time>
      </trkpt>
      <trkpt lat="45.32726" lon="6.33692">
        <ele>1197</ele>
        <time>2012-10-30T10:31:09Z</time>
      </trkpt>
      <trkpt lat="45.32729" lon="6.3368">
        <ele>1196</ele>
        <time>2012-10-30T10:31:11Z</time>
      </trkpt>
      <trkpt lat="45.32731" lon="6.33669">
        <ele>1194</ele>
        <time>2012-10-30T10:31:13Z</time>
      </trkpt>
      <trkpt lat="45.32733" lon="6.33657">
        <ele>1193</ele>
        <time>2012-10-30T10:31:15Z</time>
      </trkpt>
      <trkpt lat="45.32735" lon="6.33645">
        <ele>1193</ele>
        <time>2012-10-30T10:31:18Z</time>
      </trkpt>
      <trkpt lat="45.32737" lon="6.33634">
        <ele>1193</ele>
        <time>2012-10-30T10:31:20Z</time>
      </trkpt>
      <trkpt lat="45.32738" lon="6.33623">
        <ele>1192</ele>
        <time>2012-10-30T10:31:22Z</time>
      </trkpt>
      <trkpt lat="45.32737" lon="6.33612">
        <ele>1192</ele>
        <time>2012-10-30T10:31:24Z</time>
      </trkpt>
      <trkpt lat="45.32735" lon="6.33603">
        <ele>1191</ele>
        <time>2012-10-30T10:31:26Z</time>
      </trkpt>
      <trkpt lat="45.32734" lon="6.33595">
        <ele>1190</ele>
        <time>2012-10-30T10:31:28Z</time>
      </trkpt>
      <trkpt lat="45.32735" lon="6.33585">
        <ele>1190</ele>
        <time>2012-10-30T10:31:30Z</time>
      </trkpt>
      <trkpt lat="45.32734" lon="6.33578">
        <ele>1189</ele>
        <time>2012-10-30T10:31:32Z</time>
      </trkpt>
      <trkpt lat="45.32735" lon="6.33571">
        <ele>1188</ele>
        <time>2012-10-30T10:31:34Z</time>
      </trkpt>
      <trkpt lat="45.32735" lon="6.33563">
        <ele>1187</ele>
        <time>2012-10-30T10:31:37Z</time>
      </trkpt>
      <trkpt lat="45.32736" lon="6.33557">
        <ele>1186</ele>
        <time>2012-10-30T10:31:39Z</time>
      </trkpt>
      <trkpt lat="45.32737" lon="6.33549">
        <ele>1185</ele>
        <time>2012-10-30T10:31:41Z</time>
      </trkpt>
      <trkpt lat="45.32738" lon="6.33547">
        <ele>1185</ele>
        <time>2012-10-30T10:31:43Z</time>
      </trkpt>
      <trkpt lat="45.32738" lon="6.33546">
        <ele>1184</ele>
        <time>2012-10-30T10:31:45Z</time>
      </trkpt>
      <trkpt lat="45.32738" lon="6.33546">
        <ele>1184</ele>
        <time>2012-10-30T10:31:47Z</time>
      </trkpt>
      <trkpt lat="45.32738" lon="6.33545">
        <ele>1184</ele>
        <time>2012-10-30T10:31:49Z</time>
      </trkpt>
      <trkpt lat="45.32739" lon="6.33543">
        <ele>1183</ele>
        <time>2012-10-30T10:31:52Z</time>
      </trkpt>
      <trkpt lat="45.32739" lon="6.33542">
        <ele>1183</ele>
        <time>2012-10-30T10:31:54Z</time>
      </trkpt>
      <trkpt lat="45.32739" lon="6.33542">
        <ele>1183</ele>
        <time>2012-10-30T10:31:56Z</time>
      </trkpt>
      <trkpt lat="45.32739" lon="6.33545">
        <ele>1183</ele>
        <time>2012-10-30T10:31:58Z</time>
      </trkpt>
      <trkpt lat="45.32739" lon="6.33547">
        <ele>1183</ele>
        <time>2012-10-30T10:32:00Z</time>
      </trkpt>
      <trkpt lat="45.32739" lon="6.3355">
        <ele>1184</ele>
        <time>2012-10-30T10:32:02Z</time>
      </trkpt>
      <trkpt lat="45.3274" lon="6.33553">
        <ele>1184</ele>
        <time>2012-10-30T10:32:04Z</time>
      </trkpt>
      <trkpt lat="45.3274" lon="6.33556">
        <ele>1184</ele>
        <time>2012-10-30T10:32:06Z</time>
      </trkpt>
      <trkpt lat="45.3274" lon="6.33559">
        <ele>1185</ele>
        <time>2012-10-30T10:32:08Z</time>
      </trkpt>
      <trkpt lat="45.32739" lon="6.33562">
        <ele>1186</ele>
        <time>2012-10-30T10:32:10Z</time>
      </trkpt>
      <trkpt lat="45.32739" lon="6.33563">
        <ele>1186</ele>
        <time>2012-10-30T10:32:12Z</time>
      </trkpt>
      <trkpt lat="45.32738" lon="6.33568">
        <ele>1187</ele>
        <time>2012-10-30T10:32:14Z</time>
      </trkpt>
      <trkpt lat="45.32738" lon="6.33571">
        <ele>1187</ele>
        <time>2012-10-30T10:32:17Z</time>
      </trkpt>
      <trkpt lat="45.32738" lon="6.33574">
        <ele>1187</ele>
        <time>2012-10-30T10:32:19Z</time>
      </trkpt>
      <trkpt lat="45.32738" lon="6.33578">
        <ele>1187</ele>
        <time>2012-10-30T10:32:21Z</time>
      </trkpt>
      <trkpt lat="45.32738" lon="6.3358">
        <ele>1187</ele>
        <time>2012-10-30T10:32:23Z</time>
      </trkpt>
      <trkpt lat="45.32738" lon="6.33587">
        <ele>1188</ele>
        <time>2012-10-30T10:32:25Z</time>
      </trkpt>
      <trkpt lat="45.32738" lon="6.33589">
        <ele>1189</ele>
        <time>2012-10-30T10:32:28Z</time>
      </trkpt>
      <trkpt lat="45.32738" lon="6.33597">
        <ele>1189</ele>
        <time>2012-10-30T10:32:30Z</time>
      </trkpt>
      <trkpt lat="45.32738" lon="6.33601">
        <ele>1190</ele>
        <time>2012-10-30T10:32:32Z</time>
      </trkpt>
      <trkpt lat="45.3274" lon="6.33604">
        <ele>1190</ele>
        <time>2012-10-30T10:32:34Z</time>
      </trkpt>
      <trkpt lat="45.3274" lon="6.33608">
        <ele>1191</ele>
        <time>2012-10-30T10:32:36Z</time>
      </trkpt>
      <trkpt lat="45.32741" lon="6.33611">
        <ele>1191</ele>
        <time>2012-10-30T10:32:38Z</time>
      </trkpt>
      <trkpt lat="45.32742" lon="6.33615">
        <ele>1191</ele>
        <time>2012-10-30T10:32:40Z</time>
      </trkpt>
      <trkpt lat="45.32743" lon="6.33617">
        <ele>1191</ele>
        <time>2012-10-30T10:32:42Z</time>
      </trkpt>
      <trkpt lat="45.32743" lon="6.33619">
        <ele>1191</ele>
        <time>2012-10-30T10:32:44Z</time>
      </trkpt>
      <trkpt lat="45.32742" lon="6.33622">
        <ele>1192</ele>
        <time>2012-10-30T10:32:47Z</time>
      </trkpt>
      <trkpt lat="45.3274" lon="6.33627">
        <ele>1192</ele>
        <time>2012-10-30T10:32:49Z</time>
      </trkpt>
      <trkpt lat="45.32738" lon="6.33632">
        <ele>1192</ele>
        <time>2012-10-30T10:32:51Z</time>
      </trkpt>
      <trkpt lat="45.32737" lon="6.33638">
        <ele>1192</ele>
        <time>2012-10-30T10:32:53Z</time>
      </trkpt>
      <trkpt lat="45.32736" lon="6.33645">
        <ele>1192</ele>
        <time>2012-10-30T10:32:55Z</time>
      </trkpt>
      <trkpt lat="45.32735" lon="6.33652">
        <ele>1193</ele>
        <time>2012-10-30T10:32:57Z</time>
      </trkpt>
      <trkpt lat="45.32733" lon="6.3366">
        <ele>1193</ele>
        <time>2012-10-30T10:32:59Z</time>
      </trkpt>
      <trkpt lat="45.32732" lon="6.33667">
        <ele>1194</ele>
        <time>2012-10-30T10:33:01Z</time>
      </trkpt>
      <trkpt lat="45.3273" lon="6.33675">
        <ele>1194</ele>
        <time>2012-10-30T10:33:03Z</time>
      </trkpt>
      <trkpt lat="45.32728" lon="6.33682">
        <ele>1194</ele>
        <time>2012-10-30T10:33:05Z</time>
      </trkpt>
      <trkpt lat="45.32726" lon="6.33689">
        <ele>1194</ele>
        <time>2012-10-30T10:33:07Z</time>
      </trkpt>
      <trkpt lat="45.32722" lon="6.337">
        <ele>1195</ele>
        <time>2012-10-30T10:33:09Z</time>
      </trkpt>
      <trkpt lat="45.3272" lon="6.33707">
        <ele>1196</ele>
        <time>2012-10-30T10:33:11Z</time>
      </trkpt>
      <trkpt lat="45.32718" lon="6.33712">
        <ele>1197</ele>
        <time>2012-10-30T10:33:13Z</time>
      </trkpt>
      <trkpt lat="45.32715" lon="6.33717">
        <ele>1198</ele>
        <time>2012-10-30T10:33:15Z</time>
      </trkpt>
      <trkpt lat="45.3271" lon="6.33723">
        <ele>1198</ele>
        <time>2012-10-30T10:33:17Z</time>
      </trkpt>
      <trkpt lat="45.32704" lon="6.3373">
        <ele>1197</ele>
        <time>2012-10-30T10:33:20Z</time>
      </trkpt>
      <trkpt lat="45.32697" lon="6.33738">
        <ele>1196</ele>
        <time>2012-10-30T10:33:22Z</time>
      </trkpt>
      <trkpt lat="45.32687" lon="6.33756">
        <ele>1195</ele>
        <time>2012-10-30T10:33:24Z</time>
      </trkpt>
      <trkpt lat="45.32682" lon="6.33773">
        <ele>1193</ele>
        <time>2012-10-30T10:33:26Z</time>
      </trkpt>
      <trkpt lat="45.32678" lon="6.33791">
        <ele>1191</ele>
        <time>2012-10-30T10:33:28Z</time>
      </trkpt>
      <trkpt lat="45.32674" lon="6.3381">
        <ele>1190</ele>
        <time>2012-10-30T10:33:30Z</time>
      </trkpt>
      <trkpt lat="45.32674" lon="6.3383">
        <ele>1188</ele>
        <time>2012-10-30T10:33:32Z</time>
      </trkpt>
      <trkpt lat="45.32676" lon="6.33853">
        <ele>1187</ele>
        <time>2012-10-30T10:33:35Z</time>
      </trkpt>
      <trkpt lat="45.32679" lon="6.33876">
        <ele>1185</ele>
        <time>2012-10-30T10:33:37Z</time>
      </trkpt>
      <trkpt lat="45.32682" lon="6.339">
        <ele>1183</ele>
        <time>2012-10-30T10:33:39Z</time>
      </trkpt>
      <trkpt lat="45.32686" lon="6.33925">
        <ele>1182</ele>
        <time>2012-10-30T10:33:41Z</time>
      </trkpt>
      <trkpt lat="45.32686" lon="6.33948">
        <ele>1180</ele>
        <time>2012-10-30T10:33:43Z</time>
      </trkpt>
      <trkpt lat="45.32673" lon="6.33974">
        <ele>1178</ele>
        <time>2012-10-30T10:33:45Z</time>
      </trkpt>
      <trkpt lat="45.32663" lon="6.33991">
        <ele>1177</ele>
        <time>2012-10-30T10:33:47Z</time>
      </trkpt>
      <trkpt lat="45.32652" lon="6.34009">
        <ele>1176</ele>
        <time>2012-10-30T10:33:49Z</time>
      </trkpt>
      <trkpt lat="45.32641" lon="6.34028">
        <ele>1174</ele>
        <time>2012-10-30T10:33:51Z</time>
      </trkpt>
      <trkpt lat="45.32632" lon="6.34046">
        <ele>1173</ele>
        <time>2012-10-30T10:33:53Z</time>
      </trkpt>
      <trkpt lat="45.32626" lon="6.3406">
        <ele>1172</ele>
        <time>2012-10-30T10:33:55Z</time>
      </trkpt>
      <trkpt lat="45.32621" lon="6.34073">
        <ele>1172</ele>
        <time>2012-10-30T10:33:57Z</time>
      </trkpt>
      <trkpt lat="45.32618" lon="6.34085">
        <ele>1172</ele>
        <time>2012-10-30T10:34:00Z</time>
      </trkpt>
      <trkpt lat="45.32616" lon="6.34096">
        <ele>1171</ele>
        <time>2012-10-30T10:34:02Z</time>
      </trkpt>
      <trkpt lat="45.32614" lon="6.34109">
        <ele>1171</ele>
        <time>2012-10-30T10:34:04Z</time>
      </trkpt>
      <trkpt lat="45.32611" lon="6.34124">
        <ele>1170</ele>
        <time>2012-10-30T10:34:06Z</time>
      </trkpt>
      <trkpt lat="45.32608" lon="6.34141">
        <ele>1169</ele>
        <time>2012-10-30T10:34:08Z</time>
      </trkpt>
      <trkpt lat="45.32605" lon="6.34158">
        <ele>1168</ele>
        <time>2012-10-30T10:34:10Z</time>
      </trkpt>
      <trkpt lat="45.32602" lon="6.34177">
        <ele>1167</ele>
        <time>2012-10-30T10:34:12Z</time>
      </trkpt>
      <trkpt lat="45.32598" lon="6.34197">
        <ele>1166</ele>
        <time>2012-10-30T10:34:14Z</time>
      </trkpt>
      <trkpt lat="45.32589" lon="6.34215">
        <ele>1164</ele>
        <time>2012-10-30T10:34:16Z</time>
      </trkpt>
      <trkpt lat="45.32575" lon="6.34227">
        <ele>1162</ele>
        <time>2012-10-30T10:34:18Z</time>
      </trkpt>
      <trkpt lat="45.32563" lon="6.34246">
        <ele>1160</ele>
        <time>2012-10-30T10:34:20Z</time>
      </trkpt>
      <trkpt lat="45.32546" lon="6.34278">
        <ele>1158</ele>
        <time>2012-10-30T10:34:22Z</time>
      </trkpt>
      <trkpt lat="45.3253" lon="6.34296">
        <ele>1156</ele>
        <time>2012-10-30T10:34:24Z</time>
      </trkpt>
      <trkpt lat="45.32514" lon="6.34312">
        <ele>1154</ele>
        <time>2012-10-30T10:34:26Z</time>
      </trkpt>
      <trkpt lat="45.32499" lon="6.34333">
        <ele>1152</ele>
        <time>2012-10-30T10:34:28Z</time>
      </trkpt>
      <trkpt lat="45.32486" lon="6.34355">
        <ele>1150</ele>
        <time>2012-10-30T10:34:30Z</time>
      </trkpt>
      <trkpt lat="45.32474" lon="6.34377">
        <ele>1149</ele>
        <time>2012-10-30T10:34:32Z</time>
      </trkpt>
      <trkpt lat="45.32463" lon="6.34396">
        <ele>1148</ele>
        <time>2012-10-30T10:34:35Z</time>
      </trkpt>
      <trkpt lat="45.32456" lon="6.34411">
        <ele>1148</ele>
        <time>2012-10-30T10:34:37Z</time>
      </trkpt>
      <trkpt lat="45.32446" lon="6.34416">
        <ele>1148</ele>
        <time>2012-10-30T10:34:39Z</time>
      </trkpt>
      <trkpt lat="45.3244" lon="6.34407">
        <ele>1147</ele>
        <time>2012-10-30T10:34:41Z</time>
      </trkpt>
      <trkpt lat="45.32443" lon="6.34395">
        <ele>1147</ele>
        <time>2012-10-30T10:34:43Z</time>
      </trkpt>
      <trkpt lat="45.32451" lon="6.34385">
        <ele>1146</ele>
        <time>2012-10-30T10:34:45Z</time>
      </trkpt>
      <trkpt lat="45.32458" lon="6.34374">
        <ele>1145</ele>
        <time>2012-10-30T10:34:47Z</time>
      </trkpt>
      <trkpt lat="45.32468" lon="6.34349">
        <ele>1144</ele>
        <time>2012-10-30T10:34:49Z</time>
      </trkpt>
      <trkpt lat="45.32473" lon="6.3433">
        <ele>1143</ele>
        <time>2012-10-30T10:34:51Z</time>
      </trkpt>
      <trkpt lat="45.32475" lon="6.3431">
        <ele>1141</ele>
        <time>2012-10-30T10:34:53Z</time>
      </trkpt>
      <trkpt lat="45.32473" lon="6.3429">
        <ele>1140</ele>
        <time>2012-10-30T10:34:55Z</time>
      </trkpt>
      <trkpt lat="45.32465" lon="6.3427">
        <ele>1139</ele>
        <time>2012-10-30T10:34:57Z</time>
      </trkpt>
      <trkpt lat="45.32456" lon="6.34253">
        <ele>1138</ele>
        <time>2012-10-30T10:34:59Z</time>
      </trkpt>
      <trkpt lat="45.32449" lon="6.34236">
        <ele>1137</ele>
        <time>2012-10-30T10:35:01Z</time>
      </trkpt>
      <trkpt lat="45.32448" lon="6.34219">
        <ele>1136</ele>
        <time>2012-10-30T10:35:03Z</time>
      </trkpt>
      <trkpt lat="45.32456" lon="6.34204">
        <ele>1135</ele>
        <time>2012-10-30T10:35:05Z</time>
      </trkpt>
      <trkpt lat="45.32469" lon="6.34198">
        <ele>1133</ele>
        <time>2012-10-30T10:35:07Z</time>
      </trkpt>
      <trkpt lat="45.32484" lon="6.34191">
        <ele>1131</ele>
        <time>2012-10-30T10:35:10Z</time>
      </trkpt>
      <trkpt lat="45.32499" lon="6.34185">
        <ele>1129</ele>
        <time>2012-10-30T10:35:12Z</time>
      </trkpt>
      <trkpt lat="45.32506" lon="6.34169">
        <ele>1127</ele>
        <time>2012-10-30T10:35:14Z</time>
      </trkpt>
      <trkpt lat="45.32506" lon="6.34148">
        <ele>1126</ele>
        <time>2012-10-30T10:35:16Z</time>
      </trkpt>
      <trkpt lat="45.32503" lon="6.34124">
        <ele>1124</ele>
        <time>2012-10-30T10:35:18Z</time>
      </trkpt>
      <trkpt lat="45.32499" lon="6.34085">
        <ele>1122</ele>
        <time>2012-10-30T10:35:20Z</time>
      </trkpt>
      <trkpt lat="45.32494" lon="6.34057">
        <ele>1120</ele>
        <time>2012-10-30T10:35:22Z</time>
      </trkpt>
      <trkpt lat="45.3249" lon="6.34029">
        <ele>1118</ele>
        <time>2012-10-30T10:35:24Z</time>
      </trkpt>
      <trkpt lat="45.32486" lon="6.34003">
        <ele>1116</ele>
        <time>2012-10-30T10:35:26Z</time>
      </trkpt>
      <trkpt lat="45.32481" lon="6.33978">
        <ele>1115</ele>
        <time>2012-10-30T10:35:28Z</time>
      </trkpt>
      <trkpt lat="45.3247" lon="6.33957">
        <ele>1115</ele>
        <time>2012-10-30T10:35:30Z</time>
      </trkpt>
      <trkpt lat="45.3246" lon="6.33935">
        <ele>1113</ele>
        <time>2012-10-30T10:35:32Z</time>
      </trkpt>
      <trkpt lat="45.3245" lon="6.33911">
        <ele>1111</ele>
        <time>2012-10-30T10:35:34Z</time>
      </trkpt>
      <trkpt lat="45.32438" lon="6.3389">
        <ele>1109</ele>
        <time>2012-10-30T10:35:36Z</time>
      </trkpt>
      <trkpt lat="45.32426" lon="6.33869">
        <ele>1107</ele>
        <time>2012-10-30T10:35:38Z</time>
      </trkpt>
      <trkpt lat="45.32415" lon="6.33852">
        <ele>1107</ele>
        <time>2012-10-30T10:35:40Z</time>
      </trkpt>
      <trkpt lat="45.32405" lon="6.33835">
        <ele>1107</ele>
        <time>2012-10-30T10:35:42Z</time>
      </trkpt>
      <trkpt lat="45.32398" lon="6.3382">
        <ele>1107</ele>
        <time>2012-10-30T10:35:44Z</time>
      </trkpt>
      <trkpt lat="45.32393" lon="6.33808">
        <ele>1107</ele>
        <time>2012-10-30T10:35:47Z</time>
      </trkpt>
      <trkpt lat="45.32388" lon="6.338">
        <ele>1106</ele>
        <time>2012-10-30T10:35:49Z</time>
      </trkpt>
      <trkpt lat="45.32384" lon="6.33803">
        <ele>1106</ele>
        <time>2012-10-30T10:35:51Z</time>
      </trkpt>
      <trkpt lat="45.32384" lon="6.33809">
        <ele>1105</ele>
        <time>2012-10-30T10:35:53Z</time>
      </trkpt>
      <trkpt lat="45.32385" lon="6.33814">
        <ele>1104</ele>
        <time>2012-10-30T10:35:55Z</time>
      </trkpt>
      <trkpt lat="45.32385" lon="6.33819">
        <ele>1103</ele>
        <time>2012-10-30T10:35:57Z</time>
      </trkpt>
      <trkpt lat="45.32384" lon="6.33825">
        <ele>1102</ele>
        <time>2012-10-30T10:35:59Z</time>
      </trkpt>
      <trkpt lat="45.32384" lon="6.33833">
        <ele>1100</ele>
        <time>2012-10-30T10:36:01Z</time>
      </trkpt>
      <trkpt lat="45.32383" lon="6.33842">
        <ele>1099</ele>
        <time>2012-10-30T10:36:03Z</time>
      </trkpt>
      <trkpt lat="45.32382" lon="6.3385">
        <ele>1097</ele>
        <time>2012-10-30T10:36:05Z</time>
      </trkpt>
      <trkpt lat="45.32383" lon="6.33869">
        <ele>1096</ele>
        <time>2012-10-30T10:36:07Z</time>
      </trkpt>
      <trkpt lat="45.32383" lon="6.33885">
        <ele>1094</ele>
        <time>2012-10-30T10:36:09Z</time>
      </trkpt>
      <trkpt lat="45.32379" lon="6.33898">
        <ele>1093</ele>
        <time>2012-10-30T10:36:11Z</time>
      </trkpt>
      <trkpt lat="45.32373" lon="6.33905">
        <ele>1092</ele>
        <time>2012-10-30T10:36:13Z</time>
      </trkpt>
      <trkpt lat="45.32368" lon="6.33905">
        <ele>1091</ele>
        <time>2012-10-30T10:36:15Z</time>
      </trkpt>
      <trkpt lat="45.32367" lon="6.33903">
        <ele>1091</ele>
        <time>2012-10-30T10:36:17Z</time>
      </trkpt>
      <trkpt lat="45.32367" lon="6.33904">
        <ele>1091</ele>
        <time>2012-10-30T10:36:19Z</time>
      </trkpt>
      <trkpt lat="45.32367" lon="6.33905">
        <ele>1091</ele>
        <time>2012-10-30T10:36:22Z</time>
      </trkpt>
      <trkpt lat="45.32368" lon="6.33905">
        <ele>1091</ele>
        <time>2012-10-30T10:36:24Z</time>
      </trkpt>
      <trkpt lat="45.32368" lon="6.33906">
        <ele>1091</ele>
        <time>2012-10-30T10:36:26Z</time>
      </trkpt>
      <trkpt lat="45.32368" lon="6.33906">
        <ele>1091</ele>
        <time>2012-10-30T10:36:27Z</time>
      </trkpt>
    </trkseg>
  </trk>
</gpx>